<?xml version="1.0" encoding="UTF-8" standalone="no" ?>
<gpx xmlns="http://www.topografix.com/GPX/1/1" xmlns:xsi="http://www.w3.org/2001/XMLSchema-instance" xsi:schemaLocation="http://www.topografix.com/GPX/1/1 http://www.topografix.com/GPX/1/1/gpx.xsd" version="1.1" creator="VisuGPX - https://www.visugpx.com">
  <metadata>
    <name>Cumul Sorties vélo avec Robin</name>
  </metadata>
  <trk>
    <name><![CDATA[Toulouse Cyclisme sur route]]></name>
    <extensions>
      <line xmlns="http://www.topografix.com/GPX/gpx_style/0/2">
        <color>0000FF</color>
        <width>4</width>
      </line>
    </extensions>
    <trkseg>
      <trkpt lat="43.54347" lon="1.45871">
        <ele>199</ele>
        <time>2020-05-31T13:58:19.000Z</time>
      </trkpt>
      <trkpt lat="43.54347" lon="1.45871">
        <ele>199</ele>
        <time>2020-05-31T13:58:19.000Z</time>
      </trkpt>
      <trkpt lat="43.54348" lon="1.45875">
        <ele>199.19999694824</ele>
        <time>2020-05-31T13:58:20.000Z</time>
      </trkpt>
      <trkpt lat="43.54347" lon="1.4588">
        <ele>199.80000305176</ele>
        <time>2020-05-31T13:58:21.000Z</time>
      </trkpt>
      <trkpt lat="43.54347" lon="1.45884">
        <ele>200.19999694824</ele>
        <time>2020-05-31T13:58:22.000Z</time>
      </trkpt>
      <trkpt lat="43.54346" lon="1.45888">
        <ele>200.19999694824</ele>
        <time>2020-05-31T13:58:23.000Z</time>
      </trkpt>
      <trkpt lat="43.5435" lon="1.45904">
        <ele>199.39999389648</ele>
        <time>2020-05-31T13:58:27.000Z</time>
      </trkpt>
      <trkpt lat="43.54354" lon="1.45911">
        <ele>199.80000305176</ele>
        <time>2020-05-31T13:58:29.000Z</time>
      </trkpt>
      <trkpt lat="43.54358" lon="1.4592">
        <ele>199.19999694824</ele>
        <time>2020-05-31T13:58:31.000Z</time>
      </trkpt>
      <trkpt lat="43.54359" lon="1.45924">
        <ele>198.80000305176</ele>
        <time>2020-05-31T13:58:32.000Z</time>
      </trkpt>
      <trkpt lat="43.54363" lon="1.45933">
        <ele>198.60000610352</ele>
        <time>2020-05-31T13:58:34.000Z</time>
      </trkpt>
      <trkpt lat="43.54366" lon="1.45942">
        <ele>198.60000610352</ele>
        <time>2020-05-31T13:58:36.000Z</time>
      </trkpt>
      <trkpt lat="43.54369" lon="1.45951">
        <ele>199.19999694824</ele>
        <time>2020-05-31T13:58:38.000Z</time>
      </trkpt>
      <trkpt lat="43.54373" lon="1.4596">
        <ele>199</ele>
        <time>2020-05-31T13:58:40.000Z</time>
      </trkpt>
      <trkpt lat="43.54378" lon="1.45967">
        <ele>198.80000305176</ele>
        <time>2020-05-31T13:58:42.000Z</time>
      </trkpt>
      <trkpt lat="43.54383" lon="1.45971">
        <ele>198.80000305176</ele>
        <time>2020-05-31T13:58:44.000Z</time>
      </trkpt>
      <trkpt lat="43.54389" lon="1.45973">
        <ele>198.80000305176</ele>
        <time>2020-05-31T13:58:46.000Z</time>
      </trkpt>
      <trkpt lat="43.54395" lon="1.45972">
        <ele>198.80000305176</ele>
        <time>2020-05-31T13:58:48.000Z</time>
      </trkpt>
      <trkpt lat="43.54399" lon="1.45969">
        <ele>198.80000305176</ele>
        <time>2020-05-31T13:58:50.000Z</time>
      </trkpt>
      <trkpt lat="43.54403" lon="1.45964">
        <ele>199</ele>
        <time>2020-05-31T13:58:52.000Z</time>
      </trkpt>
      <trkpt lat="43.54406" lon="1.45958">
        <ele>199.19999694824</ele>
        <time>2020-05-31T13:58:54.000Z</time>
      </trkpt>
      <trkpt lat="43.54408" lon="1.45952">
        <ele>199.39999389648</ele>
        <time>2020-05-31T13:58:56.000Z</time>
      </trkpt>
      <trkpt lat="43.54409" lon="1.45945">
        <ele>200</ele>
        <time>2020-05-31T13:58:58.000Z</time>
      </trkpt>
      <trkpt lat="43.5441" lon="1.45939">
        <ele>200.19999694824</ele>
        <time>2020-05-31T13:59:00.000Z</time>
      </trkpt>
      <trkpt lat="43.54411" lon="1.45933">
        <ele>200.60000610352</ele>
        <time>2020-05-31T13:59:02.000Z</time>
      </trkpt>
      <trkpt lat="43.54413" lon="1.45927">
        <ele>201</ele>
        <time>2020-05-31T13:59:04.000Z</time>
      </trkpt>
      <trkpt lat="43.54413" lon="1.45924">
        <ele>201.19999694824</ele>
        <time>2020-05-31T13:59:05.000Z</time>
      </trkpt>
      <trkpt lat="43.54414" lon="1.45922">
        <ele>201.39999389648</ele>
        <time>2020-05-31T13:59:06.000Z</time>
      </trkpt>
      <trkpt lat="43.54413" lon="1.45916">
        <ele>201.80000305176</ele>
        <time>2020-05-31T13:59:08.000Z</time>
      </trkpt>
      <trkpt lat="43.54413" lon="1.45909">
        <ele>202.19999694824</ele>
        <time>2020-05-31T13:59:10.000Z</time>
      </trkpt>
      <trkpt lat="43.54412" lon="1.45906">
        <ele>202.39999389648</ele>
        <time>2020-05-31T13:59:11.000Z</time>
      </trkpt>
      <trkpt lat="43.54412" lon="1.45902">
        <ele>202.60000610352</ele>
        <time>2020-05-31T13:59:12.000Z</time>
      </trkpt>
      <trkpt lat="43.54411" lon="1.45895">
        <ele>202.80000305176</ele>
        <time>2020-05-31T13:59:14.000Z</time>
      </trkpt>
      <trkpt lat="43.54411" lon="1.45887">
        <ele>203</ele>
        <time>2020-05-31T13:59:16.000Z</time>
      </trkpt>
      <trkpt lat="43.5441" lon="1.4588">
        <ele>203.19999694824</ele>
        <time>2020-05-31T13:59:18.000Z</time>
      </trkpt>
      <trkpt lat="43.54409" lon="1.45872">
        <ele>203.39999389648</ele>
        <time>2020-05-31T13:59:20.000Z</time>
      </trkpt>
      <trkpt lat="43.54408" lon="1.45864">
        <ele>203.39999389648</ele>
        <time>2020-05-31T13:59:22.000Z</time>
      </trkpt>
      <trkpt lat="43.54408" lon="1.45861">
        <ele>203.60000610352</ele>
        <time>2020-05-31T13:59:23.000Z</time>
      </trkpt>
      <trkpt lat="43.54407" lon="1.45857">
        <ele>203.60000610352</ele>
        <time>2020-05-31T13:59:24.000Z</time>
      </trkpt>
      <trkpt lat="43.54406" lon="1.4585">
        <ele>204</ele>
        <time>2020-05-31T13:59:26.000Z</time>
      </trkpt>
      <trkpt lat="43.54406" lon="1.45842">
        <ele>204</ele>
        <time>2020-05-31T13:59:28.000Z</time>
      </trkpt>
      <trkpt lat="43.54405" lon="1.45835">
        <ele>204</ele>
        <time>2020-05-31T13:59:30.000Z</time>
      </trkpt>
      <trkpt lat="43.54404" lon="1.45827">
        <ele>204.19999694824</ele>
        <time>2020-05-31T13:59:32.000Z</time>
      </trkpt>
      <trkpt lat="43.54403" lon="1.45819">
        <ele>204.39999389648</ele>
        <time>2020-05-31T13:59:34.000Z</time>
      </trkpt>
      <trkpt lat="43.54402" lon="1.45811">
        <ele>204.39999389648</ele>
        <time>2020-05-31T13:59:36.000Z</time>
      </trkpt>
      <trkpt lat="43.54401" lon="1.45807">
        <ele>204.60000610352</ele>
        <time>2020-05-31T13:59:37.000Z</time>
      </trkpt>
      <trkpt lat="43.54401" lon="1.45803">
        <ele>205</ele>
        <time>2020-05-31T13:59:38.000Z</time>
      </trkpt>
      <trkpt lat="43.544" lon="1.45795">
        <ele>205</ele>
        <time>2020-05-31T13:59:40.000Z</time>
      </trkpt>
      <trkpt lat="43.54399" lon="1.45787">
        <ele>205.19999694824</ele>
        <time>2020-05-31T13:59:42.000Z</time>
      </trkpt>
      <trkpt lat="43.54398" lon="1.45778">
        <ele>205.19999694824</ele>
        <time>2020-05-31T13:59:44.000Z</time>
      </trkpt>
      <trkpt lat="43.54398" lon="1.45769">
        <ele>205.19999694824</ele>
        <time>2020-05-31T13:59:46.000Z</time>
      </trkpt>
      <trkpt lat="43.54399" lon="1.45761">
        <ele>205.19999694824</ele>
        <time>2020-05-31T13:59:48.000Z</time>
      </trkpt>
      <trkpt lat="43.54399" lon="1.45753">
        <ele>205.19999694824</ele>
        <time>2020-05-31T13:59:50.000Z</time>
      </trkpt>
      <trkpt lat="43.544" lon="1.45745">
        <ele>205.19999694824</ele>
        <time>2020-05-31T13:59:52.000Z</time>
      </trkpt>
      <trkpt lat="43.54402" lon="1.45738">
        <ele>205.19999694824</ele>
        <time>2020-05-31T13:59:54.000Z</time>
      </trkpt>
      <trkpt lat="43.54404" lon="1.4573">
        <ele>205.19999694824</ele>
        <time>2020-05-31T13:59:56.000Z</time>
      </trkpt>
      <trkpt lat="43.54406" lon="1.45723">
        <ele>205.19999694824</ele>
        <time>2020-05-31T13:59:58.000Z</time>
      </trkpt>
      <trkpt lat="43.54408" lon="1.45717">
        <ele>205.19999694824</ele>
        <time>2020-05-31T14:00:00.000Z</time>
      </trkpt>
      <trkpt lat="43.54411" lon="1.4571">
        <ele>205.60000610352</ele>
        <time>2020-05-31T14:00:02.000Z</time>
      </trkpt>
      <trkpt lat="43.54412" lon="1.45707">
        <ele>205.60000610352</ele>
        <time>2020-05-31T14:00:03.000Z</time>
      </trkpt>
      <trkpt lat="43.54414" lon="1.45704">
        <ele>206</ele>
        <time>2020-05-31T14:00:04.000Z</time>
      </trkpt>
      <trkpt lat="43.54417" lon="1.45699">
        <ele>206.19999694824</ele>
        <time>2020-05-31T14:00:06.000Z</time>
      </trkpt>
      <trkpt lat="43.54421" lon="1.45694">
        <ele>206.60000610352</ele>
        <time>2020-05-31T14:00:08.000Z</time>
      </trkpt>
      <trkpt lat="43.54423" lon="1.45692">
        <ele>207</ele>
        <time>2020-05-31T14:00:09.000Z</time>
      </trkpt>
      <trkpt lat="43.54425" lon="1.4569">
        <ele>207.19999694824</ele>
        <time>2020-05-31T14:00:10.000Z</time>
      </trkpt>
      <trkpt lat="43.54428" lon="1.45686">
        <ele>207.80000305176</ele>
        <time>2020-05-31T14:00:12.000Z</time>
      </trkpt>
      <trkpt lat="43.5443" lon="1.45684">
        <ele>208</ele>
        <time>2020-05-31T14:00:13.000Z</time>
      </trkpt>
      <trkpt lat="43.54432" lon="1.45682">
        <ele>208.19999694824</ele>
        <time>2020-05-31T14:00:14.000Z</time>
      </trkpt>
      <trkpt lat="43.54435" lon="1.45678">
        <ele>208.39999389648</ele>
        <time>2020-05-31T14:00:16.000Z</time>
      </trkpt>
      <trkpt lat="43.54439" lon="1.45675">
        <ele>208.80000305176</ele>
        <time>2020-05-31T14:00:18.000Z</time>
      </trkpt>
      <trkpt lat="43.54441" lon="1.4567">
        <ele>209.19999694824</ele>
        <time>2020-05-31T14:00:20.000Z</time>
      </trkpt>
      <trkpt lat="43.54442" lon="1.45664">
        <ele>209.60000610352</ele>
        <time>2020-05-31T14:00:22.000Z</time>
      </trkpt>
      <trkpt lat="43.54441" lon="1.45659">
        <ele>209.80000305176</ele>
        <time>2020-05-31T14:00:24.000Z</time>
      </trkpt>
      <trkpt lat="43.54439" lon="1.45653">
        <ele>209.80000305176</ele>
        <time>2020-05-31T14:00:26.000Z</time>
      </trkpt>
      <trkpt lat="43.54439" lon="1.45647">
        <ele>209.80000305176</ele>
        <time>2020-05-31T14:00:28.000Z</time>
      </trkpt>
      <trkpt lat="43.5444" lon="1.45639">
        <ele>209.80000305176</ele>
        <time>2020-05-31T14:00:30.000Z</time>
      </trkpt>
      <trkpt lat="43.54441" lon="1.4563">
        <ele>209.80000305176</ele>
        <time>2020-05-31T14:00:32.000Z</time>
      </trkpt>
      <trkpt lat="43.54442" lon="1.45622">
        <ele>209.60000610352</ele>
        <time>2020-05-31T14:00:34.000Z</time>
      </trkpt>
      <trkpt lat="43.54445" lon="1.45614">
        <ele>209.39999389648</ele>
        <time>2020-05-31T14:00:36.000Z</time>
      </trkpt>
      <trkpt lat="43.54447" lon="1.45606">
        <ele>209.39999389648</ele>
        <time>2020-05-31T14:00:38.000Z</time>
      </trkpt>
      <trkpt lat="43.54449" lon="1.45598">
        <ele>209.39999389648</ele>
        <time>2020-05-31T14:00:40.000Z</time>
      </trkpt>
      <trkpt lat="43.54449" lon="1.4559">
        <ele>209.39999389648</ele>
        <time>2020-05-31T14:00:42.000Z</time>
      </trkpt>
      <trkpt lat="43.54445" lon="1.45584">
        <ele>209.39999389648</ele>
        <time>2020-05-31T14:00:44.000Z</time>
      </trkpt>
      <trkpt lat="43.54439" lon="1.45581">
        <ele>209.39999389648</ele>
        <time>2020-05-31T14:00:46.000Z</time>
      </trkpt>
      <trkpt lat="43.54433" lon="1.45582">
        <ele>209.39999389648</ele>
        <time>2020-05-31T14:00:48.000Z</time>
      </trkpt>
      <trkpt lat="43.54427" lon="1.45589">
        <ele>209.39999389648</ele>
        <time>2020-05-31T14:00:50.000Z</time>
      </trkpt>
      <trkpt lat="43.54424" lon="1.45595">
        <ele>209.39999389648</ele>
        <time>2020-05-31T14:00:51.000Z</time>
      </trkpt>
      <trkpt lat="43.54421" lon="1.45599">
        <ele>209.39999389648</ele>
        <time>2020-05-31T14:00:52.000Z</time>
      </trkpt>
      <trkpt lat="43.54414" lon="1.45609">
        <ele>208.39999389648</ele>
        <time>2020-05-31T14:00:54.000Z</time>
      </trkpt>
      <trkpt lat="43.54407" lon="1.45619">
        <ele>207.39999389648</ele>
        <time>2020-05-31T14:00:56.000Z</time>
      </trkpt>
      <trkpt lat="43.544" lon="1.45629">
        <ele>207</ele>
        <time>2020-05-31T14:00:58.000Z</time>
      </trkpt>
      <trkpt lat="43.54393" lon="1.45639">
        <ele>206.80000305176</ele>
        <time>2020-05-31T14:01:00.000Z</time>
      </trkpt>
      <trkpt lat="43.54386" lon="1.45649">
        <ele>206.60000610352</ele>
        <time>2020-05-31T14:01:02.000Z</time>
      </trkpt>
      <trkpt lat="43.5438" lon="1.45658">
        <ele>206.19999694824</ele>
        <time>2020-05-31T14:01:04.000Z</time>
      </trkpt>
      <trkpt lat="43.54373" lon="1.45667">
        <ele>205.60000610352</ele>
        <time>2020-05-31T14:01:06.000Z</time>
      </trkpt>
      <trkpt lat="43.54367" lon="1.45676">
        <ele>205</ele>
        <time>2020-05-31T14:01:08.000Z</time>
      </trkpt>
      <trkpt lat="43.54361" lon="1.45686">
        <ele>204.80000305176</ele>
        <time>2020-05-31T14:01:10.000Z</time>
      </trkpt>
      <trkpt lat="43.54354" lon="1.45697">
        <ele>204.60000610352</ele>
        <time>2020-05-31T14:01:12.000Z</time>
      </trkpt>
      <trkpt lat="43.54348" lon="1.45707">
        <ele>204.60000610352</ele>
        <time>2020-05-31T14:01:14.000Z</time>
      </trkpt>
      <trkpt lat="43.54343" lon="1.45717">
        <ele>204.19999694824</ele>
        <time>2020-05-31T14:01:16.000Z</time>
      </trkpt>
      <trkpt lat="43.54337" lon="1.45727">
        <ele>204</ele>
        <time>2020-05-31T14:01:18.000Z</time>
      </trkpt>
      <trkpt lat="43.54334" lon="1.45732">
        <ele>204</ele>
        <time>2020-05-31T14:01:19.000Z</time>
      </trkpt>
      <trkpt lat="43.54332" lon="1.45736">
        <ele>204</ele>
        <time>2020-05-31T14:01:20.000Z</time>
      </trkpt>
      <trkpt lat="43.54326" lon="1.45745">
        <ele>204</ele>
        <time>2020-05-31T14:01:22.000Z</time>
      </trkpt>
      <trkpt lat="43.5432" lon="1.45754">
        <ele>204</ele>
        <time>2020-05-31T14:01:24.000Z</time>
      </trkpt>
      <trkpt lat="43.54313" lon="1.45764">
        <ele>204</ele>
        <time>2020-05-31T14:01:26.000Z</time>
      </trkpt>
      <trkpt lat="43.54307" lon="1.45773">
        <ele>204</ele>
        <time>2020-05-31T14:01:28.000Z</time>
      </trkpt>
      <trkpt lat="43.54301" lon="1.45783">
        <ele>203.80000305176</ele>
        <time>2020-05-31T14:01:30.000Z</time>
      </trkpt>
      <trkpt lat="43.54295" lon="1.45792">
        <ele>203.80000305176</ele>
        <time>2020-05-31T14:01:32.000Z</time>
      </trkpt>
      <trkpt lat="43.54289" lon="1.45801">
        <ele>203.60000610352</ele>
        <time>2020-05-31T14:01:34.000Z</time>
      </trkpt>
      <trkpt lat="43.54283" lon="1.4581">
        <ele>203.39999389648</ele>
        <time>2020-05-31T14:01:36.000Z</time>
      </trkpt>
      <trkpt lat="43.54277" lon="1.45819">
        <ele>203.19999694824</ele>
        <time>2020-05-31T14:01:38.000Z</time>
      </trkpt>
      <trkpt lat="43.54271" lon="1.45827">
        <ele>203.19999694824</ele>
        <time>2020-05-31T14:01:40.000Z</time>
      </trkpt>
      <trkpt lat="43.54266" lon="1.45836">
        <ele>203.19999694824</ele>
        <time>2020-05-31T14:01:42.000Z</time>
      </trkpt>
      <trkpt lat="43.54261" lon="1.45845">
        <ele>203.19999694824</ele>
        <time>2020-05-31T14:01:44.000Z</time>
      </trkpt>
      <trkpt lat="43.54256" lon="1.45853">
        <ele>203.19999694824</ele>
        <time>2020-05-31T14:01:46.000Z</time>
      </trkpt>
      <trkpt lat="43.54251" lon="1.45861">
        <ele>203.39999389648</ele>
        <time>2020-05-31T14:01:48.000Z</time>
      </trkpt>
      <trkpt lat="43.54246" lon="1.4587">
        <ele>203.80000305176</ele>
        <time>2020-05-31T14:01:50.000Z</time>
      </trkpt>
      <trkpt lat="43.54242" lon="1.45878">
        <ele>204.39999389648</ele>
        <time>2020-05-31T14:01:52.000Z</time>
      </trkpt>
      <trkpt lat="43.54238" lon="1.45886">
        <ele>205</ele>
        <time>2020-05-31T14:01:54.000Z</time>
      </trkpt>
      <trkpt lat="43.54235" lon="1.4589">
        <ele>205.39999389648</ele>
        <time>2020-05-31T14:01:55.000Z</time>
      </trkpt>
      <trkpt lat="43.54233" lon="1.45894">
        <ele>205.39999389648</ele>
        <time>2020-05-31T14:01:56.000Z</time>
      </trkpt>
      <trkpt lat="43.54229" lon="1.45902">
        <ele>205.80000305176</ele>
        <time>2020-05-31T14:01:58.000Z</time>
      </trkpt>
      <trkpt lat="43.54225" lon="1.4591">
        <ele>206.19999694824</ele>
        <time>2020-05-31T14:02:00.000Z</time>
      </trkpt>
      <trkpt lat="43.54223" lon="1.45914">
        <ele>206.80000305176</ele>
        <time>2020-05-31T14:02:01.000Z</time>
      </trkpt>
      <trkpt lat="43.54221" lon="1.45919">
        <ele>207.19999694824</ele>
        <time>2020-05-31T14:02:02.000Z</time>
      </trkpt>
      <trkpt lat="43.54217" lon="1.45928">
        <ele>207.39999389648</ele>
        <time>2020-05-31T14:02:04.000Z</time>
      </trkpt>
      <trkpt lat="43.54214" lon="1.45937">
        <ele>207.39999389648</ele>
        <time>2020-05-31T14:02:06.000Z</time>
      </trkpt>
      <trkpt lat="43.54211" lon="1.45946">
        <ele>207.39999389648</ele>
        <time>2020-05-31T14:02:08.000Z</time>
      </trkpt>
      <trkpt lat="43.54208" lon="1.45955">
        <ele>207.60000610352</ele>
        <time>2020-05-31T14:02:10.000Z</time>
      </trkpt>
      <trkpt lat="43.54204" lon="1.45965">
        <ele>207.60000610352</ele>
        <time>2020-05-31T14:02:12.000Z</time>
      </trkpt>
      <trkpt lat="43.54201" lon="1.45974">
        <ele>207.60000610352</ele>
        <time>2020-05-31T14:02:14.000Z</time>
      </trkpt>
      <trkpt lat="43.54196" lon="1.45983">
        <ele>207.60000610352</ele>
        <time>2020-05-31T14:02:16.000Z</time>
      </trkpt>
      <trkpt lat="43.54192" lon="1.45992">
        <ele>208</ele>
        <time>2020-05-31T14:02:18.000Z</time>
      </trkpt>
      <trkpt lat="43.54187" lon="1.46002">
        <ele>208.39999389648</ele>
        <time>2020-05-31T14:02:20.000Z</time>
      </trkpt>
      <trkpt lat="43.54183" lon="1.46012">
        <ele>208.60000610352</ele>
        <time>2020-05-31T14:02:22.000Z</time>
      </trkpt>
      <trkpt lat="43.54179" lon="1.46023">
        <ele>208.60000610352</ele>
        <time>2020-05-31T14:02:24.000Z</time>
      </trkpt>
      <trkpt lat="43.54174" lon="1.46035">
        <ele>208.60000610352</ele>
        <time>2020-05-31T14:02:26.000Z</time>
      </trkpt>
      <trkpt lat="43.54169" lon="1.46047">
        <ele>208</ele>
        <time>2020-05-31T14:02:28.000Z</time>
      </trkpt>
      <trkpt lat="43.54165" lon="1.4606">
        <ele>207.39999389648</ele>
        <time>2020-05-31T14:02:30.000Z</time>
      </trkpt>
      <trkpt lat="43.54163" lon="1.46066">
        <ele>207.19999694824</ele>
        <time>2020-05-31T14:02:31.000Z</time>
      </trkpt>
      <trkpt lat="43.5416" lon="1.46073">
        <ele>207</ele>
        <time>2020-05-31T14:02:32.000Z</time>
      </trkpt>
      <trkpt lat="43.54154" lon="1.46084">
        <ele>206.80000305176</ele>
        <time>2020-05-31T14:02:34.000Z</time>
      </trkpt>
      <trkpt lat="43.54148" lon="1.46096">
        <ele>206.80000305176</ele>
        <time>2020-05-31T14:02:36.000Z</time>
      </trkpt>
      <trkpt lat="43.54141" lon="1.46109">
        <ele>206.60000610352</ele>
        <time>2020-05-31T14:02:38.000Z</time>
      </trkpt>
      <trkpt lat="43.54135" lon="1.46121">
        <ele>206</ele>
        <time>2020-05-31T14:02:40.000Z</time>
      </trkpt>
      <trkpt lat="43.54129" lon="1.46135">
        <ele>205.39999389648</ele>
        <time>2020-05-31T14:02:42.000Z</time>
      </trkpt>
      <trkpt lat="43.54122" lon="1.46149">
        <ele>205</ele>
        <time>2020-05-31T14:02:44.000Z</time>
      </trkpt>
      <trkpt lat="43.54115" lon="1.46162">
        <ele>204.39999389648</ele>
        <time>2020-05-31T14:02:46.000Z</time>
      </trkpt>
      <trkpt lat="43.54107" lon="1.46175">
        <ele>204</ele>
        <time>2020-05-31T14:02:48.000Z</time>
      </trkpt>
      <trkpt lat="43.54104" lon="1.46182">
        <ele>203.80000305176</ele>
        <time>2020-05-31T14:02:49.000Z</time>
      </trkpt>
      <trkpt lat="43.541" lon="1.46189">
        <ele>203.80000305176</ele>
        <time>2020-05-31T14:02:50.000Z</time>
      </trkpt>
      <trkpt lat="43.54093" lon="1.46204">
        <ele>203.80000305176</ele>
        <time>2020-05-31T14:02:52.000Z</time>
      </trkpt>
      <trkpt lat="43.54085" lon="1.46219">
        <ele>203.80000305176</ele>
        <time>2020-05-31T14:02:54.000Z</time>
      </trkpt>
      <trkpt lat="43.54077" lon="1.46234">
        <ele>203.60000610352</ele>
        <time>2020-05-31T14:02:56.000Z</time>
      </trkpt>
      <trkpt lat="43.54067" lon="1.4625">
        <ele>203.39999389648</ele>
        <time>2020-05-31T14:02:58.000Z</time>
      </trkpt>
      <trkpt lat="43.54056" lon="1.46265">
        <ele>203</ele>
        <time>2020-05-31T14:03:00.000Z</time>
      </trkpt>
      <trkpt lat="43.54051" lon="1.46273">
        <ele>202.80000305176</ele>
        <time>2020-05-31T14:03:01.000Z</time>
      </trkpt>
      <trkpt lat="43.54046" lon="1.4628">
        <ele>202.19999694824</ele>
        <time>2020-05-31T14:03:02.000Z</time>
      </trkpt>
      <trkpt lat="43.5404" lon="1.46287">
        <ele>201.60000610352</ele>
        <time>2020-05-31T14:03:03.000Z</time>
      </trkpt>
      <trkpt lat="43.54034" lon="1.46292">
        <ele>201.39999389648</ele>
        <time>2020-05-31T14:03:04.000Z</time>
      </trkpt>
      <trkpt lat="43.54028" lon="1.46298">
        <ele>201</ele>
        <time>2020-05-31T14:03:05.000Z</time>
      </trkpt>
      <trkpt lat="43.54022" lon="1.46305">
        <ele>200.60000610352</ele>
        <time>2020-05-31T14:03:06.000Z</time>
      </trkpt>
      <trkpt lat="43.54017" lon="1.46312">
        <ele>200.39999389648</ele>
        <time>2020-05-31T14:03:07.000Z</time>
      </trkpt>
      <trkpt lat="43.54011" lon="1.46319">
        <ele>200.19999694824</ele>
        <time>2020-05-31T14:03:08.000Z</time>
      </trkpt>
      <trkpt lat="43.54006" lon="1.46326">
        <ele>199.80000305176</ele>
        <time>2020-05-31T14:03:09.000Z</time>
      </trkpt>
      <trkpt lat="43.54" lon="1.46332">
        <ele>199.39999389648</ele>
        <time>2020-05-31T14:03:10.000Z</time>
      </trkpt>
      <trkpt lat="43.53991" lon="1.46342">
        <ele>198.39999389648</ele>
        <time>2020-05-31T14:03:12.000Z</time>
      </trkpt>
      <trkpt lat="43.53983" lon="1.46351">
        <ele>197.60000610352</ele>
        <time>2020-05-31T14:03:14.000Z</time>
      </trkpt>
      <trkpt lat="43.53977" lon="1.4636">
        <ele>197.39999389648</ele>
        <time>2020-05-31T14:03:16.000Z</time>
      </trkpt>
      <trkpt lat="43.53971" lon="1.46369">
        <ele>197.19999694824</ele>
        <time>2020-05-31T14:03:18.000Z</time>
      </trkpt>
      <trkpt lat="43.53968" lon="1.46373">
        <ele>197</ele>
        <time>2020-05-31T14:03:19.000Z</time>
      </trkpt>
      <trkpt lat="43.53964" lon="1.46377">
        <ele>197</ele>
        <time>2020-05-31T14:03:20.000Z</time>
      </trkpt>
      <trkpt lat="43.53958" lon="1.46384">
        <ele>197</ele>
        <time>2020-05-31T14:03:22.000Z</time>
      </trkpt>
      <trkpt lat="43.53955" lon="1.46387">
        <ele>197</ele>
        <time>2020-05-31T14:03:23.000Z</time>
      </trkpt>
      <trkpt lat="43.53952" lon="1.46391">
        <ele>197</ele>
        <time>2020-05-31T14:03:24.000Z</time>
      </trkpt>
      <trkpt lat="43.53949" lon="1.46396">
        <ele>197</ele>
        <time>2020-05-31T14:03:25.000Z</time>
      </trkpt>
      <trkpt lat="43.53946" lon="1.46401">
        <ele>197</ele>
        <time>2020-05-31T14:03:26.000Z</time>
      </trkpt>
      <trkpt lat="43.5394" lon="1.46411">
        <ele>197</ele>
        <time>2020-05-31T14:03:28.000Z</time>
      </trkpt>
      <trkpt lat="43.53933" lon="1.46421">
        <ele>196.60000610352</ele>
        <time>2020-05-31T14:03:30.000Z</time>
      </trkpt>
      <trkpt lat="43.53927" lon="1.46432">
        <ele>196.19999694824</ele>
        <time>2020-05-31T14:03:32.000Z</time>
      </trkpt>
      <trkpt lat="43.53921" lon="1.46444">
        <ele>196</ele>
        <time>2020-05-31T14:03:34.000Z</time>
      </trkpt>
      <trkpt lat="43.53915" lon="1.46456">
        <ele>195.80000305176</ele>
        <time>2020-05-31T14:03:36.000Z</time>
      </trkpt>
      <trkpt lat="43.53908" lon="1.46467">
        <ele>195.80000305176</ele>
        <time>2020-05-31T14:03:38.000Z</time>
      </trkpt>
      <trkpt lat="43.53902" lon="1.46479">
        <ele>195.39999389648</ele>
        <time>2020-05-31T14:03:40.000Z</time>
      </trkpt>
      <trkpt lat="43.53898" lon="1.46485">
        <ele>195.19999694824</ele>
        <time>2020-05-31T14:03:41.000Z</time>
      </trkpt>
      <trkpt lat="43.53895" lon="1.4649">
        <ele>194.60000610352</ele>
        <time>2020-05-31T14:03:42.000Z</time>
      </trkpt>
      <trkpt lat="43.53889" lon="1.46502">
        <ele>194</ele>
        <time>2020-05-31T14:03:44.000Z</time>
      </trkpt>
      <trkpt lat="43.53882" lon="1.46513">
        <ele>193.60000610352</ele>
        <time>2020-05-31T14:03:46.000Z</time>
      </trkpt>
      <trkpt lat="43.53876" lon="1.46524">
        <ele>192.60000610352</ele>
        <time>2020-05-31T14:03:48.000Z</time>
      </trkpt>
      <trkpt lat="43.53873" lon="1.4653">
        <ele>192.60000610352</ele>
        <time>2020-05-31T14:03:49.000Z</time>
      </trkpt>
      <trkpt lat="43.53871" lon="1.46537">
        <ele>192.19999694824</ele>
        <time>2020-05-31T14:03:50.000Z</time>
      </trkpt>
      <trkpt lat="43.53866" lon="1.46549">
        <ele>191.80000305176</ele>
        <time>2020-05-31T14:03:52.000Z</time>
      </trkpt>
      <trkpt lat="43.53862" lon="1.46555">
        <ele>191.60000610352</ele>
        <time>2020-05-31T14:03:53.000Z</time>
      </trkpt>
      <trkpt lat="43.53859" lon="1.4656">
        <ele>191.19999694824</ele>
        <time>2020-05-31T14:03:54.000Z</time>
      </trkpt>
      <trkpt lat="43.53852" lon="1.46572">
        <ele>190.80000305176</ele>
        <time>2020-05-31T14:03:56.000Z</time>
      </trkpt>
      <trkpt lat="43.53844" lon="1.46583">
        <ele>190.60000610352</ele>
        <time>2020-05-31T14:03:58.000Z</time>
      </trkpt>
      <trkpt lat="43.53836" lon="1.46594">
        <ele>190.39999389648</ele>
        <time>2020-05-31T14:04:00.000Z</time>
      </trkpt>
      <trkpt lat="43.53828" lon="1.46606">
        <ele>190.19999694824</ele>
        <time>2020-05-31T14:04:02.000Z</time>
      </trkpt>
      <trkpt lat="43.5382" lon="1.46618">
        <ele>190</ele>
        <time>2020-05-31T14:04:04.000Z</time>
      </trkpt>
      <trkpt lat="43.53812" lon="1.4663">
        <ele>190</ele>
        <time>2020-05-31T14:04:06.000Z</time>
      </trkpt>
      <trkpt lat="43.53803" lon="1.46643">
        <ele>189.60000610352</ele>
        <time>2020-05-31T14:04:08.000Z</time>
      </trkpt>
      <trkpt lat="43.53794" lon="1.46656">
        <ele>189.39999389648</ele>
        <time>2020-05-31T14:04:10.000Z</time>
      </trkpt>
      <trkpt lat="43.53785" lon="1.46669">
        <ele>188.39999389648</ele>
        <time>2020-05-31T14:04:12.000Z</time>
      </trkpt>
      <trkpt lat="43.53776" lon="1.46681">
        <ele>187.80000305176</ele>
        <time>2020-05-31T14:04:14.000Z</time>
      </trkpt>
      <trkpt lat="43.53767" lon="1.46693">
        <ele>187.60000610352</ele>
        <time>2020-05-31T14:04:16.000Z</time>
      </trkpt>
      <trkpt lat="43.53762" lon="1.46699">
        <ele>187.39999389648</ele>
        <time>2020-05-31T14:04:17.000Z</time>
      </trkpt>
      <trkpt lat="43.53758" lon="1.46705">
        <ele>187</ele>
        <time>2020-05-31T14:04:18.000Z</time>
      </trkpt>
      <trkpt lat="43.5375" lon="1.46716">
        <ele>185.60000610352</ele>
        <time>2020-05-31T14:04:20.000Z</time>
      </trkpt>
      <trkpt lat="43.53742" lon="1.46727">
        <ele>184.19999694824</ele>
        <time>2020-05-31T14:04:22.000Z</time>
      </trkpt>
      <trkpt lat="43.53735" lon="1.46737">
        <ele>183.80000305176</ele>
        <time>2020-05-31T14:04:24.000Z</time>
      </trkpt>
      <trkpt lat="43.53729" lon="1.46747">
        <ele>183.60000610352</ele>
        <time>2020-05-31T14:04:26.000Z</time>
      </trkpt>
      <trkpt lat="43.53723" lon="1.46758">
        <ele>183.60000610352</ele>
        <time>2020-05-31T14:04:28.000Z</time>
      </trkpt>
      <trkpt lat="43.53717" lon="1.46768">
        <ele>183.39999389648</ele>
        <time>2020-05-31T14:04:30.000Z</time>
      </trkpt>
      <trkpt lat="43.53712" lon="1.46778">
        <ele>183.39999389648</ele>
        <time>2020-05-31T14:04:32.000Z</time>
      </trkpt>
      <trkpt lat="43.53707" lon="1.46788">
        <ele>183.39999389648</ele>
        <time>2020-05-31T14:04:34.000Z</time>
      </trkpt>
      <trkpt lat="43.53702" lon="1.46798">
        <ele>183.19999694824</ele>
        <time>2020-05-31T14:04:36.000Z</time>
      </trkpt>
      <trkpt lat="43.537" lon="1.46802">
        <ele>183.19999694824</ele>
        <time>2020-05-31T14:04:37.000Z</time>
      </trkpt>
      <trkpt lat="43.53698" lon="1.46807">
        <ele>183.19999694824</ele>
        <time>2020-05-31T14:04:38.000Z</time>
      </trkpt>
      <trkpt lat="43.53693" lon="1.46816">
        <ele>183.19999694824</ele>
        <time>2020-05-31T14:04:40.000Z</time>
      </trkpt>
      <trkpt lat="43.53688" lon="1.46824">
        <ele>183.19999694824</ele>
        <time>2020-05-31T14:04:42.000Z</time>
      </trkpt>
      <trkpt lat="43.53682" lon="1.46833">
        <ele>183.19999694824</ele>
        <time>2020-05-31T14:04:44.000Z</time>
      </trkpt>
      <trkpt lat="43.53676" lon="1.46838">
        <ele>183.39999389648</ele>
        <time>2020-05-31T14:04:46.000Z</time>
      </trkpt>
      <trkpt lat="43.53671" lon="1.4684">
        <ele>183.80000305176</ele>
        <time>2020-05-31T14:04:48.000Z</time>
      </trkpt>
      <trkpt lat="43.53665" lon="1.46838">
        <ele>183.80000305176</ele>
        <time>2020-05-31T14:04:50.000Z</time>
      </trkpt>
      <trkpt lat="43.53659" lon="1.46837">
        <ele>184.19999694824</ele>
        <time>2020-05-31T14:04:52.000Z</time>
      </trkpt>
      <trkpt lat="43.53653" lon="1.46839">
        <ele>184.60000610352</ele>
        <time>2020-05-31T14:04:54.000Z</time>
      </trkpt>
      <trkpt lat="43.53646" lon="1.46841">
        <ele>185</ele>
        <time>2020-05-31T14:04:56.000Z</time>
      </trkpt>
      <trkpt lat="43.5364" lon="1.46841">
        <ele>185.39999389648</ele>
        <time>2020-05-31T14:04:58.000Z</time>
      </trkpt>
      <trkpt lat="43.53634" lon="1.46839">
        <ele>185.60000610352</ele>
        <time>2020-05-31T14:05:00.000Z</time>
      </trkpt>
      <trkpt lat="43.53629" lon="1.46836">
        <ele>186</ele>
        <time>2020-05-31T14:05:02.000Z</time>
      </trkpt>
      <trkpt lat="43.53624" lon="1.46833">
        <ele>186.60000610352</ele>
        <time>2020-05-31T14:05:04.000Z</time>
      </trkpt>
      <trkpt lat="43.53622" lon="1.46831">
        <ele>186.80000305176</ele>
        <time>2020-05-31T14:05:05.000Z</time>
      </trkpt>
      <trkpt lat="43.53619" lon="1.4683">
        <ele>186.80000305176</ele>
        <time>2020-05-31T14:05:06.000Z</time>
      </trkpt>
      <trkpt lat="43.53614" lon="1.46828">
        <ele>187.39999389648</ele>
        <time>2020-05-31T14:05:08.000Z</time>
      </trkpt>
      <trkpt lat="43.53612" lon="1.46826">
        <ele>187.80000305176</ele>
        <time>2020-05-31T14:05:09.000Z</time>
      </trkpt>
      <trkpt lat="43.53611" lon="1.46825">
        <ele>188.19999694824</ele>
        <time>2020-05-31T14:05:10.000Z</time>
      </trkpt>
      <trkpt lat="43.53613" lon="1.46824">
        <ele>188.39999389648</ele>
        <time>2020-05-31T14:05:12.000Z</time>
      </trkpt>
      <trkpt lat="43.53613" lon="1.46826">
        <ele>188.60000610352</ele>
        <time>2020-05-31T14:05:14.000Z</time>
      </trkpt>
      <trkpt lat="43.53614" lon="1.46828">
        <ele>189.39999389648</ele>
        <time>2020-05-31T14:05:17.000Z</time>
      </trkpt>
      <trkpt lat="43.53614" lon="1.46828">
        <ele>189.80000305176</ele>
        <time>2020-05-31T14:05:18.000Z</time>
      </trkpt>
      <trkpt lat="43.53612" lon="1.46826">
        <ele>189.80000305176</ele>
        <time>2020-05-31T14:06:13.000Z</time>
      </trkpt>
      <trkpt lat="43.53611" lon="1.46825">
        <ele>189.60000610352</ele>
        <time>2020-05-31T14:06:14.000Z</time>
      </trkpt>
      <trkpt lat="43.53607" lon="1.46824">
        <ele>189.60000610352</ele>
        <time>2020-05-31T14:06:16.000Z</time>
      </trkpt>
      <trkpt lat="43.53604" lon="1.4682">
        <ele>189.60000610352</ele>
        <time>2020-05-31T14:06:18.000Z</time>
      </trkpt>
      <trkpt lat="43.53601" lon="1.46815">
        <ele>189.60000610352</ele>
        <time>2020-05-31T14:06:20.000Z</time>
      </trkpt>
      <trkpt lat="43.53598" lon="1.4681">
        <ele>189.60000610352</ele>
        <time>2020-05-31T14:06:22.000Z</time>
      </trkpt>
      <trkpt lat="43.53597" lon="1.46809">
        <ele>189.80000305176</ele>
        <time>2020-05-31T14:06:23.000Z</time>
      </trkpt>
      <trkpt lat="43.53595" lon="1.46808">
        <ele>189.80000305176</ele>
        <time>2020-05-31T14:06:25.000Z</time>
      </trkpt>
      <trkpt lat="43.53595" lon="1.46808">
        <ele>190.19999694824</ele>
        <time>2020-05-31T14:06:26.000Z</time>
      </trkpt>
      <trkpt lat="43.53592" lon="1.46809">
        <ele>191.80000305176</ele>
        <time>2020-05-31T14:07:12.000Z</time>
      </trkpt>
      <trkpt lat="43.5359" lon="1.46811">
        <ele>191.80000305176</ele>
        <time>2020-05-31T14:07:14.000Z</time>
      </trkpt>
      <trkpt lat="43.53586" lon="1.46815">
        <ele>191.80000305176</ele>
        <time>2020-05-31T14:07:16.000Z</time>
      </trkpt>
      <trkpt lat="43.53583" lon="1.46822">
        <ele>191.80000305176</ele>
        <time>2020-05-31T14:07:18.000Z</time>
      </trkpt>
      <trkpt lat="43.53582" lon="1.4683">
        <ele>191.19999694824</ele>
        <time>2020-05-31T14:07:20.000Z</time>
      </trkpt>
      <trkpt lat="43.5358" lon="1.46836">
        <ele>190.80000305176</ele>
        <time>2020-05-31T14:07:22.000Z</time>
      </trkpt>
      <trkpt lat="43.53579" lon="1.46839">
        <ele>190.80000305176</ele>
        <time>2020-05-31T14:07:23.000Z</time>
      </trkpt>
      <trkpt lat="43.53577" lon="1.46841">
        <ele>190.60000610352</ele>
        <time>2020-05-31T14:07:24.000Z</time>
      </trkpt>
      <trkpt lat="43.53575" lon="1.46846">
        <ele>190.39999389648</ele>
        <time>2020-05-31T14:07:26.000Z</time>
      </trkpt>
      <trkpt lat="43.53572" lon="1.4685">
        <ele>190.19999694824</ele>
        <time>2020-05-31T14:07:28.000Z</time>
      </trkpt>
      <trkpt lat="43.5357" lon="1.46855">
        <ele>190.19999694824</ele>
        <time>2020-05-31T14:07:30.000Z</time>
      </trkpt>
      <trkpt lat="43.53566" lon="1.4686">
        <ele>190</ele>
        <time>2020-05-31T14:07:32.000Z</time>
      </trkpt>
      <trkpt lat="43.53562" lon="1.46866">
        <ele>189.80000305176</ele>
        <time>2020-05-31T14:07:34.000Z</time>
      </trkpt>
      <trkpt lat="43.53558" lon="1.46874">
        <ele>189.60000610352</ele>
        <time>2020-05-31T14:07:36.000Z</time>
      </trkpt>
      <trkpt lat="43.53554" lon="1.46881">
        <ele>189.39999389648</ele>
        <time>2020-05-31T14:07:38.000Z</time>
      </trkpt>
      <trkpt lat="43.53549" lon="1.46889">
        <ele>189.19999694824</ele>
        <time>2020-05-31T14:07:40.000Z</time>
      </trkpt>
      <trkpt lat="43.53544" lon="1.46896">
        <ele>189.19999694824</ele>
        <time>2020-05-31T14:07:42.000Z</time>
      </trkpt>
      <trkpt lat="43.5354" lon="1.46903">
        <ele>189.19999694824</ele>
        <time>2020-05-31T14:07:44.000Z</time>
      </trkpt>
      <trkpt lat="43.53537" lon="1.4691">
        <ele>189</ele>
        <time>2020-05-31T14:07:46.000Z</time>
      </trkpt>
      <trkpt lat="43.53532" lon="1.46917">
        <ele>189</ele>
        <time>2020-05-31T14:07:48.000Z</time>
      </trkpt>
      <trkpt lat="43.53528" lon="1.46924">
        <ele>189</ele>
        <time>2020-05-31T14:07:50.000Z</time>
      </trkpt>
      <trkpt lat="43.53523" lon="1.46932">
        <ele>189</ele>
        <time>2020-05-31T14:07:52.000Z</time>
      </trkpt>
      <trkpt lat="43.53518" lon="1.46939">
        <ele>189</ele>
        <time>2020-05-31T14:07:54.000Z</time>
      </trkpt>
      <trkpt lat="43.53513" lon="1.46948">
        <ele>189</ele>
        <time>2020-05-31T14:07:56.000Z</time>
      </trkpt>
      <trkpt lat="43.53509" lon="1.46956">
        <ele>189</ele>
        <time>2020-05-31T14:07:58.000Z</time>
      </trkpt>
      <trkpt lat="43.53503" lon="1.46964">
        <ele>188.80000305176</ele>
        <time>2020-05-31T14:08:00.000Z</time>
      </trkpt>
      <trkpt lat="43.53498" lon="1.46973">
        <ele>188.60000610352</ele>
        <time>2020-05-31T14:08:02.000Z</time>
      </trkpt>
      <trkpt lat="43.53495" lon="1.46977">
        <ele>188.39999389648</ele>
        <time>2020-05-31T14:08:03.000Z</time>
      </trkpt>
      <trkpt lat="43.53492" lon="1.46982">
        <ele>188.19999694824</ele>
        <time>2020-05-31T14:08:04.000Z</time>
      </trkpt>
      <trkpt lat="43.53487" lon="1.46991">
        <ele>188.19999694824</ele>
        <time>2020-05-31T14:08:06.000Z</time>
      </trkpt>
      <trkpt lat="43.5348" lon="1.47">
        <ele>187.80000305176</ele>
        <time>2020-05-31T14:08:08.000Z</time>
      </trkpt>
      <trkpt lat="43.53472" lon="1.47007">
        <ele>187.80000305176</ele>
        <time>2020-05-31T14:08:10.000Z</time>
      </trkpt>
      <trkpt lat="43.53464" lon="1.47009">
        <ele>187.80000305176</ele>
        <time>2020-05-31T14:08:12.000Z</time>
      </trkpt>
      <trkpt lat="43.53458" lon="1.47007">
        <ele>187.80000305176</ele>
        <time>2020-05-31T14:08:14.000Z</time>
      </trkpt>
      <trkpt lat="43.53452" lon="1.47007">
        <ele>187.80000305176</ele>
        <time>2020-05-31T14:08:16.000Z</time>
      </trkpt>
      <trkpt lat="43.53448" lon="1.47012">
        <ele>188.19999694824</ele>
        <time>2020-05-31T14:08:18.000Z</time>
      </trkpt>
      <trkpt lat="43.53444" lon="1.47018">
        <ele>188.60000610352</ele>
        <time>2020-05-31T14:08:20.000Z</time>
      </trkpt>
      <trkpt lat="43.53443" lon="1.47021">
        <ele>188.80000305176</ele>
        <time>2020-05-31T14:08:21.000Z</time>
      </trkpt>
      <trkpt lat="43.53443" lon="1.47024">
        <ele>189</ele>
        <time>2020-05-31T14:08:22.000Z</time>
      </trkpt>
      <trkpt lat="43.53446" lon="1.47031">
        <ele>189.19999694824</ele>
        <time>2020-05-31T14:08:24.000Z</time>
      </trkpt>
      <trkpt lat="43.5345" lon="1.47038">
        <ele>189.19999694824</ele>
        <time>2020-05-31T14:08:26.000Z</time>
      </trkpt>
      <trkpt lat="43.53452" lon="1.47042">
        <ele>189.39999389648</ele>
        <time>2020-05-31T14:08:27.000Z</time>
      </trkpt>
      <trkpt lat="43.53454" lon="1.47047">
        <ele>189.39999389648</ele>
        <time>2020-05-31T14:08:28.000Z</time>
      </trkpt>
      <trkpt lat="43.53457" lon="1.47051">
        <ele>189.39999389648</ele>
        <time>2020-05-31T14:08:29.000Z</time>
      </trkpt>
      <trkpt lat="43.5346" lon="1.47054">
        <ele>189.39999389648</ele>
        <time>2020-05-31T14:08:30.000Z</time>
      </trkpt>
      <trkpt lat="43.53467" lon="1.47061">
        <ele>189.19999694824</ele>
        <time>2020-05-31T14:08:32.000Z</time>
      </trkpt>
      <trkpt lat="43.53474" lon="1.47068">
        <ele>188.80000305176</ele>
        <time>2020-05-31T14:08:34.000Z</time>
      </trkpt>
      <trkpt lat="43.53482" lon="1.47077">
        <ele>188.39999389648</ele>
        <time>2020-05-31T14:08:36.000Z</time>
      </trkpt>
      <trkpt lat="43.5349" lon="1.47087">
        <ele>188</ele>
        <time>2020-05-31T14:08:38.000Z</time>
      </trkpt>
      <trkpt lat="43.53499" lon="1.47098">
        <ele>187.60000610352</ele>
        <time>2020-05-31T14:08:40.000Z</time>
      </trkpt>
      <trkpt lat="43.53503" lon="1.47103">
        <ele>187.39999389648</ele>
        <time>2020-05-31T14:08:41.000Z</time>
      </trkpt>
      <trkpt lat="43.53509" lon="1.4711">
        <ele>187.19999694824</ele>
        <time>2020-05-31T14:08:42.000Z</time>
      </trkpt>
      <trkpt lat="43.53521" lon="1.47124">
        <ele>186.80000305176</ele>
        <time>2020-05-31T14:08:44.000Z</time>
      </trkpt>
      <trkpt lat="43.53533" lon="1.47139">
        <ele>186.39999389648</ele>
        <time>2020-05-31T14:08:46.000Z</time>
      </trkpt>
      <trkpt lat="43.53545" lon="1.47155">
        <ele>184.60000610352</ele>
        <time>2020-05-31T14:08:48.000Z</time>
      </trkpt>
      <trkpt lat="43.53558" lon="1.47171">
        <ele>183</ele>
        <time>2020-05-31T14:08:50.000Z</time>
      </trkpt>
      <trkpt lat="43.53571" lon="1.47188">
        <ele>182</ele>
        <time>2020-05-31T14:08:52.000Z</time>
      </trkpt>
      <trkpt lat="43.53583" lon="1.47203">
        <ele>180.19999694824</ele>
        <time>2020-05-31T14:08:54.000Z</time>
      </trkpt>
      <trkpt lat="43.53595" lon="1.47219">
        <ele>179.39999389648</ele>
        <time>2020-05-31T14:08:56.000Z</time>
      </trkpt>
      <trkpt lat="43.53601" lon="1.47226">
        <ele>178.39999389648</ele>
        <time>2020-05-31T14:08:57.000Z</time>
      </trkpt>
      <trkpt lat="43.53607" lon="1.47233">
        <ele>177.80000305176</ele>
        <time>2020-05-31T14:08:58.000Z</time>
      </trkpt>
      <trkpt lat="43.53621" lon="1.47245">
        <ele>177.19999694824</ele>
        <time>2020-05-31T14:09:00.000Z</time>
      </trkpt>
      <trkpt lat="43.53636" lon="1.47258">
        <ele>176.60000610352</ele>
        <time>2020-05-31T14:09:02.000Z</time>
      </trkpt>
      <trkpt lat="43.53643" lon="1.47266">
        <ele>176.39999389648</ele>
        <time>2020-05-31T14:09:03.000Z</time>
      </trkpt>
      <trkpt lat="43.5365" lon="1.47275">
        <ele>176</ele>
        <time>2020-05-31T14:09:04.000Z</time>
      </trkpt>
      <trkpt lat="43.53664" lon="1.47294">
        <ele>175</ele>
        <time>2020-05-31T14:09:06.000Z</time>
      </trkpt>
      <trkpt lat="43.53671" lon="1.47303">
        <ele>174.19999694824</ele>
        <time>2020-05-31T14:09:07.000Z</time>
      </trkpt>
      <trkpt lat="43.53679" lon="1.47312">
        <ele>173.39999389648</ele>
        <time>2020-05-31T14:09:08.000Z</time>
      </trkpt>
      <trkpt lat="43.53687" lon="1.47321">
        <ele>172.80000305176</ele>
        <time>2020-05-31T14:09:09.000Z</time>
      </trkpt>
      <trkpt lat="43.53695" lon="1.47331">
        <ele>172.19999694824</ele>
        <time>2020-05-31T14:09:10.000Z</time>
      </trkpt>
      <trkpt lat="43.53713" lon="1.47351">
        <ele>171.39999389648</ele>
        <time>2020-05-31T14:09:12.000Z</time>
      </trkpt>
      <trkpt lat="43.53731" lon="1.47371">
        <ele>169.80000305176</ele>
        <time>2020-05-31T14:09:14.000Z</time>
      </trkpt>
      <trkpt lat="43.53749" lon="1.47392">
        <ele>168.39999389648</ele>
        <time>2020-05-31T14:09:16.000Z</time>
      </trkpt>
      <trkpt lat="43.53766" lon="1.47411">
        <ele>167.60000610352</ele>
        <time>2020-05-31T14:09:18.000Z</time>
      </trkpt>
      <trkpt lat="43.53772" lon="1.47419">
        <ele>166.60000610352</ele>
        <time>2020-05-31T14:09:19.000Z</time>
      </trkpt>
      <trkpt lat="43.53777" lon="1.47428">
        <ele>165.19999694824</ele>
        <time>2020-05-31T14:09:20.000Z</time>
      </trkpt>
      <trkpt lat="43.5378" lon="1.47437">
        <ele>163.80000305176</ele>
        <time>2020-05-31T14:09:21.000Z</time>
      </trkpt>
      <trkpt lat="43.53782" lon="1.47446">
        <ele>162.19999694824</ele>
        <time>2020-05-31T14:09:22.000Z</time>
      </trkpt>
      <trkpt lat="43.53784" lon="1.47455">
        <ele>161.19999694824</ele>
        <time>2020-05-31T14:09:23.000Z</time>
      </trkpt>
      <trkpt lat="43.53786" lon="1.47461">
        <ele>161</ele>
        <time>2020-05-31T14:09:24.000Z</time>
      </trkpt>
      <trkpt lat="43.53794" lon="1.4747">
        <ele>160.80000305176</ele>
        <time>2020-05-31T14:09:26.000Z</time>
      </trkpt>
      <trkpt lat="43.53801" lon="1.47482">
        <ele>160</ele>
        <time>2020-05-31T14:09:28.000Z</time>
      </trkpt>
      <trkpt lat="43.53807" lon="1.47497">
        <ele>159.39999389648</ele>
        <time>2020-05-31T14:09:30.000Z</time>
      </trkpt>
      <trkpt lat="43.53812" lon="1.47514">
        <ele>159</ele>
        <time>2020-05-31T14:09:32.000Z</time>
      </trkpt>
      <trkpt lat="43.53814" lon="1.47521">
        <ele>158.80000305176</ele>
        <time>2020-05-31T14:09:33.000Z</time>
      </trkpt>
      <trkpt lat="43.53816" lon="1.47528">
        <ele>158.60000610352</ele>
        <time>2020-05-31T14:09:34.000Z</time>
      </trkpt>
      <trkpt lat="43.5382" lon="1.47543">
        <ele>158.19999694824</ele>
        <time>2020-05-31T14:09:36.000Z</time>
      </trkpt>
      <trkpt lat="43.53821" lon="1.4755">
        <ele>157.80000305176</ele>
        <time>2020-05-31T14:09:37.000Z</time>
      </trkpt>
      <trkpt lat="43.53824" lon="1.47558">
        <ele>157.60000610352</ele>
        <time>2020-05-31T14:09:38.000Z</time>
      </trkpt>
      <trkpt lat="43.53828" lon="1.47573">
        <ele>157.39999389648</ele>
        <time>2020-05-31T14:09:40.000Z</time>
      </trkpt>
      <trkpt lat="43.53832" lon="1.47588">
        <ele>157</ele>
        <time>2020-05-31T14:09:42.000Z</time>
      </trkpt>
      <trkpt lat="43.53837" lon="1.47605">
        <ele>156.80000305176</ele>
        <time>2020-05-31T14:09:44.000Z</time>
      </trkpt>
      <trkpt lat="43.53843" lon="1.47621">
        <ele>156.19999694824</ele>
        <time>2020-05-31T14:09:46.000Z</time>
      </trkpt>
      <trkpt lat="43.5385" lon="1.47639">
        <ele>155.60000610352</ele>
        <time>2020-05-31T14:09:48.000Z</time>
      </trkpt>
      <trkpt lat="43.53858" lon="1.47657">
        <ele>155.39999389648</ele>
        <time>2020-05-31T14:09:50.000Z</time>
      </trkpt>
      <trkpt lat="43.53866" lon="1.47675">
        <ele>155.39999389648</ele>
        <time>2020-05-31T14:09:52.000Z</time>
      </trkpt>
      <trkpt lat="43.53875" lon="1.47691">
        <ele>155.19999694824</ele>
        <time>2020-05-31T14:09:54.000Z</time>
      </trkpt>
      <trkpt lat="43.53882" lon="1.47706">
        <ele>154.39999389648</ele>
        <time>2020-05-31T14:09:56.000Z</time>
      </trkpt>
      <trkpt lat="43.53891" lon="1.47721">
        <ele>153.80000305176</ele>
        <time>2020-05-31T14:09:58.000Z</time>
      </trkpt>
      <trkpt lat="43.539" lon="1.47735">
        <ele>153.60000610352</ele>
        <time>2020-05-31T14:10:00.000Z</time>
      </trkpt>
      <trkpt lat="43.5391" lon="1.47749">
        <ele>153.39999389648</ele>
        <time>2020-05-31T14:10:02.000Z</time>
      </trkpt>
      <trkpt lat="43.53914" lon="1.47756">
        <ele>153.39999389648</ele>
        <time>2020-05-31T14:10:03.000Z</time>
      </trkpt>
      <trkpt lat="43.53917" lon="1.47764">
        <ele>153.39999389648</ele>
        <time>2020-05-31T14:10:04.000Z</time>
      </trkpt>
      <trkpt lat="43.53922" lon="1.47778">
        <ele>153</ele>
        <time>2020-05-31T14:10:06.000Z</time>
      </trkpt>
      <trkpt lat="43.53924" lon="1.47785">
        <ele>152.80000305176</ele>
        <time>2020-05-31T14:10:07.000Z</time>
      </trkpt>
      <trkpt lat="43.53928" lon="1.4779">
        <ele>152.60000610352</ele>
        <time>2020-05-31T14:10:08.000Z</time>
      </trkpt>
      <trkpt lat="43.53932" lon="1.47794">
        <ele>152.39999389648</ele>
        <time>2020-05-31T14:10:09.000Z</time>
      </trkpt>
      <trkpt lat="43.53936" lon="1.47798">
        <ele>152.19999694824</ele>
        <time>2020-05-31T14:10:10.000Z</time>
      </trkpt>
      <trkpt lat="43.53948" lon="1.47809">
        <ele>151.39999389648</ele>
        <time>2020-05-31T14:10:12.000Z</time>
      </trkpt>
      <trkpt lat="43.53961" lon="1.47824">
        <ele>150.39999389648</ele>
        <time>2020-05-31T14:10:14.000Z</time>
      </trkpt>
      <trkpt lat="43.53974" lon="1.47839">
        <ele>150</ele>
        <time>2020-05-31T14:10:16.000Z</time>
      </trkpt>
      <trkpt lat="43.53988" lon="1.47856">
        <ele>149.80000305176</ele>
        <time>2020-05-31T14:10:18.000Z</time>
      </trkpt>
      <trkpt lat="43.54001" lon="1.47872">
        <ele>149.19999694824</ele>
        <time>2020-05-31T14:10:20.000Z</time>
      </trkpt>
      <trkpt lat="43.54013" lon="1.47888">
        <ele>149</ele>
        <time>2020-05-31T14:10:22.000Z</time>
      </trkpt>
      <trkpt lat="43.54025" lon="1.47901">
        <ele>148.80000305176</ele>
        <time>2020-05-31T14:10:24.000Z</time>
      </trkpt>
      <trkpt lat="43.54035" lon="1.47914">
        <ele>148.19999694824</ele>
        <time>2020-05-31T14:10:26.000Z</time>
      </trkpt>
      <trkpt lat="43.54044" lon="1.47928">
        <ele>147.39999389648</ele>
        <time>2020-05-31T14:10:28.000Z</time>
      </trkpt>
      <trkpt lat="43.54048" lon="1.47935">
        <ele>147.19999694824</ele>
        <time>2020-05-31T14:10:29.000Z</time>
      </trkpt>
      <trkpt lat="43.54052" lon="1.47943">
        <ele>147.19999694824</ele>
        <time>2020-05-31T14:10:30.000Z</time>
      </trkpt>
      <trkpt lat="43.54061" lon="1.47958">
        <ele>146.80000305176</ele>
        <time>2020-05-31T14:10:32.000Z</time>
      </trkpt>
      <trkpt lat="43.54068" lon="1.47974">
        <ele>146.39999389648</ele>
        <time>2020-05-31T14:10:34.000Z</time>
      </trkpt>
      <trkpt lat="43.54072" lon="1.47982">
        <ele>146.19999694824</ele>
        <time>2020-05-31T14:10:35.000Z</time>
      </trkpt>
      <trkpt lat="43.54076" lon="1.4799">
        <ele>146</ele>
        <time>2020-05-31T14:10:36.000Z</time>
      </trkpt>
      <trkpt lat="43.54083" lon="1.48006">
        <ele>145.39999389648</ele>
        <time>2020-05-31T14:10:38.000Z</time>
      </trkpt>
      <trkpt lat="43.54091" lon="1.48022">
        <ele>144.60000610352</ele>
        <time>2020-05-31T14:10:40.000Z</time>
      </trkpt>
      <trkpt lat="43.54098" lon="1.48039">
        <ele>144.39999389648</ele>
        <time>2020-05-31T14:10:42.000Z</time>
      </trkpt>
      <trkpt lat="43.54101" lon="1.48048">
        <ele>144</ele>
        <time>2020-05-31T14:10:43.000Z</time>
      </trkpt>
      <trkpt lat="43.54104" lon="1.48057">
        <ele>143.39999389648</ele>
        <time>2020-05-31T14:10:44.000Z</time>
      </trkpt>
      <trkpt lat="43.54107" lon="1.48066">
        <ele>142.60000610352</ele>
        <time>2020-05-31T14:10:45.000Z</time>
      </trkpt>
      <trkpt lat="43.5411" lon="1.48076">
        <ele>142.19999694824</ele>
        <time>2020-05-31T14:10:46.000Z</time>
      </trkpt>
      <trkpt lat="43.54116" lon="1.48096">
        <ele>141.80000305176</ele>
        <time>2020-05-31T14:10:48.000Z</time>
      </trkpt>
      <trkpt lat="43.54121" lon="1.48117">
        <ele>141.60000610352</ele>
        <time>2020-05-31T14:10:50.000Z</time>
      </trkpt>
      <trkpt lat="43.54124" lon="1.48138">
        <ele>140.80000305176</ele>
        <time>2020-05-31T14:10:52.000Z</time>
      </trkpt>
      <trkpt lat="43.54125" lon="1.48149">
        <ele>140.39999389648</ele>
        <time>2020-05-31T14:10:53.000Z</time>
      </trkpt>
      <trkpt lat="43.54126" lon="1.48159">
        <ele>140.19999694824</ele>
        <time>2020-05-31T14:10:54.000Z</time>
      </trkpt>
      <trkpt lat="43.54128" lon="1.48179">
        <ele>139.19999694824</ele>
        <time>2020-05-31T14:10:56.000Z</time>
      </trkpt>
      <trkpt lat="43.54129" lon="1.48199">
        <ele>138.39999389648</ele>
        <time>2020-05-31T14:10:58.000Z</time>
      </trkpt>
      <trkpt lat="43.5413" lon="1.48208">
        <ele>138.19999694824</ele>
        <time>2020-05-31T14:10:59.000Z</time>
      </trkpt>
      <trkpt lat="43.5413" lon="1.48217">
        <ele>138</ele>
        <time>2020-05-31T14:11:00.000Z</time>
      </trkpt>
      <trkpt lat="43.5413" lon="1.48234">
        <ele>137.60000610352</ele>
        <time>2020-05-31T14:11:02.000Z</time>
      </trkpt>
      <trkpt lat="43.54129" lon="1.48242">
        <ele>137.60000610352</ele>
        <time>2020-05-31T14:11:03.000Z</time>
      </trkpt>
      <trkpt lat="43.54127" lon="1.48249">
        <ele>137.60000610352</ele>
        <time>2020-05-31T14:11:04.000Z</time>
      </trkpt>
      <trkpt lat="43.54118" lon="1.48259">
        <ele>137.60000610352</ele>
        <time>2020-05-31T14:11:06.000Z</time>
      </trkpt>
      <trkpt lat="43.54108" lon="1.48264">
        <ele>137.60000610352</ele>
        <time>2020-05-31T14:11:08.000Z</time>
      </trkpt>
      <trkpt lat="43.54104" lon="1.48267">
        <ele>137.60000610352</ele>
        <time>2020-05-31T14:11:09.000Z</time>
      </trkpt>
      <trkpt lat="43.541" lon="1.48271">
        <ele>137.60000610352</ele>
        <time>2020-05-31T14:11:10.000Z</time>
      </trkpt>
      <trkpt lat="43.54093" lon="1.48281">
        <ele>137.80000305176</ele>
        <time>2020-05-31T14:11:12.000Z</time>
      </trkpt>
      <trkpt lat="43.5409" lon="1.48286">
        <ele>137.80000305176</ele>
        <time>2020-05-31T14:11:13.000Z</time>
      </trkpt>
      <trkpt lat="43.54088" lon="1.48292">
        <ele>137.80000305176</ele>
        <time>2020-05-31T14:11:14.000Z</time>
      </trkpt>
      <trkpt lat="43.54085" lon="1.48306">
        <ele>137.80000305176</ele>
        <time>2020-05-31T14:11:16.000Z</time>
      </trkpt>
      <trkpt lat="43.54086" lon="1.48321">
        <ele>138.19999694824</ele>
        <time>2020-05-31T14:11:18.000Z</time>
      </trkpt>
      <trkpt lat="43.54091" lon="1.48334">
        <ele>138.39999389648</ele>
        <time>2020-05-31T14:11:20.000Z</time>
      </trkpt>
      <trkpt lat="43.54098" lon="1.48344">
        <ele>138.60000610352</ele>
        <time>2020-05-31T14:11:22.000Z</time>
      </trkpt>
      <trkpt lat="43.54108" lon="1.48348">
        <ele>138.80000305176</ele>
        <time>2020-05-31T14:11:24.000Z</time>
      </trkpt>
      <trkpt lat="43.54117" lon="1.4835">
        <ele>138.80000305176</ele>
        <time>2020-05-31T14:11:26.000Z</time>
      </trkpt>
      <trkpt lat="43.54126" lon="1.48349">
        <ele>139.19999694824</ele>
        <time>2020-05-31T14:11:28.000Z</time>
      </trkpt>
      <trkpt lat="43.54135" lon="1.48346">
        <ele>139.19999694824</ele>
        <time>2020-05-31T14:11:30.000Z</time>
      </trkpt>
      <trkpt lat="43.54143" lon="1.48341">
        <ele>139.19999694824</ele>
        <time>2020-05-31T14:11:32.000Z</time>
      </trkpt>
      <trkpt lat="43.54151" lon="1.48333">
        <ele>139.19999694824</ele>
        <time>2020-05-31T14:11:34.000Z</time>
      </trkpt>
      <trkpt lat="43.54156" lon="1.48323">
        <ele>139.19999694824</ele>
        <time>2020-05-31T14:11:36.000Z</time>
      </trkpt>
      <trkpt lat="43.54159" lon="1.4831">
        <ele>139.19999694824</ele>
        <time>2020-05-31T14:11:38.000Z</time>
      </trkpt>
      <trkpt lat="43.54161" lon="1.48304">
        <ele>139.19999694824</ele>
        <time>2020-05-31T14:11:39.000Z</time>
      </trkpt>
      <trkpt lat="43.54162" lon="1.48298">
        <ele>139.39999389648</ele>
        <time>2020-05-31T14:11:40.000Z</time>
      </trkpt>
      <trkpt lat="43.54169" lon="1.4829">
        <ele>139.39999389648</ele>
        <time>2020-05-31T14:11:42.000Z</time>
      </trkpt>
      <trkpt lat="43.54178" lon="1.48287">
        <ele>139.19999694824</ele>
        <time>2020-05-31T14:11:44.000Z</time>
      </trkpt>
      <trkpt lat="43.54187" lon="1.4829">
        <ele>139.19999694824</ele>
        <time>2020-05-31T14:11:46.000Z</time>
      </trkpt>
      <trkpt lat="43.54194" lon="1.48299">
        <ele>139.19999694824</ele>
        <time>2020-05-31T14:11:48.000Z</time>
      </trkpt>
      <trkpt lat="43.54198" lon="1.4831">
        <ele>139.19999694824</ele>
        <time>2020-05-31T14:11:50.000Z</time>
      </trkpt>
      <trkpt lat="43.54202" lon="1.48321">
        <ele>138.80000305176</ele>
        <time>2020-05-31T14:11:52.000Z</time>
      </trkpt>
      <trkpt lat="43.54207" lon="1.48332">
        <ele>138.60000610352</ele>
        <time>2020-05-31T14:11:54.000Z</time>
      </trkpt>
      <trkpt lat="43.54212" lon="1.48343">
        <ele>138.39999389648</ele>
        <time>2020-05-31T14:11:56.000Z</time>
      </trkpt>
      <trkpt lat="43.54216" lon="1.48355">
        <ele>138.39999389648</ele>
        <time>2020-05-31T14:11:58.000Z</time>
      </trkpt>
      <trkpt lat="43.54221" lon="1.48367">
        <ele>138.19999694824</ele>
        <time>2020-05-31T14:12:00.000Z</time>
      </trkpt>
      <trkpt lat="43.54227" lon="1.48378">
        <ele>138</ele>
        <time>2020-05-31T14:12:02.000Z</time>
      </trkpt>
      <trkpt lat="43.54233" lon="1.4839">
        <ele>137.80000305176</ele>
        <time>2020-05-31T14:12:04.000Z</time>
      </trkpt>
      <trkpt lat="43.54239" lon="1.48401">
        <ele>137.60000610352</ele>
        <time>2020-05-31T14:12:06.000Z</time>
      </trkpt>
      <trkpt lat="43.54246" lon="1.48413">
        <ele>137.60000610352</ele>
        <time>2020-05-31T14:12:08.000Z</time>
      </trkpt>
      <trkpt lat="43.54252" lon="1.48424">
        <ele>137.19999694824</ele>
        <time>2020-05-31T14:12:10.000Z</time>
      </trkpt>
      <trkpt lat="43.54257" lon="1.48435">
        <ele>137</ele>
        <time>2020-05-31T14:12:12.000Z</time>
      </trkpt>
      <trkpt lat="43.54259" lon="1.48441">
        <ele>136.39999389648</ele>
        <time>2020-05-31T14:12:13.000Z</time>
      </trkpt>
      <trkpt lat="43.54261" lon="1.48447">
        <ele>136.19999694824</ele>
        <time>2020-05-31T14:12:14.000Z</time>
      </trkpt>
      <trkpt lat="43.54263" lon="1.48452">
        <ele>136</ele>
        <time>2020-05-31T14:12:15.000Z</time>
      </trkpt>
      <trkpt lat="43.54266" lon="1.48458">
        <ele>136</ele>
        <time>2020-05-31T14:12:16.000Z</time>
      </trkpt>
      <trkpt lat="43.54272" lon="1.4847">
        <ele>135.80000305176</ele>
        <time>2020-05-31T14:12:18.000Z</time>
      </trkpt>
      <trkpt lat="43.54276" lon="1.48476">
        <ele>135.60000610352</ele>
        <time>2020-05-31T14:12:19.000Z</time>
      </trkpt>
      <trkpt lat="43.54279" lon="1.48483">
        <ele>135.60000610352</ele>
        <time>2020-05-31T14:12:20.000Z</time>
      </trkpt>
      <trkpt lat="43.54286" lon="1.48495">
        <ele>135.39999389648</ele>
        <time>2020-05-31T14:12:22.000Z</time>
      </trkpt>
      <trkpt lat="43.54294" lon="1.48508">
        <ele>135.19999694824</ele>
        <time>2020-05-31T14:12:24.000Z</time>
      </trkpt>
      <trkpt lat="43.54301" lon="1.4852">
        <ele>134.60000610352</ele>
        <time>2020-05-31T14:12:26.000Z</time>
      </trkpt>
      <trkpt lat="43.54308" lon="1.48533">
        <ele>134.39999389648</ele>
        <time>2020-05-31T14:12:28.000Z</time>
      </trkpt>
      <trkpt lat="43.54315" lon="1.48545">
        <ele>133.80000305176</ele>
        <time>2020-05-31T14:12:30.000Z</time>
      </trkpt>
      <trkpt lat="43.54322" lon="1.48557">
        <ele>133.39999389648</ele>
        <time>2020-05-31T14:12:32.000Z</time>
      </trkpt>
      <trkpt lat="43.54328" lon="1.4857">
        <ele>133.19999694824</ele>
        <time>2020-05-31T14:12:34.000Z</time>
      </trkpt>
      <trkpt lat="43.54334" lon="1.48585">
        <ele>132.60000610352</ele>
        <time>2020-05-31T14:12:36.000Z</time>
      </trkpt>
      <trkpt lat="43.54338" lon="1.48599">
        <ele>132.60000610352</ele>
        <time>2020-05-31T14:12:38.000Z</time>
      </trkpt>
      <trkpt lat="43.5434" lon="1.48606">
        <ele>132.39999389648</ele>
        <time>2020-05-31T14:12:39.000Z</time>
      </trkpt>
      <trkpt lat="43.54342" lon="1.48613">
        <ele>132.39999389648</ele>
        <time>2020-05-31T14:12:40.000Z</time>
      </trkpt>
      <trkpt lat="43.54346" lon="1.48625">
        <ele>132.39999389648</ele>
        <time>2020-05-31T14:12:42.000Z</time>
      </trkpt>
      <trkpt lat="43.5435" lon="1.48638">
        <ele>132.39999389648</ele>
        <time>2020-05-31T14:12:44.000Z</time>
      </trkpt>
      <trkpt lat="43.54353" lon="1.48651">
        <ele>132.39999389648</ele>
        <time>2020-05-31T14:12:46.000Z</time>
      </trkpt>
      <trkpt lat="43.54356" lon="1.48664">
        <ele>132.39999389648</ele>
        <time>2020-05-31T14:12:48.000Z</time>
      </trkpt>
      <trkpt lat="43.54358" lon="1.4867">
        <ele>132.39999389648</ele>
        <time>2020-05-31T14:12:49.000Z</time>
      </trkpt>
      <trkpt lat="43.54359" lon="1.48677">
        <ele>132.39999389648</ele>
        <time>2020-05-31T14:12:50.000Z</time>
      </trkpt>
      <trkpt lat="43.54363" lon="1.4869">
        <ele>132.60000610352</ele>
        <time>2020-05-31T14:12:52.000Z</time>
      </trkpt>
      <trkpt lat="43.54365" lon="1.48704">
        <ele>132.80000305176</ele>
        <time>2020-05-31T14:12:54.000Z</time>
      </trkpt>
      <trkpt lat="43.54367" lon="1.48717">
        <ele>132.80000305176</ele>
        <time>2020-05-31T14:12:56.000Z</time>
      </trkpt>
      <trkpt lat="43.54369" lon="1.48731">
        <ele>132.80000305176</ele>
        <time>2020-05-31T14:12:58.000Z</time>
      </trkpt>
      <trkpt lat="43.54371" lon="1.48745">
        <ele>133</ele>
        <time>2020-05-31T14:13:00.000Z</time>
      </trkpt>
      <trkpt lat="43.54373" lon="1.48759">
        <ele>133.19999694824</ele>
        <time>2020-05-31T14:13:02.000Z</time>
      </trkpt>
      <trkpt lat="43.54376" lon="1.48774">
        <ele>133.19999694824</ele>
        <time>2020-05-31T14:13:04.000Z</time>
      </trkpt>
      <trkpt lat="43.54378" lon="1.48788">
        <ele>133.19999694824</ele>
        <time>2020-05-31T14:13:06.000Z</time>
      </trkpt>
      <trkpt lat="43.54381" lon="1.48802">
        <ele>133</ele>
        <time>2020-05-31T14:13:08.000Z</time>
      </trkpt>
      <trkpt lat="43.54384" lon="1.48817">
        <ele>133</ele>
        <time>2020-05-31T14:13:10.000Z</time>
      </trkpt>
      <trkpt lat="43.54388" lon="1.48832">
        <ele>132.80000305176</ele>
        <time>2020-05-31T14:13:12.000Z</time>
      </trkpt>
      <trkpt lat="43.5439" lon="1.48839">
        <ele>132.60000610352</ele>
        <time>2020-05-31T14:13:13.000Z</time>
      </trkpt>
      <trkpt lat="43.54393" lon="1.48845">
        <ele>132.60000610352</ele>
        <time>2020-05-31T14:13:14.000Z</time>
      </trkpt>
      <trkpt lat="43.54398" lon="1.48859">
        <ele>132.80000305176</ele>
        <time>2020-05-31T14:13:16.000Z</time>
      </trkpt>
      <trkpt lat="43.54404" lon="1.48872">
        <ele>132.80000305176</ele>
        <time>2020-05-31T14:13:18.000Z</time>
      </trkpt>
      <trkpt lat="43.5441" lon="1.48885">
        <ele>132.60000610352</ele>
        <time>2020-05-31T14:13:20.000Z</time>
      </trkpt>
      <trkpt lat="43.54416" lon="1.48897">
        <ele>132.39999389648</ele>
        <time>2020-05-31T14:13:22.000Z</time>
      </trkpt>
      <trkpt lat="43.54422" lon="1.48908">
        <ele>132.19999694824</ele>
        <time>2020-05-31T14:13:24.000Z</time>
      </trkpt>
      <trkpt lat="43.54426" lon="1.48919">
        <ele>132.39999389648</ele>
        <time>2020-05-31T14:13:26.000Z</time>
      </trkpt>
      <trkpt lat="43.54431" lon="1.4893">
        <ele>132.19999694824</ele>
        <time>2020-05-31T14:13:28.000Z</time>
      </trkpt>
      <trkpt lat="43.54436" lon="1.4894">
        <ele>132.19999694824</ele>
        <time>2020-05-31T14:13:30.000Z</time>
      </trkpt>
      <trkpt lat="43.5444" lon="1.48951">
        <ele>132.19999694824</ele>
        <time>2020-05-31T14:13:32.000Z</time>
      </trkpt>
      <trkpt lat="43.54444" lon="1.48961">
        <ele>132.19999694824</ele>
        <time>2020-05-31T14:13:34.000Z</time>
      </trkpt>
      <trkpt lat="43.54447" lon="1.4897">
        <ele>132.19999694824</ele>
        <time>2020-05-31T14:13:36.000Z</time>
      </trkpt>
      <trkpt lat="43.54451" lon="1.4898">
        <ele>132.39999389648</ele>
        <time>2020-05-31T14:13:38.000Z</time>
      </trkpt>
      <trkpt lat="43.54455" lon="1.48986">
        <ele>132.80000305176</ele>
        <time>2020-05-31T14:13:40.000Z</time>
      </trkpt>
      <trkpt lat="43.54458" lon="1.48992">
        <ele>133.19999694824</ele>
        <time>2020-05-31T14:13:42.000Z</time>
      </trkpt>
      <trkpt lat="43.5446" lon="1.48996">
        <ele>133.19999694824</ele>
        <time>2020-05-31T14:13:44.000Z</time>
      </trkpt>
      <trkpt lat="43.54462" lon="1.49002">
        <ele>133.39999389648</ele>
        <time>2020-05-31T14:13:46.000Z</time>
      </trkpt>
      <trkpt lat="43.54461" lon="1.49007">
        <ele>133.39999389648</ele>
        <time>2020-05-31T14:13:48.000Z</time>
      </trkpt>
      <trkpt lat="43.5446" lon="1.49008">
        <ele>133.39999389648</ele>
        <time>2020-05-31T14:13:49.000Z</time>
      </trkpt>
      <trkpt lat="43.54459" lon="1.4901">
        <ele>133.39999389648</ele>
        <time>2020-05-31T14:13:50.000Z</time>
      </trkpt>
      <trkpt lat="43.54455" lon="1.49011">
        <ele>133.19999694824</ele>
        <time>2020-05-31T14:13:52.000Z</time>
      </trkpt>
      <trkpt lat="43.5445" lon="1.49013">
        <ele>133</ele>
        <time>2020-05-31T14:13:54.000Z</time>
      </trkpt>
      <trkpt lat="43.54447" lon="1.49015">
        <ele>133</ele>
        <time>2020-05-31T14:13:55.000Z</time>
      </trkpt>
      <trkpt lat="43.54444" lon="1.49016">
        <ele>132.60000610352</ele>
        <time>2020-05-31T14:13:56.000Z</time>
      </trkpt>
      <trkpt lat="43.54437" lon="1.4902">
        <ele>132</ele>
        <time>2020-05-31T14:13:58.000Z</time>
      </trkpt>
      <trkpt lat="43.54434" lon="1.49022">
        <ele>131.80000305176</ele>
        <time>2020-05-31T14:13:59.000Z</time>
      </trkpt>
      <trkpt lat="43.5443" lon="1.49023">
        <ele>131.39999389648</ele>
        <time>2020-05-31T14:14:00.000Z</time>
      </trkpt>
      <trkpt lat="43.54421" lon="1.49026">
        <ele>131</ele>
        <time>2020-05-31T14:14:02.000Z</time>
      </trkpt>
      <trkpt lat="43.54413" lon="1.49029">
        <ele>130.80000305176</ele>
        <time>2020-05-31T14:14:04.000Z</time>
      </trkpt>
      <trkpt lat="43.54406" lon="1.49033">
        <ele>130.60000610352</ele>
        <time>2020-05-31T14:14:06.000Z</time>
      </trkpt>
      <trkpt lat="43.544" lon="1.49036">
        <ele>130.60000610352</ele>
        <time>2020-05-31T14:14:08.000Z</time>
      </trkpt>
      <trkpt lat="43.54397" lon="1.49038">
        <ele>130.39999389648</ele>
        <time>2020-05-31T14:14:09.000Z</time>
      </trkpt>
      <trkpt lat="43.54393" lon="1.49039">
        <ele>130.39999389648</ele>
        <time>2020-05-31T14:14:10.000Z</time>
      </trkpt>
      <trkpt lat="43.5439" lon="1.4904">
        <ele>130.39999389648</ele>
        <time>2020-05-31T14:14:11.000Z</time>
      </trkpt>
      <trkpt lat="43.54387" lon="1.49042">
        <ele>130.39999389648</ele>
        <time>2020-05-31T14:14:12.000Z</time>
      </trkpt>
      <trkpt lat="43.54379" lon="1.49044">
        <ele>130.19999694824</ele>
        <time>2020-05-31T14:14:14.000Z</time>
      </trkpt>
      <trkpt lat="43.54372" lon="1.49048">
        <ele>130.19999694824</ele>
        <time>2020-05-31T14:14:16.000Z</time>
      </trkpt>
      <trkpt lat="43.54366" lon="1.4905">
        <ele>130.19999694824</ele>
        <time>2020-05-31T14:14:18.000Z</time>
      </trkpt>
      <trkpt lat="43.54363" lon="1.49052">
        <ele>130.19999694824</ele>
        <time>2020-05-31T14:14:19.000Z</time>
      </trkpt>
      <trkpt lat="43.54359" lon="1.49053">
        <ele>130.39999389648</ele>
        <time>2020-05-31T14:14:20.000Z</time>
      </trkpt>
      <trkpt lat="43.5435" lon="1.49056">
        <ele>130.39999389648</ele>
        <time>2020-05-31T14:14:22.000Z</time>
      </trkpt>
      <trkpt lat="43.54343" lon="1.49058">
        <ele>130.39999389648</ele>
        <time>2020-05-31T14:14:24.000Z</time>
      </trkpt>
      <trkpt lat="43.54334" lon="1.49061">
        <ele>130.39999389648</ele>
        <time>2020-05-31T14:14:26.000Z</time>
      </trkpt>
      <trkpt lat="43.54326" lon="1.49065">
        <ele>130.39999389648</ele>
        <time>2020-05-31T14:14:28.000Z</time>
      </trkpt>
      <trkpt lat="43.54319" lon="1.49066">
        <ele>130.39999389648</ele>
        <time>2020-05-31T14:14:30.000Z</time>
      </trkpt>
      <trkpt lat="43.54312" lon="1.49067">
        <ele>130.39999389648</ele>
        <time>2020-05-31T14:14:32.000Z</time>
      </trkpt>
      <trkpt lat="43.54309" lon="1.49069">
        <ele>130.39999389648</ele>
        <time>2020-05-31T14:14:33.000Z</time>
      </trkpt>
      <trkpt lat="43.54304" lon="1.49071">
        <ele>130.39999389648</ele>
        <time>2020-05-31T14:14:34.000Z</time>
      </trkpt>
      <trkpt lat="43.54297" lon="1.49074">
        <ele>130.39999389648</ele>
        <time>2020-05-31T14:14:36.000Z</time>
      </trkpt>
      <trkpt lat="43.54289" lon="1.49075">
        <ele>130.39999389648</ele>
        <time>2020-05-31T14:14:38.000Z</time>
      </trkpt>
      <trkpt lat="43.54284" lon="1.49077">
        <ele>130.39999389648</ele>
        <time>2020-05-31T14:14:39.000Z</time>
      </trkpt>
      <trkpt lat="43.5428" lon="1.49077">
        <ele>130.39999389648</ele>
        <time>2020-05-31T14:14:40.000Z</time>
      </trkpt>
      <trkpt lat="43.54271" lon="1.49081">
        <ele>130.39999389648</ele>
        <time>2020-05-31T14:14:42.000Z</time>
      </trkpt>
      <trkpt lat="43.54263" lon="1.49084">
        <ele>130</ele>
        <time>2020-05-31T14:14:44.000Z</time>
      </trkpt>
      <trkpt lat="43.54254" lon="1.49087">
        <ele>130.19999694824</ele>
        <time>2020-05-31T14:14:46.000Z</time>
      </trkpt>
      <trkpt lat="43.54249" lon="1.49088">
        <ele>130.19999694824</ele>
        <time>2020-05-31T14:14:47.000Z</time>
      </trkpt>
      <trkpt lat="43.54243" lon="1.4909">
        <ele>130</ele>
        <time>2020-05-31T14:14:48.000Z</time>
      </trkpt>
      <trkpt lat="43.54234" lon="1.49093">
        <ele>130</ele>
        <time>2020-05-31T14:14:50.000Z</time>
      </trkpt>
      <trkpt lat="43.54225" lon="1.49098">
        <ele>130</ele>
        <time>2020-05-31T14:14:52.000Z</time>
      </trkpt>
      <trkpt lat="43.54217" lon="1.49103">
        <ele>130</ele>
        <time>2020-05-31T14:14:54.000Z</time>
      </trkpt>
      <trkpt lat="43.54209" lon="1.49108">
        <ele>130.19999694824</ele>
        <time>2020-05-31T14:14:56.000Z</time>
      </trkpt>
      <trkpt lat="43.542" lon="1.49117">
        <ele>130.19999694824</ele>
        <time>2020-05-31T14:14:58.000Z</time>
      </trkpt>
      <trkpt lat="43.54192" lon="1.49122">
        <ele>130.39999389648</ele>
        <time>2020-05-31T14:15:00.000Z</time>
      </trkpt>
      <trkpt lat="43.54188" lon="1.49126">
        <ele>130.39999389648</ele>
        <time>2020-05-31T14:15:01.000Z</time>
      </trkpt>
      <trkpt lat="43.54184" lon="1.49129">
        <ele>130.39999389648</ele>
        <time>2020-05-31T14:15:02.000Z</time>
      </trkpt>
      <trkpt lat="43.54175" lon="1.49136">
        <ele>130.39999389648</ele>
        <time>2020-05-31T14:15:04.000Z</time>
      </trkpt>
      <trkpt lat="43.54166" lon="1.49142">
        <ele>130.39999389648</ele>
        <time>2020-05-31T14:15:06.000Z</time>
      </trkpt>
      <trkpt lat="43.54157" lon="1.49149">
        <ele>130.39999389648</ele>
        <time>2020-05-31T14:15:08.000Z</time>
      </trkpt>
      <trkpt lat="43.54147" lon="1.49157">
        <ele>130.19999694824</ele>
        <time>2020-05-31T14:15:10.000Z</time>
      </trkpt>
      <trkpt lat="43.54138" lon="1.49164">
        <ele>130</ele>
        <time>2020-05-31T14:15:12.000Z</time>
      </trkpt>
      <trkpt lat="43.54134" lon="1.49167">
        <ele>130.19999694824</ele>
        <time>2020-05-31T14:15:13.000Z</time>
      </trkpt>
      <trkpt lat="43.5413" lon="1.49169">
        <ele>130</ele>
        <time>2020-05-31T14:15:14.000Z</time>
      </trkpt>
      <trkpt lat="43.54122" lon="1.49174">
        <ele>130</ele>
        <time>2020-05-31T14:15:16.000Z</time>
      </trkpt>
      <trkpt lat="43.54114" lon="1.49179">
        <ele>130</ele>
        <time>2020-05-31T14:15:18.000Z</time>
      </trkpt>
      <trkpt lat="43.54107" lon="1.49184">
        <ele>130.19999694824</ele>
        <time>2020-05-31T14:15:20.000Z</time>
      </trkpt>
      <trkpt lat="43.541" lon="1.4919">
        <ele>130.39999389648</ele>
        <time>2020-05-31T14:15:22.000Z</time>
      </trkpt>
      <trkpt lat="43.54094" lon="1.49193">
        <ele>130.19999694824</ele>
        <time>2020-05-31T14:15:24.000Z</time>
      </trkpt>
      <trkpt lat="43.54088" lon="1.49197">
        <ele>130</ele>
        <time>2020-05-31T14:15:26.000Z</time>
      </trkpt>
      <trkpt lat="43.5408" lon="1.49199">
        <ele>130</ele>
        <time>2020-05-31T14:15:28.000Z</time>
      </trkpt>
      <trkpt lat="43.54072" lon="1.49203">
        <ele>130</ele>
        <time>2020-05-31T14:15:30.000Z</time>
      </trkpt>
      <trkpt lat="43.54064" lon="1.49206">
        <ele>130</ele>
        <time>2020-05-31T14:15:32.000Z</time>
      </trkpt>
      <trkpt lat="43.5406" lon="1.49208">
        <ele>130</ele>
        <time>2020-05-31T14:15:33.000Z</time>
      </trkpt>
      <trkpt lat="43.54057" lon="1.4921">
        <ele>130.19999694824</ele>
        <time>2020-05-31T14:15:34.000Z</time>
      </trkpt>
      <trkpt lat="43.54049" lon="1.49212">
        <ele>130</ele>
        <time>2020-05-31T14:15:36.000Z</time>
      </trkpt>
      <trkpt lat="43.54045" lon="1.49214">
        <ele>130</ele>
        <time>2020-05-31T14:15:37.000Z</time>
      </trkpt>
      <trkpt lat="43.5404" lon="1.49216">
        <ele>129.80000305176</ele>
        <time>2020-05-31T14:15:38.000Z</time>
      </trkpt>
      <trkpt lat="43.5403" lon="1.49221">
        <ele>129.60000610352</ele>
        <time>2020-05-31T14:15:40.000Z</time>
      </trkpt>
      <trkpt lat="43.54019" lon="1.49227">
        <ele>129.60000610352</ele>
        <time>2020-05-31T14:15:42.000Z</time>
      </trkpt>
      <trkpt lat="43.54009" lon="1.49231">
        <ele>129.60000610352</ele>
        <time>2020-05-31T14:15:44.000Z</time>
      </trkpt>
      <trkpt lat="43.53998" lon="1.49235">
        <ele>129.60000610352</ele>
        <time>2020-05-31T14:15:46.000Z</time>
      </trkpt>
      <trkpt lat="43.53994" lon="1.49236">
        <ele>129.39999389648</ele>
        <time>2020-05-31T14:15:47.000Z</time>
      </trkpt>
      <trkpt lat="43.5399" lon="1.49237">
        <ele>129.39999389648</ele>
        <time>2020-05-31T14:15:48.000Z</time>
      </trkpt>
      <trkpt lat="43.53986" lon="1.49239">
        <ele>129.60000610352</ele>
        <time>2020-05-31T14:15:49.000Z</time>
      </trkpt>
      <trkpt lat="43.53982" lon="1.4924">
        <ele>129.60000610352</ele>
        <time>2020-05-31T14:15:50.000Z</time>
      </trkpt>
      <trkpt lat="43.53975" lon="1.49242">
        <ele>129.60000610352</ele>
        <time>2020-05-31T14:15:52.000Z</time>
      </trkpt>
      <trkpt lat="43.53972" lon="1.49243">
        <ele>129.60000610352</ele>
        <time>2020-05-31T14:15:53.000Z</time>
      </trkpt>
      <trkpt lat="43.53968" lon="1.49244">
        <ele>129.60000610352</ele>
        <time>2020-05-31T14:15:54.000Z</time>
      </trkpt>
      <trkpt lat="43.5396" lon="1.49245">
        <ele>130</ele>
        <time>2020-05-31T14:15:56.000Z</time>
      </trkpt>
      <trkpt lat="43.53951" lon="1.49247">
        <ele>130</ele>
        <time>2020-05-31T14:15:58.000Z</time>
      </trkpt>
      <trkpt lat="43.53946" lon="1.49248">
        <ele>130</ele>
        <time>2020-05-31T14:15:59.000Z</time>
      </trkpt>
      <trkpt lat="43.53941" lon="1.4925">
        <ele>130</ele>
        <time>2020-05-31T14:16:00.000Z</time>
      </trkpt>
      <trkpt lat="43.53937" lon="1.49252">
        <ele>130</ele>
        <time>2020-05-31T14:16:01.000Z</time>
      </trkpt>
      <trkpt lat="43.53932" lon="1.49255">
        <ele>129.80000305176</ele>
        <time>2020-05-31T14:16:02.000Z</time>
      </trkpt>
      <trkpt lat="43.53921" lon="1.4926">
        <ele>130</ele>
        <time>2020-05-31T14:16:04.000Z</time>
      </trkpt>
      <trkpt lat="43.53912" lon="1.49266">
        <ele>130</ele>
        <time>2020-05-31T14:16:06.000Z</time>
      </trkpt>
      <trkpt lat="43.53905" lon="1.49271">
        <ele>130.19999694824</ele>
        <time>2020-05-31T14:16:08.000Z</time>
      </trkpt>
      <trkpt lat="43.53898" lon="1.49276">
        <ele>130.19999694824</ele>
        <time>2020-05-31T14:16:10.000Z</time>
      </trkpt>
      <trkpt lat="43.53893" lon="1.49282">
        <ele>130</ele>
        <time>2020-05-31T14:16:12.000Z</time>
      </trkpt>
      <trkpt lat="43.53887" lon="1.49287">
        <ele>130</ele>
        <time>2020-05-31T14:16:14.000Z</time>
      </trkpt>
      <trkpt lat="43.53882" lon="1.49295">
        <ele>129.80000305176</ele>
        <time>2020-05-31T14:16:16.000Z</time>
      </trkpt>
      <trkpt lat="43.53878" lon="1.49303">
        <ele>129.60000610352</ele>
        <time>2020-05-31T14:16:18.000Z</time>
      </trkpt>
      <trkpt lat="43.53875" lon="1.49308">
        <ele>129.60000610352</ele>
        <time>2020-05-31T14:16:19.000Z</time>
      </trkpt>
      <trkpt lat="43.53874" lon="1.49313">
        <ele>129.60000610352</ele>
        <time>2020-05-31T14:16:20.000Z</time>
      </trkpt>
      <trkpt lat="43.53871" lon="1.49323">
        <ele>129.60000610352</ele>
        <time>2020-05-31T14:16:22.000Z</time>
      </trkpt>
      <trkpt lat="43.5387" lon="1.49332">
        <ele>129.60000610352</ele>
        <time>2020-05-31T14:16:24.000Z</time>
      </trkpt>
      <trkpt lat="43.53868" lon="1.49343">
        <ele>129.60000610352</ele>
        <time>2020-05-31T14:16:26.000Z</time>
      </trkpt>
      <trkpt lat="43.53867" lon="1.49353">
        <ele>129.60000610352</ele>
        <time>2020-05-31T14:16:28.000Z</time>
      </trkpt>
      <trkpt lat="43.53867" lon="1.49363">
        <ele>129.60000610352</ele>
        <time>2020-05-31T14:16:30.000Z</time>
      </trkpt>
      <trkpt lat="43.53866" lon="1.49375">
        <ele>129.60000610352</ele>
        <time>2020-05-31T14:16:32.000Z</time>
      </trkpt>
      <trkpt lat="43.53867" lon="1.49381">
        <ele>129.60000610352</ele>
        <time>2020-05-31T14:16:33.000Z</time>
      </trkpt>
      <trkpt lat="43.53867" lon="1.49387">
        <ele>129.80000305176</ele>
        <time>2020-05-31T14:16:34.000Z</time>
      </trkpt>
      <trkpt lat="43.53867" lon="1.49392">
        <ele>129.80000305176</ele>
        <time>2020-05-31T14:16:35.000Z</time>
      </trkpt>
      <trkpt lat="43.53867" lon="1.49398">
        <ele>129.80000305176</ele>
        <time>2020-05-31T14:16:36.000Z</time>
      </trkpt>
      <trkpt lat="43.53868" lon="1.49411">
        <ele>129.80000305176</ele>
        <time>2020-05-31T14:16:38.000Z</time>
      </trkpt>
      <trkpt lat="43.53868" lon="1.49423">
        <ele>130</ele>
        <time>2020-05-31T14:16:40.000Z</time>
      </trkpt>
      <trkpt lat="43.5387" lon="1.49436">
        <ele>130</ele>
        <time>2020-05-31T14:16:42.000Z</time>
      </trkpt>
      <trkpt lat="43.53871" lon="1.49451">
        <ele>130.19999694824</ele>
        <time>2020-05-31T14:16:44.000Z</time>
      </trkpt>
      <trkpt lat="43.53872" lon="1.49467">
        <ele>130.39999389648</ele>
        <time>2020-05-31T14:16:46.000Z</time>
      </trkpt>
      <trkpt lat="43.53874" lon="1.49483">
        <ele>130.39999389648</ele>
        <time>2020-05-31T14:16:48.000Z</time>
      </trkpt>
      <trkpt lat="43.53876" lon="1.49499">
        <ele>130.39999389648</ele>
        <time>2020-05-31T14:16:50.000Z</time>
      </trkpt>
      <trkpt lat="43.53878" lon="1.49516">
        <ele>130.39999389648</ele>
        <time>2020-05-31T14:16:52.000Z</time>
      </trkpt>
      <trkpt lat="43.5388" lon="1.49531">
        <ele>130.39999389648</ele>
        <time>2020-05-31T14:16:54.000Z</time>
      </trkpt>
      <trkpt lat="43.53883" lon="1.49545">
        <ele>130.60000610352</ele>
        <time>2020-05-31T14:16:56.000Z</time>
      </trkpt>
      <trkpt lat="43.53885" lon="1.49557">
        <ele>130.60000610352</ele>
        <time>2020-05-31T14:16:58.000Z</time>
      </trkpt>
      <trkpt lat="43.53887" lon="1.49569">
        <ele>130.60000610352</ele>
        <time>2020-05-31T14:17:00.000Z</time>
      </trkpt>
      <trkpt lat="43.53889" lon="1.49581">
        <ele>130.60000610352</ele>
        <time>2020-05-31T14:17:02.000Z</time>
      </trkpt>
      <trkpt lat="43.53891" lon="1.49592">
        <ele>130.60000610352</ele>
        <time>2020-05-31T14:17:04.000Z</time>
      </trkpt>
      <trkpt lat="43.53893" lon="1.49604">
        <ele>130.60000610352</ele>
        <time>2020-05-31T14:17:06.000Z</time>
      </trkpt>
      <trkpt lat="43.53895" lon="1.49617">
        <ele>130.60000610352</ele>
        <time>2020-05-31T14:17:08.000Z</time>
      </trkpt>
      <trkpt lat="43.53897" lon="1.49623">
        <ele>130.60000610352</ele>
        <time>2020-05-31T14:17:09.000Z</time>
      </trkpt>
      <trkpt lat="43.53898" lon="1.49629">
        <ele>130.60000610352</ele>
        <time>2020-05-31T14:17:10.000Z</time>
      </trkpt>
      <trkpt lat="43.53901" lon="1.49643">
        <ele>130.60000610352</ele>
        <time>2020-05-31T14:17:12.000Z</time>
      </trkpt>
      <trkpt lat="43.53904" lon="1.49656">
        <ele>130.60000610352</ele>
        <time>2020-05-31T14:17:14.000Z</time>
      </trkpt>
      <trkpt lat="43.53906" lon="1.49668">
        <ele>130.80000305176</ele>
        <time>2020-05-31T14:17:16.000Z</time>
      </trkpt>
      <trkpt lat="43.53907" lon="1.49673">
        <ele>130.80000305176</ele>
        <time>2020-05-31T14:17:17.000Z</time>
      </trkpt>
      <trkpt lat="43.53907" lon="1.49679">
        <ele>130.60000610352</ele>
        <time>2020-05-31T14:17:18.000Z</time>
      </trkpt>
      <trkpt lat="43.53909" lon="1.49691">
        <ele>130.60000610352</ele>
        <time>2020-05-31T14:17:20.000Z</time>
      </trkpt>
      <trkpt lat="43.5391" lon="1.49699">
        <ele>130.60000610352</ele>
        <time>2020-05-31T14:17:21.000Z</time>
      </trkpt>
      <trkpt lat="43.5391" lon="1.49707">
        <ele>130.60000610352</ele>
        <time>2020-05-31T14:17:22.000Z</time>
      </trkpt>
      <trkpt lat="43.53911" lon="1.4972">
        <ele>130.60000610352</ele>
        <time>2020-05-31T14:17:24.000Z</time>
      </trkpt>
      <trkpt lat="43.53912" lon="1.49733">
        <ele>130.60000610352</ele>
        <time>2020-05-31T14:17:26.000Z</time>
      </trkpt>
      <trkpt lat="43.53913" lon="1.49745">
        <ele>130.60000610352</ele>
        <time>2020-05-31T14:17:28.000Z</time>
      </trkpt>
      <trkpt lat="43.53912" lon="1.49759">
        <ele>130.60000610352</ele>
        <time>2020-05-31T14:17:30.000Z</time>
      </trkpt>
      <trkpt lat="43.53912" lon="1.49766">
        <ele>130.60000610352</ele>
        <time>2020-05-31T14:17:31.000Z</time>
      </trkpt>
      <trkpt lat="43.53912" lon="1.49773">
        <ele>130.39999389648</ele>
        <time>2020-05-31T14:17:32.000Z</time>
      </trkpt>
      <trkpt lat="43.53911" lon="1.49786">
        <ele>130.39999389648</ele>
        <time>2020-05-31T14:17:34.000Z</time>
      </trkpt>
      <trkpt lat="43.5391" lon="1.49797">
        <ele>130.39999389648</ele>
        <time>2020-05-31T14:17:36.000Z</time>
      </trkpt>
      <trkpt lat="43.53909" lon="1.49802">
        <ele>130.39999389648</ele>
        <time>2020-05-31T14:17:37.000Z</time>
      </trkpt>
      <trkpt lat="43.53908" lon="1.49808">
        <ele>130.60000610352</ele>
        <time>2020-05-31T14:17:38.000Z</time>
      </trkpt>
      <trkpt lat="43.53906" lon="1.49819">
        <ele>130.60000610352</ele>
        <time>2020-05-31T14:17:40.000Z</time>
      </trkpt>
      <trkpt lat="43.53904" lon="1.49832">
        <ele>130.19999694824</ele>
        <time>2020-05-31T14:17:42.000Z</time>
      </trkpt>
      <trkpt lat="43.53903" lon="1.49837">
        <ele>130.19999694824</ele>
        <time>2020-05-31T14:17:43.000Z</time>
      </trkpt>
      <trkpt lat="43.53902" lon="1.49844">
        <ele>130.19999694824</ele>
        <time>2020-05-31T14:17:44.000Z</time>
      </trkpt>
      <trkpt lat="43.53899" lon="1.49855">
        <ele>130</ele>
        <time>2020-05-31T14:17:46.000Z</time>
      </trkpt>
      <trkpt lat="43.53897" lon="1.49861">
        <ele>130</ele>
        <time>2020-05-31T14:17:47.000Z</time>
      </trkpt>
      <trkpt lat="43.53896" lon="1.49866">
        <ele>130</ele>
        <time>2020-05-31T14:17:48.000Z</time>
      </trkpt>
      <trkpt lat="43.53893" lon="1.49875">
        <ele>130</ele>
        <time>2020-05-31T14:17:50.000Z</time>
      </trkpt>
      <trkpt lat="43.5389" lon="1.49885">
        <ele>130.19999694824</ele>
        <time>2020-05-31T14:17:52.000Z</time>
      </trkpt>
      <trkpt lat="43.53886" lon="1.49897">
        <ele>130.39999389648</ele>
        <time>2020-05-31T14:17:54.000Z</time>
      </trkpt>
      <trkpt lat="43.53886" lon="1.49902">
        <ele>130.39999389648</ele>
        <time>2020-05-31T14:17:55.000Z</time>
      </trkpt>
      <trkpt lat="43.53884" lon="1.49907">
        <ele>130.39999389648</ele>
        <time>2020-05-31T14:17:56.000Z</time>
      </trkpt>
      <trkpt lat="43.5388" lon="1.49918">
        <ele>130.39999389648</ele>
        <time>2020-05-31T14:17:58.000Z</time>
      </trkpt>
      <trkpt lat="43.53878" lon="1.49923">
        <ele>130.39999389648</ele>
        <time>2020-05-31T14:17:59.000Z</time>
      </trkpt>
      <trkpt lat="43.53876" lon="1.49927">
        <ele>130.39999389648</ele>
        <time>2020-05-31T14:18:00.000Z</time>
      </trkpt>
      <trkpt lat="43.53874" lon="1.49933">
        <ele>130.39999389648</ele>
        <time>2020-05-31T14:18:01.000Z</time>
      </trkpt>
      <trkpt lat="43.53871" lon="1.49939">
        <ele>130.60000610352</ele>
        <time>2020-05-31T14:18:02.000Z</time>
      </trkpt>
      <trkpt lat="43.53865" lon="1.49951">
        <ele>130.60000610352</ele>
        <time>2020-05-31T14:18:04.000Z</time>
      </trkpt>
      <trkpt lat="43.53859" lon="1.49963">
        <ele>130.39999389648</ele>
        <time>2020-05-31T14:18:06.000Z</time>
      </trkpt>
      <trkpt lat="43.53852" lon="1.49974">
        <ele>130.39999389648</ele>
        <time>2020-05-31T14:18:08.000Z</time>
      </trkpt>
      <trkpt lat="43.53845" lon="1.49986">
        <ele>130.19999694824</ele>
        <time>2020-05-31T14:18:10.000Z</time>
      </trkpt>
      <trkpt lat="43.53839" lon="1.49995">
        <ele>130.19999694824</ele>
        <time>2020-05-31T14:18:12.000Z</time>
      </trkpt>
      <trkpt lat="43.53833" lon="1.50004">
        <ele>130.19999694824</ele>
        <time>2020-05-31T14:18:14.000Z</time>
      </trkpt>
      <trkpt lat="43.53827" lon="1.50014">
        <ele>130.19999694824</ele>
        <time>2020-05-31T14:18:16.000Z</time>
      </trkpt>
      <trkpt lat="43.53821" lon="1.50025">
        <ele>130</ele>
        <time>2020-05-31T14:18:18.000Z</time>
      </trkpt>
      <trkpt lat="43.53814" lon="1.50035">
        <ele>129.80000305176</ele>
        <time>2020-05-31T14:18:20.000Z</time>
      </trkpt>
      <trkpt lat="43.53807" lon="1.50044">
        <ele>129.60000610352</ele>
        <time>2020-05-31T14:18:22.000Z</time>
      </trkpt>
      <trkpt lat="43.53802" lon="1.50055">
        <ele>129.60000610352</ele>
        <time>2020-05-31T14:18:24.000Z</time>
      </trkpt>
      <trkpt lat="43.53795" lon="1.50067">
        <ele>129.60000610352</ele>
        <time>2020-05-31T14:18:26.000Z</time>
      </trkpt>
      <trkpt lat="43.53789" lon="1.50079">
        <ele>129.60000610352</ele>
        <time>2020-05-31T14:18:28.000Z</time>
      </trkpt>
      <trkpt lat="43.53783" lon="1.50089">
        <ele>129.60000610352</ele>
        <time>2020-05-31T14:18:30.000Z</time>
      </trkpt>
      <trkpt lat="43.53778" lon="1.501">
        <ele>129.39999389648</ele>
        <time>2020-05-31T14:18:32.000Z</time>
      </trkpt>
      <trkpt lat="43.53773" lon="1.50111">
        <ele>129.39999389648</ele>
        <time>2020-05-31T14:18:34.000Z</time>
      </trkpt>
      <trkpt lat="43.53769" lon="1.5012">
        <ele>129.39999389648</ele>
        <time>2020-05-31T14:18:36.000Z</time>
      </trkpt>
      <trkpt lat="43.53765" lon="1.5013">
        <ele>129.39999389648</ele>
        <time>2020-05-31T14:18:38.000Z</time>
      </trkpt>
      <trkpt lat="43.5376" lon="1.50142">
        <ele>129.39999389648</ele>
        <time>2020-05-31T14:18:40.000Z</time>
      </trkpt>
      <trkpt lat="43.53756" lon="1.50155">
        <ele>129.60000610352</ele>
        <time>2020-05-31T14:18:42.000Z</time>
      </trkpt>
      <trkpt lat="43.5375" lon="1.50167">
        <ele>129.60000610352</ele>
        <time>2020-05-31T14:18:44.000Z</time>
      </trkpt>
      <trkpt lat="43.53747" lon="1.50173">
        <ele>129.60000610352</ele>
        <time>2020-05-31T14:18:45.000Z</time>
      </trkpt>
      <trkpt lat="43.53744" lon="1.50179">
        <ele>129.80000305176</ele>
        <time>2020-05-31T14:18:46.000Z</time>
      </trkpt>
      <trkpt lat="43.53737" lon="1.50189">
        <ele>130</ele>
        <time>2020-05-31T14:18:48.000Z</time>
      </trkpt>
      <trkpt lat="43.53731" lon="1.50198">
        <ele>130</ele>
        <time>2020-05-31T14:18:50.000Z</time>
      </trkpt>
      <trkpt lat="43.53725" lon="1.50207">
        <ele>130</ele>
        <time>2020-05-31T14:18:52.000Z</time>
      </trkpt>
      <trkpt lat="43.5372" lon="1.50215">
        <ele>130</ele>
        <time>2020-05-31T14:18:54.000Z</time>
      </trkpt>
      <trkpt lat="43.53714" lon="1.50222">
        <ele>129.80000305176</ele>
        <time>2020-05-31T14:18:56.000Z</time>
      </trkpt>
      <trkpt lat="43.53708" lon="1.5023">
        <ele>129.80000305176</ele>
        <time>2020-05-31T14:18:58.000Z</time>
      </trkpt>
      <trkpt lat="43.53701" lon="1.50239">
        <ele>129.80000305176</ele>
        <time>2020-05-31T14:19:00.000Z</time>
      </trkpt>
      <trkpt lat="43.53695" lon="1.50247">
        <ele>129.60000610352</ele>
        <time>2020-05-31T14:19:02.000Z</time>
      </trkpt>
      <trkpt lat="43.53689" lon="1.50255">
        <ele>129.60000610352</ele>
        <time>2020-05-31T14:19:04.000Z</time>
      </trkpt>
      <trkpt lat="43.53685" lon="1.5026">
        <ele>129.39999389648</ele>
        <time>2020-05-31T14:19:05.000Z</time>
      </trkpt>
      <trkpt lat="43.53682" lon="1.50264">
        <ele>129.39999389648</ele>
        <time>2020-05-31T14:19:06.000Z</time>
      </trkpt>
      <trkpt lat="43.53675" lon="1.50274">
        <ele>129.39999389648</ele>
        <time>2020-05-31T14:19:08.000Z</time>
      </trkpt>
      <trkpt lat="43.53668" lon="1.50282">
        <ele>129.19999694824</ele>
        <time>2020-05-31T14:19:10.000Z</time>
      </trkpt>
      <trkpt lat="43.53662" lon="1.5029">
        <ele>129</ele>
        <time>2020-05-31T14:19:12.000Z</time>
      </trkpt>
      <trkpt lat="43.53659" lon="1.50293">
        <ele>128.80000305176</ele>
        <time>2020-05-31T14:19:13.000Z</time>
      </trkpt>
      <trkpt lat="43.53656" lon="1.50297">
        <ele>129</ele>
        <time>2020-05-31T14:19:14.000Z</time>
      </trkpt>
      <trkpt lat="43.53649" lon="1.50303">
        <ele>128.80000305176</ele>
        <time>2020-05-31T14:19:16.000Z</time>
      </trkpt>
      <trkpt lat="43.53643" lon="1.50311">
        <ele>128.80000305176</ele>
        <time>2020-05-31T14:19:18.000Z</time>
      </trkpt>
      <trkpt lat="43.53635" lon="1.5032">
        <ele>128.60000610352</ele>
        <time>2020-05-31T14:19:20.000Z</time>
      </trkpt>
      <trkpt lat="43.53628" lon="1.50329">
        <ele>128.60000610352</ele>
        <time>2020-05-31T14:19:22.000Z</time>
      </trkpt>
      <trkpt lat="43.5362" lon="1.50339">
        <ele>128.39999389648</ele>
        <time>2020-05-31T14:19:24.000Z</time>
      </trkpt>
      <trkpt lat="43.53612" lon="1.50347">
        <ele>128.39999389648</ele>
        <time>2020-05-31T14:19:26.000Z</time>
      </trkpt>
      <trkpt lat="43.53605" lon="1.50354">
        <ele>128.39999389648</ele>
        <time>2020-05-31T14:19:28.000Z</time>
      </trkpt>
      <trkpt lat="43.53597" lon="1.50363">
        <ele>128.39999389648</ele>
        <time>2020-05-31T14:19:30.000Z</time>
      </trkpt>
      <trkpt lat="43.53589" lon="1.50369">
        <ele>128.19999694824</ele>
        <time>2020-05-31T14:19:32.000Z</time>
      </trkpt>
      <trkpt lat="43.53581" lon="1.50376">
        <ele>128.19999694824</ele>
        <time>2020-05-31T14:19:34.000Z</time>
      </trkpt>
      <trkpt lat="43.53572" lon="1.50384">
        <ele>128</ele>
        <time>2020-05-31T14:19:36.000Z</time>
      </trkpt>
      <trkpt lat="43.53568" lon="1.50388">
        <ele>128</ele>
        <time>2020-05-31T14:19:37.000Z</time>
      </trkpt>
      <trkpt lat="43.53564" lon="1.50393">
        <ele>127.80000305176</ele>
        <time>2020-05-31T14:19:38.000Z</time>
      </trkpt>
      <trkpt lat="43.53555" lon="1.504">
        <ele>127.80000305176</ele>
        <time>2020-05-31T14:19:40.000Z</time>
      </trkpt>
      <trkpt lat="43.53546" lon="1.50409">
        <ele>127.40000152588</ele>
        <time>2020-05-31T14:19:42.000Z</time>
      </trkpt>
      <trkpt lat="43.53536" lon="1.50418">
        <ele>127.19999694824</ele>
        <time>2020-05-31T14:19:44.000Z</time>
      </trkpt>
      <trkpt lat="43.53526" lon="1.50427">
        <ele>127.19999694824</ele>
        <time>2020-05-31T14:19:46.000Z</time>
      </trkpt>
      <trkpt lat="43.53518" lon="1.50434">
        <ele>127.19999694824</ele>
        <time>2020-05-31T14:19:48.000Z</time>
      </trkpt>
      <trkpt lat="43.5351" lon="1.50441">
        <ele>127.19999694824</ele>
        <time>2020-05-31T14:19:50.000Z</time>
      </trkpt>
      <trkpt lat="43.53507" lon="1.50444">
        <ele>127.19999694824</ele>
        <time>2020-05-31T14:19:51.000Z</time>
      </trkpt>
      <trkpt lat="43.53503" lon="1.50447">
        <ele>127.19999694824</ele>
        <time>2020-05-31T14:19:52.000Z</time>
      </trkpt>
      <trkpt lat="43.53495" lon="1.50454">
        <ele>127.40000152588</ele>
        <time>2020-05-31T14:19:54.000Z</time>
      </trkpt>
      <trkpt lat="43.53486" lon="1.50462">
        <ele>127.59999847412</ele>
        <time>2020-05-31T14:19:56.000Z</time>
      </trkpt>
      <trkpt lat="43.53479" lon="1.5047">
        <ele>127.80000305176</ele>
        <time>2020-05-31T14:19:58.000Z</time>
      </trkpt>
      <trkpt lat="43.5347" lon="1.50478">
        <ele>128</ele>
        <time>2020-05-31T14:20:00.000Z</time>
      </trkpt>
      <trkpt lat="43.53461" lon="1.50486">
        <ele>128</ele>
        <time>2020-05-31T14:20:02.000Z</time>
      </trkpt>
      <trkpt lat="43.53457" lon="1.50489">
        <ele>128</ele>
        <time>2020-05-31T14:20:03.000Z</time>
      </trkpt>
      <trkpt lat="43.53453" lon="1.50493">
        <ele>128</ele>
        <time>2020-05-31T14:20:04.000Z</time>
      </trkpt>
      <trkpt lat="43.53445" lon="1.50499">
        <ele>128</ele>
        <time>2020-05-31T14:20:06.000Z</time>
      </trkpt>
      <trkpt lat="43.53441" lon="1.50501">
        <ele>128</ele>
        <time>2020-05-31T14:20:07.000Z</time>
      </trkpt>
      <trkpt lat="43.53437" lon="1.50504">
        <ele>128</ele>
        <time>2020-05-31T14:20:08.000Z</time>
      </trkpt>
      <trkpt lat="43.5343" lon="1.50508">
        <ele>128</ele>
        <time>2020-05-31T14:20:10.000Z</time>
      </trkpt>
      <trkpt lat="43.53422" lon="1.50513">
        <ele>128.19999694824</ele>
        <time>2020-05-31T14:20:12.000Z</time>
      </trkpt>
      <trkpt lat="43.53414" lon="1.50517">
        <ele>128.19999694824</ele>
        <time>2020-05-31T14:20:14.000Z</time>
      </trkpt>
      <trkpt lat="43.53407" lon="1.50522">
        <ele>128.19999694824</ele>
        <time>2020-05-31T14:20:16.000Z</time>
      </trkpt>
      <trkpt lat="43.53399" lon="1.50526">
        <ele>128.19999694824</ele>
        <time>2020-05-31T14:20:18.000Z</time>
      </trkpt>
      <trkpt lat="43.53394" lon="1.50528">
        <ele>128.19999694824</ele>
        <time>2020-05-31T14:20:19.000Z</time>
      </trkpt>
      <trkpt lat="43.5339" lon="1.5053">
        <ele>128.19999694824</ele>
        <time>2020-05-31T14:20:20.000Z</time>
      </trkpt>
      <trkpt lat="43.53385" lon="1.50531">
        <ele>128.19999694824</ele>
        <time>2020-05-31T14:20:21.000Z</time>
      </trkpt>
      <trkpt lat="43.53381" lon="1.50532">
        <ele>128.19999694824</ele>
        <time>2020-05-31T14:20:22.000Z</time>
      </trkpt>
      <trkpt lat="43.53372" lon="1.50533">
        <ele>128.19999694824</ele>
        <time>2020-05-31T14:20:24.000Z</time>
      </trkpt>
      <trkpt lat="43.53363" lon="1.50534">
        <ele>128.19999694824</ele>
        <time>2020-05-31T14:20:26.000Z</time>
      </trkpt>
      <trkpt lat="43.53353" lon="1.50534">
        <ele>128.39999389648</ele>
        <time>2020-05-31T14:20:28.000Z</time>
      </trkpt>
      <trkpt lat="43.53343" lon="1.50535">
        <ele>128.39999389648</ele>
        <time>2020-05-31T14:20:30.000Z</time>
      </trkpt>
      <trkpt lat="43.53333" lon="1.50537">
        <ele>128.39999389648</ele>
        <time>2020-05-31T14:20:32.000Z</time>
      </trkpt>
      <trkpt lat="43.53322" lon="1.50539">
        <ele>128.39999389648</ele>
        <time>2020-05-31T14:20:34.000Z</time>
      </trkpt>
      <trkpt lat="43.53311" lon="1.50541">
        <ele>128.60000610352</ele>
        <time>2020-05-31T14:20:36.000Z</time>
      </trkpt>
      <trkpt lat="43.53301" lon="1.50544">
        <ele>128.60000610352</ele>
        <time>2020-05-31T14:20:38.000Z</time>
      </trkpt>
      <trkpt lat="43.53289" lon="1.50546">
        <ele>128.60000610352</ele>
        <time>2020-05-31T14:20:40.000Z</time>
      </trkpt>
      <trkpt lat="43.53278" lon="1.50547">
        <ele>128.60000610352</ele>
        <time>2020-05-31T14:20:42.000Z</time>
      </trkpt>
      <trkpt lat="43.53267" lon="1.50548">
        <ele>128.60000610352</ele>
        <time>2020-05-31T14:20:44.000Z</time>
      </trkpt>
      <trkpt lat="43.53257" lon="1.5055">
        <ele>128.39999389648</ele>
        <time>2020-05-31T14:20:46.000Z</time>
      </trkpt>
      <trkpt lat="43.53246" lon="1.50551">
        <ele>128.19999694824</ele>
        <time>2020-05-31T14:20:48.000Z</time>
      </trkpt>
      <trkpt lat="43.53236" lon="1.50553">
        <ele>128.19999694824</ele>
        <time>2020-05-31T14:20:50.000Z</time>
      </trkpt>
      <trkpt lat="43.53226" lon="1.50555">
        <ele>128.19999694824</ele>
        <time>2020-05-31T14:20:52.000Z</time>
      </trkpt>
      <trkpt lat="43.53216" lon="1.50559">
        <ele>128.19999694824</ele>
        <time>2020-05-31T14:20:54.000Z</time>
      </trkpt>
      <trkpt lat="43.53205" lon="1.50562">
        <ele>128.19999694824</ele>
        <time>2020-05-31T14:20:56.000Z</time>
      </trkpt>
      <trkpt lat="43.53194" lon="1.50566">
        <ele>128.19999694824</ele>
        <time>2020-05-31T14:20:58.000Z</time>
      </trkpt>
      <trkpt lat="43.53183" lon="1.5057">
        <ele>128.19999694824</ele>
        <time>2020-05-31T14:21:00.000Z</time>
      </trkpt>
      <trkpt lat="43.53173" lon="1.50574">
        <ele>128.19999694824</ele>
        <time>2020-05-31T14:21:02.000Z</time>
      </trkpt>
      <trkpt lat="43.53164" lon="1.50578">
        <ele>128</ele>
        <time>2020-05-31T14:21:04.000Z</time>
      </trkpt>
      <trkpt lat="43.53155" lon="1.50581">
        <ele>127.80000305176</ele>
        <time>2020-05-31T14:21:06.000Z</time>
      </trkpt>
      <trkpt lat="43.53151" lon="1.50583">
        <ele>127.80000305176</ele>
        <time>2020-05-31T14:21:07.000Z</time>
      </trkpt>
      <trkpt lat="43.53147" lon="1.50585">
        <ele>127.80000305176</ele>
        <time>2020-05-31T14:21:08.000Z</time>
      </trkpt>
      <trkpt lat="43.53139" lon="1.5059">
        <ele>127.80000305176</ele>
        <time>2020-05-31T14:21:10.000Z</time>
      </trkpt>
      <trkpt lat="43.53132" lon="1.50596">
        <ele>127.59999847412</ele>
        <time>2020-05-31T14:21:12.000Z</time>
      </trkpt>
      <trkpt lat="43.53127" lon="1.50599">
        <ele>127.59999847412</ele>
        <time>2020-05-31T14:21:13.000Z</time>
      </trkpt>
      <trkpt lat="43.53122" lon="1.50601">
        <ele>127.40000152588</ele>
        <time>2020-05-31T14:21:14.000Z</time>
      </trkpt>
      <trkpt lat="43.53118" lon="1.50604">
        <ele>127.19999694824</ele>
        <time>2020-05-31T14:21:15.000Z</time>
      </trkpt>
      <trkpt lat="43.53113" lon="1.50606">
        <ele>127.19999694824</ele>
        <time>2020-05-31T14:21:16.000Z</time>
      </trkpt>
      <trkpt lat="43.53103" lon="1.50611">
        <ele>127.19999694824</ele>
        <time>2020-05-31T14:21:18.000Z</time>
      </trkpt>
      <trkpt lat="43.53093" lon="1.50616">
        <ele>127.19999694824</ele>
        <time>2020-05-31T14:21:20.000Z</time>
      </trkpt>
      <trkpt lat="43.53083" lon="1.50623">
        <ele>127</ele>
        <time>2020-05-31T14:21:22.000Z</time>
      </trkpt>
      <trkpt lat="43.53074" lon="1.50629">
        <ele>127.19999694824</ele>
        <time>2020-05-31T14:21:24.000Z</time>
      </trkpt>
      <trkpt lat="43.53064" lon="1.50635">
        <ele>127.19999694824</ele>
        <time>2020-05-31T14:21:26.000Z</time>
      </trkpt>
      <trkpt lat="43.53055" lon="1.50641">
        <ele>127.19999694824</ele>
        <time>2020-05-31T14:21:28.000Z</time>
      </trkpt>
      <trkpt lat="43.53046" lon="1.50648">
        <ele>127.19999694824</ele>
        <time>2020-05-31T14:21:30.000Z</time>
      </trkpt>
      <trkpt lat="43.53038" lon="1.50655">
        <ele>127.19999694824</ele>
        <time>2020-05-31T14:21:32.000Z</time>
      </trkpt>
      <trkpt lat="43.53029" lon="1.50662">
        <ele>127.80000305176</ele>
        <time>2020-05-31T14:21:34.000Z</time>
      </trkpt>
      <trkpt lat="43.53025" lon="1.50666">
        <ele>128.19999694824</ele>
        <time>2020-05-31T14:21:35.000Z</time>
      </trkpt>
      <trkpt lat="43.53021" lon="1.50669">
        <ele>128.60000610352</ele>
        <time>2020-05-31T14:21:36.000Z</time>
      </trkpt>
      <trkpt lat="43.53017" lon="1.50673">
        <ele>129.19999694824</ele>
        <time>2020-05-31T14:21:37.000Z</time>
      </trkpt>
      <trkpt lat="43.53013" lon="1.50677">
        <ele>129.60000610352</ele>
        <time>2020-05-31T14:21:38.000Z</time>
      </trkpt>
      <trkpt lat="43.53005" lon="1.50686">
        <ele>130</ele>
        <time>2020-05-31T14:21:40.000Z</time>
      </trkpt>
      <trkpt lat="43.52997" lon="1.50696">
        <ele>130.19999694824</ele>
        <time>2020-05-31T14:21:42.000Z</time>
      </trkpt>
      <trkpt lat="43.52989" lon="1.50705">
        <ele>130.19999694824</ele>
        <time>2020-05-31T14:21:44.000Z</time>
      </trkpt>
      <trkpt lat="43.5298" lon="1.50714">
        <ele>130.19999694824</ele>
        <time>2020-05-31T14:21:46.000Z</time>
      </trkpt>
      <trkpt lat="43.52971" lon="1.50725">
        <ele>129.80000305176</ele>
        <time>2020-05-31T14:21:48.000Z</time>
      </trkpt>
      <trkpt lat="43.52962" lon="1.50734">
        <ele>129.60000610352</ele>
        <time>2020-05-31T14:21:50.000Z</time>
      </trkpt>
      <trkpt lat="43.52954" lon="1.50743">
        <ele>129.39999389648</ele>
        <time>2020-05-31T14:21:52.000Z</time>
      </trkpt>
      <trkpt lat="43.52946" lon="1.5075">
        <ele>129.19999694824</ele>
        <time>2020-05-31T14:21:54.000Z</time>
      </trkpt>
      <trkpt lat="43.52938" lon="1.50761">
        <ele>129</ele>
        <time>2020-05-31T14:21:56.000Z</time>
      </trkpt>
      <trkpt lat="43.52929" lon="1.50771">
        <ele>129</ele>
        <time>2020-05-31T14:21:58.000Z</time>
      </trkpt>
      <trkpt lat="43.52921" lon="1.5078">
        <ele>129</ele>
        <time>2020-05-31T14:22:00.000Z</time>
      </trkpt>
      <trkpt lat="43.52912" lon="1.50789">
        <ele>129</ele>
        <time>2020-05-31T14:22:02.000Z</time>
      </trkpt>
      <trkpt lat="43.52902" lon="1.50797">
        <ele>129</ele>
        <time>2020-05-31T14:22:04.000Z</time>
      </trkpt>
      <trkpt lat="43.52893" lon="1.50806">
        <ele>129</ele>
        <time>2020-05-31T14:22:06.000Z</time>
      </trkpt>
      <trkpt lat="43.52882" lon="1.50814">
        <ele>129</ele>
        <time>2020-05-31T14:22:08.000Z</time>
      </trkpt>
      <trkpt lat="43.52872" lon="1.50821">
        <ele>129</ele>
        <time>2020-05-31T14:22:10.000Z</time>
      </trkpt>
      <trkpt lat="43.52862" lon="1.50828">
        <ele>128.80000305176</ele>
        <time>2020-05-31T14:22:12.000Z</time>
      </trkpt>
      <trkpt lat="43.52851" lon="1.50836">
        <ele>128.80000305176</ele>
        <time>2020-05-31T14:22:14.000Z</time>
      </trkpt>
      <trkpt lat="43.52841" lon="1.50842">
        <ele>128.60000610352</ele>
        <time>2020-05-31T14:22:16.000Z</time>
      </trkpt>
      <trkpt lat="43.52832" lon="1.50848">
        <ele>128.60000610352</ele>
        <time>2020-05-31T14:22:18.000Z</time>
      </trkpt>
      <trkpt lat="43.52827" lon="1.5085">
        <ele>128.60000610352</ele>
        <time>2020-05-31T14:22:19.000Z</time>
      </trkpt>
      <trkpt lat="43.52822" lon="1.50853">
        <ele>128.60000610352</ele>
        <time>2020-05-31T14:22:20.000Z</time>
      </trkpt>
      <trkpt lat="43.52811" lon="1.50859">
        <ele>128.60000610352</ele>
        <time>2020-05-31T14:22:22.000Z</time>
      </trkpt>
      <trkpt lat="43.528" lon="1.50865">
        <ele>128.39999389648</ele>
        <time>2020-05-31T14:22:24.000Z</time>
      </trkpt>
      <trkpt lat="43.52795" lon="1.50868">
        <ele>128.39999389648</ele>
        <time>2020-05-31T14:22:25.000Z</time>
      </trkpt>
      <trkpt lat="43.52791" lon="1.50872">
        <ele>128.39999389648</ele>
        <time>2020-05-31T14:22:26.000Z</time>
      </trkpt>
      <trkpt lat="43.52781" lon="1.5088">
        <ele>128.60000610352</ele>
        <time>2020-05-31T14:22:28.000Z</time>
      </trkpt>
      <trkpt lat="43.52772" lon="1.50888">
        <ele>128.60000610352</ele>
        <time>2020-05-31T14:22:30.000Z</time>
      </trkpt>
      <trkpt lat="43.52763" lon="1.50897">
        <ele>128.60000610352</ele>
        <time>2020-05-31T14:22:32.000Z</time>
      </trkpt>
      <trkpt lat="43.52754" lon="1.50907">
        <ele>128.60000610352</ele>
        <time>2020-05-31T14:22:34.000Z</time>
      </trkpt>
      <trkpt lat="43.52746" lon="1.50917">
        <ele>128.60000610352</ele>
        <time>2020-05-31T14:22:36.000Z</time>
      </trkpt>
      <trkpt lat="43.52738" lon="1.50929">
        <ele>128.60000610352</ele>
        <time>2020-05-31T14:22:38.000Z</time>
      </trkpt>
      <trkpt lat="43.52731" lon="1.50941">
        <ele>128.80000305176</ele>
        <time>2020-05-31T14:22:40.000Z</time>
      </trkpt>
      <trkpt lat="43.52725" lon="1.50953">
        <ele>128.80000305176</ele>
        <time>2020-05-31T14:22:42.000Z</time>
      </trkpt>
      <trkpt lat="43.52719" lon="1.50963">
        <ele>128.80000305176</ele>
        <time>2020-05-31T14:22:44.000Z</time>
      </trkpt>
      <trkpt lat="43.52712" lon="1.50974">
        <ele>129</ele>
        <time>2020-05-31T14:22:46.000Z</time>
      </trkpt>
      <trkpt lat="43.52709" lon="1.5098">
        <ele>129</ele>
        <time>2020-05-31T14:22:47.000Z</time>
      </trkpt>
      <trkpt lat="43.52707" lon="1.50986">
        <ele>129</ele>
        <time>2020-05-31T14:22:48.000Z</time>
      </trkpt>
      <trkpt lat="43.52705" lon="1.50991">
        <ele>129</ele>
        <time>2020-05-31T14:22:49.000Z</time>
      </trkpt>
      <trkpt lat="43.52702" lon="1.50998">
        <ele>129</ele>
        <time>2020-05-31T14:22:50.000Z</time>
      </trkpt>
      <trkpt lat="43.52697" lon="1.51011">
        <ele>129</ele>
        <time>2020-05-31T14:22:52.000Z</time>
      </trkpt>
      <trkpt lat="43.52695" lon="1.51018">
        <ele>129</ele>
        <time>2020-05-31T14:22:53.000Z</time>
      </trkpt>
      <trkpt lat="43.52693" lon="1.51024">
        <ele>129</ele>
        <time>2020-05-31T14:22:54.000Z</time>
      </trkpt>
      <trkpt lat="43.52689" lon="1.51036">
        <ele>129</ele>
        <time>2020-05-31T14:22:56.000Z</time>
      </trkpt>
      <trkpt lat="43.52686" lon="1.51047">
        <ele>128.80000305176</ele>
        <time>2020-05-31T14:22:58.000Z</time>
      </trkpt>
      <trkpt lat="43.52684" lon="1.51053">
        <ele>128.60000610352</ele>
        <time>2020-05-31T14:22:59.000Z</time>
      </trkpt>
      <trkpt lat="43.52682" lon="1.51059">
        <ele>128.60000610352</ele>
        <time>2020-05-31T14:23:00.000Z</time>
      </trkpt>
      <trkpt lat="43.5268" lon="1.51065">
        <ele>128.80000305176</ele>
        <time>2020-05-31T14:23:01.000Z</time>
      </trkpt>
      <trkpt lat="43.52679" lon="1.51072">
        <ele>128.60000610352</ele>
        <time>2020-05-31T14:23:02.000Z</time>
      </trkpt>
      <trkpt lat="43.52675" lon="1.51085">
        <ele>128.60000610352</ele>
        <time>2020-05-31T14:23:04.000Z</time>
      </trkpt>
      <trkpt lat="43.52672" lon="1.51099">
        <ele>128.39999389648</ele>
        <time>2020-05-31T14:23:06.000Z</time>
      </trkpt>
      <trkpt lat="43.52668" lon="1.51113">
        <ele>128.19999694824</ele>
        <time>2020-05-31T14:23:08.000Z</time>
      </trkpt>
      <trkpt lat="43.52665" lon="1.51127">
        <ele>128.19999694824</ele>
        <time>2020-05-31T14:23:10.000Z</time>
      </trkpt>
      <trkpt lat="43.52661" lon="1.51146">
        <ele>128.39999389648</ele>
        <time>2020-05-31T14:23:12.000Z</time>
      </trkpt>
      <trkpt lat="43.52659" lon="1.51163">
        <ele>128.19999694824</ele>
        <time>2020-05-31T14:23:14.000Z</time>
      </trkpt>
      <trkpt lat="43.52656" lon="1.51179">
        <ele>128.19999694824</ele>
        <time>2020-05-31T14:23:16.000Z</time>
      </trkpt>
      <trkpt lat="43.52654" lon="1.51195">
        <ele>128</ele>
        <time>2020-05-31T14:23:18.000Z</time>
      </trkpt>
      <trkpt lat="43.52653" lon="1.5121">
        <ele>128.19999694824</ele>
        <time>2020-05-31T14:23:20.000Z</time>
      </trkpt>
      <trkpt lat="43.52652" lon="1.51216">
        <ele>128.19999694824</ele>
        <time>2020-05-31T14:23:21.000Z</time>
      </trkpt>
      <trkpt lat="43.52651" lon="1.51223">
        <ele>128.19999694824</ele>
        <time>2020-05-31T14:23:22.000Z</time>
      </trkpt>
      <trkpt lat="43.5265" lon="1.51238">
        <ele>128.60000610352</ele>
        <time>2020-05-31T14:23:24.000Z</time>
      </trkpt>
      <trkpt lat="43.52649" lon="1.51251">
        <ele>129</ele>
        <time>2020-05-31T14:23:26.000Z</time>
      </trkpt>
      <trkpt lat="43.52649" lon="1.51265">
        <ele>129.19999694824</ele>
        <time>2020-05-31T14:23:28.000Z</time>
      </trkpt>
      <trkpt lat="43.52649" lon="1.51277">
        <ele>129.39999389648</ele>
        <time>2020-05-31T14:23:30.000Z</time>
      </trkpt>
      <trkpt lat="43.52649" lon="1.5129">
        <ele>129.39999389648</ele>
        <time>2020-05-31T14:23:32.000Z</time>
      </trkpt>
      <trkpt lat="43.52648" lon="1.51302">
        <ele>129.39999389648</ele>
        <time>2020-05-31T14:23:34.000Z</time>
      </trkpt>
      <trkpt lat="43.52648" lon="1.51313">
        <ele>129.80000305176</ele>
        <time>2020-05-31T14:23:36.000Z</time>
      </trkpt>
      <trkpt lat="43.52648" lon="1.51324">
        <ele>130.39999389648</ele>
        <time>2020-05-31T14:23:38.000Z</time>
      </trkpt>
      <trkpt lat="43.52648" lon="1.51334">
        <ele>130.60000610352</ele>
        <time>2020-05-31T14:23:40.000Z</time>
      </trkpt>
      <trkpt lat="43.52647" lon="1.51344">
        <ele>130.80000305176</ele>
        <time>2020-05-31T14:23:42.000Z</time>
      </trkpt>
      <trkpt lat="43.52647" lon="1.51355">
        <ele>130.80000305176</ele>
        <time>2020-05-31T14:23:44.000Z</time>
      </trkpt>
      <trkpt lat="43.52646" lon="1.51367">
        <ele>130.80000305176</ele>
        <time>2020-05-31T14:23:46.000Z</time>
      </trkpt>
      <trkpt lat="43.52644" lon="1.51379">
        <ele>130.60000610352</ele>
        <time>2020-05-31T14:23:48.000Z</time>
      </trkpt>
      <trkpt lat="43.52643" lon="1.51391">
        <ele>130.60000610352</ele>
        <time>2020-05-31T14:23:50.000Z</time>
      </trkpt>
      <trkpt lat="43.52642" lon="1.51404">
        <ele>130.39999389648</ele>
        <time>2020-05-31T14:23:52.000Z</time>
      </trkpt>
      <trkpt lat="43.52641" lon="1.51417">
        <ele>130</ele>
        <time>2020-05-31T14:23:54.000Z</time>
      </trkpt>
      <trkpt lat="43.5264" lon="1.5143">
        <ele>129.80000305176</ele>
        <time>2020-05-31T14:23:56.000Z</time>
      </trkpt>
      <trkpt lat="43.52639" lon="1.51442">
        <ele>129.60000610352</ele>
        <time>2020-05-31T14:23:58.000Z</time>
      </trkpt>
      <trkpt lat="43.52638" lon="1.51455">
        <ele>129.60000610352</ele>
        <time>2020-05-31T14:24:00.000Z</time>
      </trkpt>
      <trkpt lat="43.52636" lon="1.51468">
        <ele>129.39999389648</ele>
        <time>2020-05-31T14:24:02.000Z</time>
      </trkpt>
      <trkpt lat="43.52635" lon="1.5148">
        <ele>129.19999694824</ele>
        <time>2020-05-31T14:24:04.000Z</time>
      </trkpt>
      <trkpt lat="43.52633" lon="1.51492">
        <ele>129.19999694824</ele>
        <time>2020-05-31T14:24:06.000Z</time>
      </trkpt>
      <trkpt lat="43.52632" lon="1.51505">
        <ele>129.39999389648</ele>
        <time>2020-05-31T14:24:08.000Z</time>
      </trkpt>
      <trkpt lat="43.5263" lon="1.51518">
        <ele>129.60000610352</ele>
        <time>2020-05-31T14:24:10.000Z</time>
      </trkpt>
      <trkpt lat="43.52628" lon="1.5153">
        <ele>129.60000610352</ele>
        <time>2020-05-31T14:24:12.000Z</time>
      </trkpt>
      <trkpt lat="43.52627" lon="1.51542">
        <ele>129.60000610352</ele>
        <time>2020-05-31T14:24:14.000Z</time>
      </trkpt>
      <trkpt lat="43.52624" lon="1.51555">
        <ele>129.60000610352</ele>
        <time>2020-05-31T14:24:16.000Z</time>
      </trkpt>
      <trkpt lat="43.52619" lon="1.51565">
        <ele>129.39999389648</ele>
        <time>2020-05-31T14:24:18.000Z</time>
      </trkpt>
      <trkpt lat="43.52617" lon="1.5157">
        <ele>129.39999389648</ele>
        <time>2020-05-31T14:24:19.000Z</time>
      </trkpt>
      <trkpt lat="43.52615" lon="1.51576">
        <ele>129.39999389648</ele>
        <time>2020-05-31T14:24:20.000Z</time>
      </trkpt>
      <trkpt lat="43.52613" lon="1.51589">
        <ele>129.39999389648</ele>
        <time>2020-05-31T14:24:22.000Z</time>
      </trkpt>
      <trkpt lat="43.5261" lon="1.516">
        <ele>129.39999389648</ele>
        <time>2020-05-31T14:24:24.000Z</time>
      </trkpt>
      <trkpt lat="43.52607" lon="1.51613">
        <ele>129.60000610352</ele>
        <time>2020-05-31T14:24:26.000Z</time>
      </trkpt>
      <trkpt lat="43.52604" lon="1.51625">
        <ele>129.39999389648</ele>
        <time>2020-05-31T14:24:28.000Z</time>
      </trkpt>
      <trkpt lat="43.526" lon="1.51638">
        <ele>129.19999694824</ele>
        <time>2020-05-31T14:24:30.000Z</time>
      </trkpt>
      <trkpt lat="43.52596" lon="1.5165">
        <ele>129.19999694824</ele>
        <time>2020-05-31T14:24:32.000Z</time>
      </trkpt>
      <trkpt lat="43.52593" lon="1.51662">
        <ele>129</ele>
        <time>2020-05-31T14:24:34.000Z</time>
      </trkpt>
      <trkpt lat="43.52589" lon="1.51672">
        <ele>129.19999694824</ele>
        <time>2020-05-31T14:24:36.000Z</time>
      </trkpt>
      <trkpt lat="43.52585" lon="1.51681">
        <ele>129</ele>
        <time>2020-05-31T14:24:38.000Z</time>
      </trkpt>
      <trkpt lat="43.52581" lon="1.51688">
        <ele>129</ele>
        <time>2020-05-31T14:24:40.000Z</time>
      </trkpt>
      <trkpt lat="43.5258" lon="1.51692">
        <ele>129</ele>
        <time>2020-05-31T14:24:41.000Z</time>
      </trkpt>
      <trkpt lat="43.52578" lon="1.51695">
        <ele>129</ele>
        <time>2020-05-31T14:24:42.000Z</time>
      </trkpt>
      <trkpt lat="43.52575" lon="1.51702">
        <ele>129</ele>
        <time>2020-05-31T14:24:44.000Z</time>
      </trkpt>
      <trkpt lat="43.5257" lon="1.5171">
        <ele>128.80000305176</ele>
        <time>2020-05-31T14:24:46.000Z</time>
      </trkpt>
      <trkpt lat="43.52566" lon="1.51717">
        <ele>128.60000610352</ele>
        <time>2020-05-31T14:24:48.000Z</time>
      </trkpt>
      <trkpt lat="43.52564" lon="1.5172">
        <ele>128.60000610352</ele>
        <time>2020-05-31T14:24:49.000Z</time>
      </trkpt>
      <trkpt lat="43.52562" lon="1.51723">
        <ele>128.60000610352</ele>
        <time>2020-05-31T14:24:50.000Z</time>
      </trkpt>
      <trkpt lat="43.52557" lon="1.51731">
        <ele>128.60000610352</ele>
        <time>2020-05-31T14:24:52.000Z</time>
      </trkpt>
      <trkpt lat="43.52554" lon="1.51736">
        <ele>128.60000610352</ele>
        <time>2020-05-31T14:24:53.000Z</time>
      </trkpt>
      <trkpt lat="43.52551" lon="1.51741">
        <ele>128.39999389648</ele>
        <time>2020-05-31T14:24:54.000Z</time>
      </trkpt>
      <trkpt lat="43.52545" lon="1.51751">
        <ele>128.39999389648</ele>
        <time>2020-05-31T14:24:56.000Z</time>
      </trkpt>
      <trkpt lat="43.5254" lon="1.51759">
        <ele>128.19999694824</ele>
        <time>2020-05-31T14:24:58.000Z</time>
      </trkpt>
      <trkpt lat="43.52534" lon="1.51767">
        <ele>128.19999694824</ele>
        <time>2020-05-31T14:25:00.000Z</time>
      </trkpt>
      <trkpt lat="43.52527" lon="1.51775">
        <ele>128.19999694824</ele>
        <time>2020-05-31T14:25:02.000Z</time>
      </trkpt>
      <trkpt lat="43.52519" lon="1.51786">
        <ele>128.19999694824</ele>
        <time>2020-05-31T14:25:04.000Z</time>
      </trkpt>
      <trkpt lat="43.52512" lon="1.51795">
        <ele>128.39999389648</ele>
        <time>2020-05-31T14:25:06.000Z</time>
      </trkpt>
      <trkpt lat="43.52505" lon="1.51803">
        <ele>128.80000305176</ele>
        <time>2020-05-31T14:25:08.000Z</time>
      </trkpt>
      <trkpt lat="43.52498" lon="1.51811">
        <ele>129.39999389648</ele>
        <time>2020-05-31T14:25:10.000Z</time>
      </trkpt>
      <trkpt lat="43.52489" lon="1.51821">
        <ele>129.60000610352</ele>
        <time>2020-05-31T14:25:12.000Z</time>
      </trkpt>
      <trkpt lat="43.52481" lon="1.51829">
        <ele>129.80000305176</ele>
        <time>2020-05-31T14:25:14.000Z</time>
      </trkpt>
      <trkpt lat="43.52473" lon="1.51838">
        <ele>129.80000305176</ele>
        <time>2020-05-31T14:25:16.000Z</time>
      </trkpt>
      <trkpt lat="43.52465" lon="1.51844">
        <ele>130</ele>
        <time>2020-05-31T14:25:18.000Z</time>
      </trkpt>
      <trkpt lat="43.52458" lon="1.51849">
        <ele>130</ele>
        <time>2020-05-31T14:25:20.000Z</time>
      </trkpt>
      <trkpt lat="43.52451" lon="1.51854">
        <ele>130</ele>
        <time>2020-05-31T14:25:22.000Z</time>
      </trkpt>
      <trkpt lat="43.52444" lon="1.51858">
        <ele>130.19999694824</ele>
        <time>2020-05-31T14:25:24.000Z</time>
      </trkpt>
      <trkpt lat="43.5244" lon="1.5186">
        <ele>130.19999694824</ele>
        <time>2020-05-31T14:25:25.000Z</time>
      </trkpt>
      <trkpt lat="43.52437" lon="1.51863">
        <ele>130.19999694824</ele>
        <time>2020-05-31T14:25:26.000Z</time>
      </trkpt>
      <trkpt lat="43.52429" lon="1.51867">
        <ele>130.80000305176</ele>
        <time>2020-05-31T14:25:28.000Z</time>
      </trkpt>
      <trkpt lat="43.52421" lon="1.51869">
        <ele>130.80000305176</ele>
        <time>2020-05-31T14:25:30.000Z</time>
      </trkpt>
      <trkpt lat="43.52414" lon="1.51871">
        <ele>131.19999694824</ele>
        <time>2020-05-31T14:25:32.000Z</time>
      </trkpt>
      <trkpt lat="43.52411" lon="1.51871">
        <ele>131.39999389648</ele>
        <time>2020-05-31T14:25:33.000Z</time>
      </trkpt>
      <trkpt lat="43.52409" lon="1.51872">
        <ele>131.80000305176</ele>
        <time>2020-05-31T14:25:34.000Z</time>
      </trkpt>
      <trkpt lat="43.52403" lon="1.51874">
        <ele>132.19999694824</ele>
        <time>2020-05-31T14:25:36.000Z</time>
      </trkpt>
      <trkpt lat="43.52399" lon="1.51875">
        <ele>132.60000610352</ele>
        <time>2020-05-31T14:25:37.000Z</time>
      </trkpt>
      <trkpt lat="43.52395" lon="1.51876">
        <ele>132.80000305176</ele>
        <time>2020-05-31T14:25:38.000Z</time>
      </trkpt>
      <trkpt lat="43.52387" lon="1.51879">
        <ele>133.19999694824</ele>
        <time>2020-05-31T14:25:40.000Z</time>
      </trkpt>
      <trkpt lat="43.52378" lon="1.51882">
        <ele>133.19999694824</ele>
        <time>2020-05-31T14:25:42.000Z</time>
      </trkpt>
      <trkpt lat="43.52369" lon="1.51884">
        <ele>133.39999389648</ele>
        <time>2020-05-31T14:25:44.000Z</time>
      </trkpt>
      <trkpt lat="43.5236" lon="1.51885">
        <ele>133.60000610352</ele>
        <time>2020-05-31T14:25:46.000Z</time>
      </trkpt>
      <trkpt lat="43.52356" lon="1.51886">
        <ele>133.60000610352</ele>
        <time>2020-05-31T14:25:47.000Z</time>
      </trkpt>
      <trkpt lat="43.52352" lon="1.51886">
        <ele>133.60000610352</ele>
        <time>2020-05-31T14:25:48.000Z</time>
      </trkpt>
      <trkpt lat="43.52345" lon="1.51889">
        <ele>133.80000305176</ele>
        <time>2020-05-31T14:25:50.000Z</time>
      </trkpt>
      <trkpt lat="43.52338" lon="1.51893">
        <ele>133.80000305176</ele>
        <time>2020-05-31T14:25:52.000Z</time>
      </trkpt>
      <trkpt lat="43.5233" lon="1.51898">
        <ele>133.80000305176</ele>
        <time>2020-05-31T14:25:54.000Z</time>
      </trkpt>
      <trkpt lat="43.52321" lon="1.51903">
        <ele>133.80000305176</ele>
        <time>2020-05-31T14:25:56.000Z</time>
      </trkpt>
      <trkpt lat="43.52313" lon="1.51908">
        <ele>134</ele>
        <time>2020-05-31T14:25:58.000Z</time>
      </trkpt>
      <trkpt lat="43.52304" lon="1.51912">
        <ele>134</ele>
        <time>2020-05-31T14:26:00.000Z</time>
      </trkpt>
      <trkpt lat="43.52296" lon="1.51915">
        <ele>134</ele>
        <time>2020-05-31T14:26:02.000Z</time>
      </trkpt>
      <trkpt lat="43.52288" lon="1.51918">
        <ele>134.19999694824</ele>
        <time>2020-05-31T14:26:04.000Z</time>
      </trkpt>
      <trkpt lat="43.52281" lon="1.51921">
        <ele>134.19999694824</ele>
        <time>2020-05-31T14:26:06.000Z</time>
      </trkpt>
      <trkpt lat="43.52274" lon="1.51924">
        <ele>134.19999694824</ele>
        <time>2020-05-31T14:26:08.000Z</time>
      </trkpt>
      <trkpt lat="43.5227" lon="1.51926">
        <ele>134.60000610352</ele>
        <time>2020-05-31T14:26:09.000Z</time>
      </trkpt>
      <trkpt lat="43.52265" lon="1.51928">
        <ele>134.80000305176</ele>
        <time>2020-05-31T14:26:10.000Z</time>
      </trkpt>
      <trkpt lat="43.52256" lon="1.51931">
        <ele>135</ele>
        <time>2020-05-31T14:26:12.000Z</time>
      </trkpt>
      <trkpt lat="43.52251" lon="1.51933">
        <ele>135</ele>
        <time>2020-05-31T14:26:13.000Z</time>
      </trkpt>
      <trkpt lat="43.52247" lon="1.51935">
        <ele>135</ele>
        <time>2020-05-31T14:26:14.000Z</time>
      </trkpt>
      <trkpt lat="43.52238" lon="1.51938">
        <ele>135</ele>
        <time>2020-05-31T14:26:16.000Z</time>
      </trkpt>
      <trkpt lat="43.52229" lon="1.51941">
        <ele>135</ele>
        <time>2020-05-31T14:26:18.000Z</time>
      </trkpt>
      <trkpt lat="43.52219" lon="1.51944">
        <ele>135</ele>
        <time>2020-05-31T14:26:20.000Z</time>
      </trkpt>
      <trkpt lat="43.5221" lon="1.51946">
        <ele>135</ele>
        <time>2020-05-31T14:26:22.000Z</time>
      </trkpt>
      <trkpt lat="43.52203" lon="1.51947">
        <ele>134.80000305176</ele>
        <time>2020-05-31T14:26:24.000Z</time>
      </trkpt>
      <trkpt lat="43.522" lon="1.51947">
        <ele>134.80000305176</ele>
        <time>2020-05-31T14:26:25.000Z</time>
      </trkpt>
      <trkpt lat="43.52196" lon="1.51947">
        <ele>134.80000305176</ele>
        <time>2020-05-31T14:26:26.000Z</time>
      </trkpt>
      <trkpt lat="43.52189" lon="1.51945">
        <ele>134.80000305176</ele>
        <time>2020-05-31T14:26:28.000Z</time>
      </trkpt>
      <trkpt lat="43.52185" lon="1.51944">
        <ele>134.80000305176</ele>
        <time>2020-05-31T14:26:29.000Z</time>
      </trkpt>
      <trkpt lat="43.52181" lon="1.51944">
        <ele>134.80000305176</ele>
        <time>2020-05-31T14:26:30.000Z</time>
      </trkpt>
      <trkpt lat="43.52172" lon="1.51942">
        <ele>134.80000305176</ele>
        <time>2020-05-31T14:26:32.000Z</time>
      </trkpt>
      <trkpt lat="43.52162" lon="1.51941">
        <ele>134.80000305176</ele>
        <time>2020-05-31T14:26:34.000Z</time>
      </trkpt>
      <trkpt lat="43.52152" lon="1.5194">
        <ele>134.60000610352</ele>
        <time>2020-05-31T14:26:36.000Z</time>
      </trkpt>
      <trkpt lat="43.52143" lon="1.51938">
        <ele>134.19999694824</ele>
        <time>2020-05-31T14:26:38.000Z</time>
      </trkpt>
      <trkpt lat="43.52138" lon="1.51939">
        <ele>134.19999694824</ele>
        <time>2020-05-31T14:26:39.000Z</time>
      </trkpt>
      <trkpt lat="43.52134" lon="1.51939">
        <ele>134.19999694824</ele>
        <time>2020-05-31T14:26:40.000Z</time>
      </trkpt>
      <trkpt lat="43.52125" lon="1.5194">
        <ele>134</ele>
        <time>2020-05-31T14:26:42.000Z</time>
      </trkpt>
      <trkpt lat="43.52116" lon="1.51943">
        <ele>134</ele>
        <time>2020-05-31T14:26:44.000Z</time>
      </trkpt>
      <trkpt lat="43.52111" lon="1.51946">
        <ele>134</ele>
        <time>2020-05-31T14:26:45.000Z</time>
      </trkpt>
      <trkpt lat="43.52106" lon="1.51949">
        <ele>133.80000305176</ele>
        <time>2020-05-31T14:26:46.000Z</time>
      </trkpt>
      <trkpt lat="43.52096" lon="1.51956">
        <ele>133.80000305176</ele>
        <time>2020-05-31T14:26:48.000Z</time>
      </trkpt>
      <trkpt lat="43.52086" lon="1.51962">
        <ele>133.80000305176</ele>
        <time>2020-05-31T14:26:50.000Z</time>
      </trkpt>
      <trkpt lat="43.52077" lon="1.51969">
        <ele>133.80000305176</ele>
        <time>2020-05-31T14:26:52.000Z</time>
      </trkpt>
      <trkpt lat="43.52067" lon="1.51975">
        <ele>133.80000305176</ele>
        <time>2020-05-31T14:26:54.000Z</time>
      </trkpt>
      <trkpt lat="43.52059" lon="1.51981">
        <ele>133.80000305176</ele>
        <time>2020-05-31T14:26:56.000Z</time>
      </trkpt>
      <trkpt lat="43.52051" lon="1.51987">
        <ele>134</ele>
        <time>2020-05-31T14:26:58.000Z</time>
      </trkpt>
      <trkpt lat="43.52043" lon="1.5199">
        <ele>134</ele>
        <time>2020-05-31T14:27:00.000Z</time>
      </trkpt>
      <trkpt lat="43.52036" lon="1.51993">
        <ele>134.19999694824</ele>
        <time>2020-05-31T14:27:02.000Z</time>
      </trkpt>
      <trkpt lat="43.52027" lon="1.51997">
        <ele>134.60000610352</ele>
        <time>2020-05-31T14:27:04.000Z</time>
      </trkpt>
      <trkpt lat="43.52022" lon="1.51997">
        <ele>134.60000610352</ele>
        <time>2020-05-31T14:27:05.000Z</time>
      </trkpt>
      <trkpt lat="43.52017" lon="1.51999">
        <ele>134.60000610352</ele>
        <time>2020-05-31T14:27:06.000Z</time>
      </trkpt>
      <trkpt lat="43.52007" lon="1.52">
        <ele>134.60000610352</ele>
        <time>2020-05-31T14:27:08.000Z</time>
      </trkpt>
      <trkpt lat="43.51998" lon="1.52001">
        <ele>134.60000610352</ele>
        <time>2020-05-31T14:27:10.000Z</time>
      </trkpt>
      <trkpt lat="43.51988" lon="1.52002">
        <ele>134.60000610352</ele>
        <time>2020-05-31T14:27:12.000Z</time>
      </trkpt>
      <trkpt lat="43.51977" lon="1.52003">
        <ele>134.60000610352</ele>
        <time>2020-05-31T14:27:14.000Z</time>
      </trkpt>
      <trkpt lat="43.51968" lon="1.52003">
        <ele>134.39999389648</ele>
        <time>2020-05-31T14:27:16.000Z</time>
      </trkpt>
      <trkpt lat="43.51958" lon="1.52002">
        <ele>134.19999694824</ele>
        <time>2020-05-31T14:27:18.000Z</time>
      </trkpt>
      <trkpt lat="43.51947" lon="1.52003">
        <ele>133.80000305176</ele>
        <time>2020-05-31T14:27:20.000Z</time>
      </trkpt>
      <trkpt lat="43.51937" lon="1.52">
        <ele>133.80000305176</ele>
        <time>2020-05-31T14:27:22.000Z</time>
      </trkpt>
      <trkpt lat="43.51927" lon="1.51997">
        <ele>133.60000610352</ele>
        <time>2020-05-31T14:27:24.000Z</time>
      </trkpt>
      <trkpt lat="43.51917" lon="1.51994">
        <ele>133.60000610352</ele>
        <time>2020-05-31T14:27:26.000Z</time>
      </trkpt>
      <trkpt lat="43.51908" lon="1.5199">
        <ele>133.60000610352</ele>
        <time>2020-05-31T14:27:28.000Z</time>
      </trkpt>
      <trkpt lat="43.51898" lon="1.51987">
        <ele>133.60000610352</ele>
        <time>2020-05-31T14:27:30.000Z</time>
      </trkpt>
      <trkpt lat="43.5189" lon="1.51982">
        <ele>133.60000610352</ele>
        <time>2020-05-31T14:27:32.000Z</time>
      </trkpt>
      <trkpt lat="43.51882" lon="1.51979">
        <ele>133.60000610352</ele>
        <time>2020-05-31T14:27:34.000Z</time>
      </trkpt>
      <trkpt lat="43.51875" lon="1.51976">
        <ele>133.60000610352</ele>
        <time>2020-05-31T14:27:36.000Z</time>
      </trkpt>
      <trkpt lat="43.51871" lon="1.51976">
        <ele>133.60000610352</ele>
        <time>2020-05-31T14:27:37.000Z</time>
      </trkpt>
      <trkpt lat="43.51867" lon="1.51975">
        <ele>134</ele>
        <time>2020-05-31T14:27:38.000Z</time>
      </trkpt>
      <trkpt lat="43.5186" lon="1.51971">
        <ele>134.19999694824</ele>
        <time>2020-05-31T14:27:40.000Z</time>
      </trkpt>
      <trkpt lat="43.51852" lon="1.51967">
        <ele>134.39999389648</ele>
        <time>2020-05-31T14:27:42.000Z</time>
      </trkpt>
      <trkpt lat="43.51843" lon="1.51965">
        <ele>134.39999389648</ele>
        <time>2020-05-31T14:27:44.000Z</time>
      </trkpt>
      <trkpt lat="43.51838" lon="1.51965">
        <ele>134.39999389648</ele>
        <time>2020-05-31T14:27:45.000Z</time>
      </trkpt>
      <trkpt lat="43.51832" lon="1.51965">
        <ele>134.39999389648</ele>
        <time>2020-05-31T14:27:46.000Z</time>
      </trkpt>
      <trkpt lat="43.51821" lon="1.51965">
        <ele>134.39999389648</ele>
        <time>2020-05-31T14:27:48.000Z</time>
      </trkpt>
      <trkpt lat="43.5181" lon="1.51967">
        <ele>134.39999389648</ele>
        <time>2020-05-31T14:27:50.000Z</time>
      </trkpt>
      <trkpt lat="43.51799" lon="1.5197">
        <ele>134.19999694824</ele>
        <time>2020-05-31T14:27:52.000Z</time>
      </trkpt>
      <trkpt lat="43.51795" lon="1.51972">
        <ele>134.19999694824</ele>
        <time>2020-05-31T14:27:53.000Z</time>
      </trkpt>
      <trkpt lat="43.5179" lon="1.51975">
        <ele>134.19999694824</ele>
        <time>2020-05-31T14:27:54.000Z</time>
      </trkpt>
      <trkpt lat="43.5178" lon="1.51981">
        <ele>134</ele>
        <time>2020-05-31T14:27:56.000Z</time>
      </trkpt>
      <trkpt lat="43.51771" lon="1.51987">
        <ele>134</ele>
        <time>2020-05-31T14:27:58.000Z</time>
      </trkpt>
      <trkpt lat="43.51766" lon="1.5199">
        <ele>134</ele>
        <time>2020-05-31T14:27:59.000Z</time>
      </trkpt>
      <trkpt lat="43.51762" lon="1.51993">
        <ele>134</ele>
        <time>2020-05-31T14:28:00.000Z</time>
      </trkpt>
      <trkpt lat="43.51754" lon="1.51998">
        <ele>134</ele>
        <time>2020-05-31T14:28:02.000Z</time>
      </trkpt>
      <trkpt lat="43.51745" lon="1.52004">
        <ele>133.80000305176</ele>
        <time>2020-05-31T14:28:04.000Z</time>
      </trkpt>
      <trkpt lat="43.51737" lon="1.52009">
        <ele>133.80000305176</ele>
        <time>2020-05-31T14:28:06.000Z</time>
      </trkpt>
      <trkpt lat="43.51728" lon="1.52015">
        <ele>133.80000305176</ele>
        <time>2020-05-31T14:28:08.000Z</time>
      </trkpt>
      <trkpt lat="43.51724" lon="1.52018">
        <ele>133.80000305176</ele>
        <time>2020-05-31T14:28:09.000Z</time>
      </trkpt>
      <trkpt lat="43.51719" lon="1.5202">
        <ele>133.60000610352</ele>
        <time>2020-05-31T14:28:10.000Z</time>
      </trkpt>
      <trkpt lat="43.5171" lon="1.52024">
        <ele>133.60000610352</ele>
        <time>2020-05-31T14:28:12.000Z</time>
      </trkpt>
      <trkpt lat="43.51701" lon="1.52028">
        <ele>133.39999389648</ele>
        <time>2020-05-31T14:28:14.000Z</time>
      </trkpt>
      <trkpt lat="43.51696" lon="1.5203">
        <ele>133.39999389648</ele>
        <time>2020-05-31T14:28:15.000Z</time>
      </trkpt>
      <trkpt lat="43.51691" lon="1.52033">
        <ele>133.39999389648</ele>
        <time>2020-05-31T14:28:16.000Z</time>
      </trkpt>
      <trkpt lat="43.5168" lon="1.52039">
        <ele>133.39999389648</ele>
        <time>2020-05-31T14:28:18.000Z</time>
      </trkpt>
      <trkpt lat="43.51669" lon="1.52045">
        <ele>146.60000610352</ele>
        <time>2020-05-31T14:28:20.000Z</time>
      </trkpt>
      <trkpt lat="43.51664" lon="1.52047">
        <ele>133.19999694824</ele>
        <time>2020-05-31T14:28:21.000Z</time>
      </trkpt>
      <trkpt lat="43.51659" lon="1.52048">
        <ele>133.19999694824</ele>
        <time>2020-05-31T14:28:22.000Z</time>
      </trkpt>
      <trkpt lat="43.51649" lon="1.52051">
        <ele>133.19999694824</ele>
        <time>2020-05-31T14:28:24.000Z</time>
      </trkpt>
      <trkpt lat="43.51639" lon="1.52052">
        <ele>133.19999694824</ele>
        <time>2020-05-31T14:28:26.000Z</time>
      </trkpt>
      <trkpt lat="43.51629" lon="1.52053">
        <ele>133.19999694824</ele>
        <time>2020-05-31T14:28:28.000Z</time>
      </trkpt>
      <trkpt lat="43.51621" lon="1.52053">
        <ele>133.19999694824</ele>
        <time>2020-05-31T14:28:30.000Z</time>
      </trkpt>
      <trkpt lat="43.51612" lon="1.52052">
        <ele>133.19999694824</ele>
        <time>2020-05-31T14:28:32.000Z</time>
      </trkpt>
      <trkpt lat="43.51603" lon="1.5205">
        <ele>133.39999389648</ele>
        <time>2020-05-31T14:28:34.000Z</time>
      </trkpt>
      <trkpt lat="43.51596" lon="1.52046">
        <ele>133.39999389648</ele>
        <time>2020-05-31T14:28:36.000Z</time>
      </trkpt>
      <trkpt lat="43.5159" lon="1.52042">
        <ele>133.39999389648</ele>
        <time>2020-05-31T14:28:38.000Z</time>
      </trkpt>
      <trkpt lat="43.51584" lon="1.52039">
        <ele>133.60000610352</ele>
        <time>2020-05-31T14:28:40.000Z</time>
      </trkpt>
      <trkpt lat="43.51578" lon="1.52033">
        <ele>133.80000305176</ele>
        <time>2020-05-31T14:28:42.000Z</time>
      </trkpt>
      <trkpt lat="43.51572" lon="1.52024">
        <ele>133.80000305176</ele>
        <time>2020-05-31T14:28:44.000Z</time>
      </trkpt>
      <trkpt lat="43.51564" lon="1.52015">
        <ele>134</ele>
        <time>2020-05-31T14:28:46.000Z</time>
      </trkpt>
      <trkpt lat="43.51556" lon="1.52006">
        <ele>134</ele>
        <time>2020-05-31T14:28:48.000Z</time>
      </trkpt>
      <trkpt lat="43.51549" lon="1.51999">
        <ele>134.19999694824</ele>
        <time>2020-05-31T14:28:50.000Z</time>
      </trkpt>
      <trkpt lat="43.51542" lon="1.51991">
        <ele>134.19999694824</ele>
        <time>2020-05-31T14:28:52.000Z</time>
      </trkpt>
      <trkpt lat="43.51534" lon="1.51983">
        <ele>134.19999694824</ele>
        <time>2020-05-31T14:28:54.000Z</time>
      </trkpt>
      <trkpt lat="43.51524" lon="1.51974">
        <ele>134.19999694824</ele>
        <time>2020-05-31T14:28:56.000Z</time>
      </trkpt>
      <trkpt lat="43.51515" lon="1.51962">
        <ele>134.19999694824</ele>
        <time>2020-05-31T14:28:58.000Z</time>
      </trkpt>
      <trkpt lat="43.51507" lon="1.5195">
        <ele>134</ele>
        <time>2020-05-31T14:29:00.000Z</time>
      </trkpt>
      <trkpt lat="43.515" lon="1.51936">
        <ele>134.19999694824</ele>
        <time>2020-05-31T14:29:02.000Z</time>
      </trkpt>
      <trkpt lat="43.51494" lon="1.51923">
        <ele>134.19999694824</ele>
        <time>2020-05-31T14:29:04.000Z</time>
      </trkpt>
      <trkpt lat="43.51491" lon="1.5191">
        <ele>134.19999694824</ele>
        <time>2020-05-31T14:29:06.000Z</time>
      </trkpt>
      <trkpt lat="43.51488" lon="1.51899">
        <ele>134.19999694824</ele>
        <time>2020-05-31T14:29:08.000Z</time>
      </trkpt>
      <trkpt lat="43.51486" lon="1.51885">
        <ele>134.39999389648</ele>
        <time>2020-05-31T14:29:10.000Z</time>
      </trkpt>
      <trkpt lat="43.51484" lon="1.5187">
        <ele>134.39999389648</ele>
        <time>2020-05-31T14:29:12.000Z</time>
      </trkpt>
      <trkpt lat="43.51482" lon="1.51855">
        <ele>134.39999389648</ele>
        <time>2020-05-31T14:29:14.000Z</time>
      </trkpt>
      <trkpt lat="43.5148" lon="1.5184">
        <ele>134.60000610352</ele>
        <time>2020-05-31T14:29:16.000Z</time>
      </trkpt>
      <trkpt lat="43.5148" lon="1.51827">
        <ele>134.80000305176</ele>
        <time>2020-05-31T14:29:18.000Z</time>
      </trkpt>
      <trkpt lat="43.51481" lon="1.51815">
        <ele>134.80000305176</ele>
        <time>2020-05-31T14:29:20.000Z</time>
      </trkpt>
      <trkpt lat="43.51482" lon="1.51807">
        <ele>134.80000305176</ele>
        <time>2020-05-31T14:29:21.000Z</time>
      </trkpt>
      <trkpt lat="43.51483" lon="1.518">
        <ele>134.80000305176</ele>
        <time>2020-05-31T14:29:22.000Z</time>
      </trkpt>
      <trkpt lat="43.51484" lon="1.51793">
        <ele>134.80000305176</ele>
        <time>2020-05-31T14:29:23.000Z</time>
      </trkpt>
      <trkpt lat="43.51485" lon="1.51786">
        <ele>134.80000305176</ele>
        <time>2020-05-31T14:29:24.000Z</time>
      </trkpt>
      <trkpt lat="43.51487" lon="1.51772">
        <ele>135</ele>
        <time>2020-05-31T14:29:26.000Z</time>
      </trkpt>
      <trkpt lat="43.51489" lon="1.51759">
        <ele>135</ele>
        <time>2020-05-31T14:29:28.000Z</time>
      </trkpt>
      <trkpt lat="43.51488" lon="1.51745">
        <ele>135.39999389648</ele>
        <time>2020-05-31T14:29:30.000Z</time>
      </trkpt>
      <trkpt lat="43.51487" lon="1.51739">
        <ele>135.60000610352</ele>
        <time>2020-05-31T14:29:31.000Z</time>
      </trkpt>
      <trkpt lat="43.51486" lon="1.51732">
        <ele>135.60000610352</ele>
        <time>2020-05-31T14:29:32.000Z</time>
      </trkpt>
      <trkpt lat="43.51482" lon="1.51718">
        <ele>135.60000610352</ele>
        <time>2020-05-31T14:29:34.000Z</time>
      </trkpt>
      <trkpt lat="43.51475" lon="1.51704">
        <ele>135.60000610352</ele>
        <time>2020-05-31T14:29:36.000Z</time>
      </trkpt>
      <trkpt lat="43.51469" lon="1.51691">
        <ele>135.60000610352</ele>
        <time>2020-05-31T14:29:38.000Z</time>
      </trkpt>
      <trkpt lat="43.51462" lon="1.51681">
        <ele>135.60000610352</ele>
        <time>2020-05-31T14:29:40.000Z</time>
      </trkpt>
      <trkpt lat="43.51458" lon="1.51676">
        <ele>135.60000610352</ele>
        <time>2020-05-31T14:29:41.000Z</time>
      </trkpt>
      <trkpt lat="43.51454" lon="1.51672">
        <ele>135.60000610352</ele>
        <time>2020-05-31T14:29:42.000Z</time>
      </trkpt>
      <trkpt lat="43.51445" lon="1.51665">
        <ele>135.39999389648</ele>
        <time>2020-05-31T14:29:44.000Z</time>
      </trkpt>
      <trkpt lat="43.51435" lon="1.5166">
        <ele>135.19999694824</ele>
        <time>2020-05-31T14:29:46.000Z</time>
      </trkpt>
      <trkpt lat="43.51425" lon="1.51658">
        <ele>135.19999694824</ele>
        <time>2020-05-31T14:29:48.000Z</time>
      </trkpt>
      <trkpt lat="43.51414" lon="1.51658">
        <ele>135.19999694824</ele>
        <time>2020-05-31T14:29:50.000Z</time>
      </trkpt>
      <trkpt lat="43.51405" lon="1.5166">
        <ele>135.19999694824</ele>
        <time>2020-05-31T14:29:52.000Z</time>
      </trkpt>
      <trkpt lat="43.51395" lon="1.51662">
        <ele>135.19999694824</ele>
        <time>2020-05-31T14:29:54.000Z</time>
      </trkpt>
      <trkpt lat="43.51385" lon="1.51664">
        <ele>135</ele>
        <time>2020-05-31T14:29:56.000Z</time>
      </trkpt>
      <trkpt lat="43.51376" lon="1.51666">
        <ele>134.60000610352</ele>
        <time>2020-05-31T14:29:58.000Z</time>
      </trkpt>
      <trkpt lat="43.51367" lon="1.51668">
        <ele>134.39999389648</ele>
        <time>2020-05-31T14:30:00.000Z</time>
      </trkpt>
      <trkpt lat="43.51357" lon="1.5167">
        <ele>134.19999694824</ele>
        <time>2020-05-31T14:30:02.000Z</time>
      </trkpt>
      <trkpt lat="43.51347" lon="1.51672">
        <ele>134.19999694824</ele>
        <time>2020-05-31T14:30:04.000Z</time>
      </trkpt>
      <trkpt lat="43.51338" lon="1.51675">
        <ele>134.19999694824</ele>
        <time>2020-05-31T14:30:06.000Z</time>
      </trkpt>
      <trkpt lat="43.51328" lon="1.51678">
        <ele>134</ele>
        <time>2020-05-31T14:30:08.000Z</time>
      </trkpt>
      <trkpt lat="43.51323" lon="1.51678">
        <ele>134</ele>
        <time>2020-05-31T14:30:09.000Z</time>
      </trkpt>
      <trkpt lat="43.51318" lon="1.51679">
        <ele>134</ele>
        <time>2020-05-31T14:30:10.000Z</time>
      </trkpt>
      <trkpt lat="43.51308" lon="1.51681">
        <ele>134</ele>
        <time>2020-05-31T14:30:12.000Z</time>
      </trkpt>
      <trkpt lat="43.51299" lon="1.51682">
        <ele>134</ele>
        <time>2020-05-31T14:30:14.000Z</time>
      </trkpt>
      <trkpt lat="43.51289" lon="1.51684">
        <ele>134</ele>
        <time>2020-05-31T14:30:16.000Z</time>
      </trkpt>
      <trkpt lat="43.51279" lon="1.51687">
        <ele>133.80000305176</ele>
        <time>2020-05-31T14:30:18.000Z</time>
      </trkpt>
      <trkpt lat="43.51269" lon="1.5169">
        <ele>133.60000610352</ele>
        <time>2020-05-31T14:30:20.000Z</time>
      </trkpt>
      <trkpt lat="43.51261" lon="1.51692">
        <ele>133.60000610352</ele>
        <time>2020-05-31T14:30:22.000Z</time>
      </trkpt>
      <trkpt lat="43.51252" lon="1.51694">
        <ele>133.39999389648</ele>
        <time>2020-05-31T14:30:24.000Z</time>
      </trkpt>
      <trkpt lat="43.51242" lon="1.51697">
        <ele>133.39999389648</ele>
        <time>2020-05-31T14:30:26.000Z</time>
      </trkpt>
      <trkpt lat="43.51233" lon="1.51699">
        <ele>133.39999389648</ele>
        <time>2020-05-31T14:30:28.000Z</time>
      </trkpt>
      <trkpt lat="43.51229" lon="1.51699">
        <ele>133.39999389648</ele>
        <time>2020-05-31T14:30:29.000Z</time>
      </trkpt>
      <trkpt lat="43.51225" lon="1.517">
        <ele>133.60000610352</ele>
        <time>2020-05-31T14:30:30.000Z</time>
      </trkpt>
      <trkpt lat="43.51215" lon="1.51702">
        <ele>133.60000610352</ele>
        <time>2020-05-31T14:30:32.000Z</time>
      </trkpt>
      <trkpt lat="43.5121" lon="1.51704">
        <ele>133.60000610352</ele>
        <time>2020-05-31T14:30:33.000Z</time>
      </trkpt>
      <trkpt lat="43.51205" lon="1.51706">
        <ele>133.80000305176</ele>
        <time>2020-05-31T14:30:34.000Z</time>
      </trkpt>
      <trkpt lat="43.51196" lon="1.51709">
        <ele>134.39999389648</ele>
        <time>2020-05-31T14:30:36.000Z</time>
      </trkpt>
      <trkpt lat="43.51191" lon="1.51709">
        <ele>134.60000610352</ele>
        <time>2020-05-31T14:30:37.000Z</time>
      </trkpt>
      <trkpt lat="43.51187" lon="1.5171">
        <ele>134.60000610352</ele>
        <time>2020-05-31T14:30:38.000Z</time>
      </trkpt>
      <trkpt lat="43.51179" lon="1.51713">
        <ele>134.60000610352</ele>
        <time>2020-05-31T14:30:40.000Z</time>
      </trkpt>
      <trkpt lat="43.5117" lon="1.51716">
        <ele>134.80000305176</ele>
        <time>2020-05-31T14:30:42.000Z</time>
      </trkpt>
      <trkpt lat="43.51161" lon="1.5172">
        <ele>135</ele>
        <time>2020-05-31T14:30:44.000Z</time>
      </trkpt>
      <trkpt lat="43.51153" lon="1.51723">
        <ele>135</ele>
        <time>2020-05-31T14:30:46.000Z</time>
      </trkpt>
      <trkpt lat="43.51146" lon="1.51725">
        <ele>135.19999694824</ele>
        <time>2020-05-31T14:30:48.000Z</time>
      </trkpt>
      <trkpt lat="43.51143" lon="1.51727">
        <ele>135.39999389648</ele>
        <time>2020-05-31T14:30:49.000Z</time>
      </trkpt>
      <trkpt lat="43.5114" lon="1.51728">
        <ele>135.60000610352</ele>
        <time>2020-05-31T14:30:50.000Z</time>
      </trkpt>
      <trkpt lat="43.51136" lon="1.5173">
        <ele>136</ele>
        <time>2020-05-31T14:30:52.000Z</time>
      </trkpt>
      <trkpt lat="43.51134" lon="1.51731">
        <ele>136.19999694824</ele>
        <time>2020-05-31T14:30:53.000Z</time>
      </trkpt>
      <trkpt lat="43.5113" lon="1.51733">
        <ele>138.60000610352</ele>
        <time>2020-05-31T14:31:24.000Z</time>
      </trkpt>
      <trkpt lat="43.51127" lon="1.51736">
        <ele>138.39999389648</ele>
        <time>2020-05-31T14:31:26.000Z</time>
      </trkpt>
      <trkpt lat="43.51122" lon="1.5174">
        <ele>138.39999389648</ele>
        <time>2020-05-31T14:31:28.000Z</time>
      </trkpt>
      <trkpt lat="43.51115" lon="1.51743">
        <ele>138.39999389648</ele>
        <time>2020-05-31T14:31:30.000Z</time>
      </trkpt>
      <trkpt lat="43.51109" lon="1.51744">
        <ele>138.39999389648</ele>
        <time>2020-05-31T14:31:32.000Z</time>
      </trkpt>
      <trkpt lat="43.51103" lon="1.51747">
        <ele>138.19999694824</ele>
        <time>2020-05-31T14:31:34.000Z</time>
      </trkpt>
      <trkpt lat="43.511" lon="1.51747">
        <ele>137.39999389648</ele>
        <time>2020-05-31T14:31:35.000Z</time>
      </trkpt>
      <trkpt lat="43.51097" lon="1.51748">
        <ele>137</ele>
        <time>2020-05-31T14:31:36.000Z</time>
      </trkpt>
      <trkpt lat="43.51091" lon="1.51751">
        <ele>136.39999389648</ele>
        <time>2020-05-31T14:31:38.000Z</time>
      </trkpt>
      <trkpt lat="43.51088" lon="1.51752">
        <ele>136.19999694824</ele>
        <time>2020-05-31T14:31:39.000Z</time>
      </trkpt>
      <trkpt lat="43.51085" lon="1.51753">
        <ele>136.19999694824</ele>
        <time>2020-05-31T14:31:40.000Z</time>
      </trkpt>
      <trkpt lat="43.51079" lon="1.51754">
        <ele>136</ele>
        <time>2020-05-31T14:31:42.000Z</time>
      </trkpt>
      <trkpt lat="43.51072" lon="1.51756">
        <ele>136</ele>
        <time>2020-05-31T14:31:44.000Z</time>
      </trkpt>
      <trkpt lat="43.51066" lon="1.51757">
        <ele>136</ele>
        <time>2020-05-31T14:31:46.000Z</time>
      </trkpt>
      <trkpt lat="43.51061" lon="1.51758">
        <ele>136.19999694824</ele>
        <time>2020-05-31T14:31:48.000Z</time>
      </trkpt>
      <trkpt lat="43.51056" lon="1.51759">
        <ele>136.19999694824</ele>
        <time>2020-05-31T14:31:50.000Z</time>
      </trkpt>
      <trkpt lat="43.51051" lon="1.51762">
        <ele>136.39999389648</ele>
        <time>2020-05-31T14:31:52.000Z</time>
      </trkpt>
      <trkpt lat="43.51046" lon="1.51764">
        <ele>136.39999389648</ele>
        <time>2020-05-31T14:31:54.000Z</time>
      </trkpt>
      <trkpt lat="43.51041" lon="1.51765">
        <ele>136.60000610352</ele>
        <time>2020-05-31T14:31:56.000Z</time>
      </trkpt>
      <trkpt lat="43.51037" lon="1.51766">
        <ele>136.60000610352</ele>
        <time>2020-05-31T14:31:57.000Z</time>
      </trkpt>
      <trkpt lat="43.51033" lon="1.51767">
        <ele>136.60000610352</ele>
        <time>2020-05-31T14:31:58.000Z</time>
      </trkpt>
      <trkpt lat="43.51024" lon="1.51769">
        <ele>136.60000610352</ele>
        <time>2020-05-31T14:32:00.000Z</time>
      </trkpt>
      <trkpt lat="43.51015" lon="1.51773">
        <ele>136.60000610352</ele>
        <time>2020-05-31T14:32:02.000Z</time>
      </trkpt>
      <trkpt lat="43.51007" lon="1.51775">
        <ele>136.60000610352</ele>
        <time>2020-05-31T14:32:04.000Z</time>
      </trkpt>
      <trkpt lat="43.50999" lon="1.51778">
        <ele>136.39999389648</ele>
        <time>2020-05-31T14:32:06.000Z</time>
      </trkpt>
      <trkpt lat="43.50991" lon="1.51782">
        <ele>136</ele>
        <time>2020-05-31T14:32:08.000Z</time>
      </trkpt>
      <trkpt lat="43.50986" lon="1.51784">
        <ele>136</ele>
        <time>2020-05-31T14:32:09.000Z</time>
      </trkpt>
      <trkpt lat="43.50981" lon="1.51786">
        <ele>136</ele>
        <time>2020-05-31T14:32:10.000Z</time>
      </trkpt>
      <trkpt lat="43.5097" lon="1.51791">
        <ele>135.80000305176</ele>
        <time>2020-05-31T14:32:12.000Z</time>
      </trkpt>
      <trkpt lat="43.5096" lon="1.51796">
        <ele>135.60000610352</ele>
        <time>2020-05-31T14:32:14.000Z</time>
      </trkpt>
      <trkpt lat="43.50956" lon="1.51799">
        <ele>135.60000610352</ele>
        <time>2020-05-31T14:32:15.000Z</time>
      </trkpt>
      <trkpt lat="43.50951" lon="1.51803">
        <ele>135.60000610352</ele>
        <time>2020-05-31T14:32:16.000Z</time>
      </trkpt>
      <trkpt lat="43.50942" lon="1.51812">
        <ele>135.60000610352</ele>
        <time>2020-05-31T14:32:18.000Z</time>
      </trkpt>
      <trkpt lat="43.50933" lon="1.51819">
        <ele>135.60000610352</ele>
        <time>2020-05-31T14:32:20.000Z</time>
      </trkpt>
      <trkpt lat="43.50924" lon="1.51826">
        <ele>135.60000610352</ele>
        <time>2020-05-31T14:32:22.000Z</time>
      </trkpt>
      <trkpt lat="43.50915" lon="1.51833">
        <ele>135.60000610352</ele>
        <time>2020-05-31T14:32:24.000Z</time>
      </trkpt>
      <trkpt lat="43.50911" lon="1.51837">
        <ele>135.60000610352</ele>
        <time>2020-05-31T14:32:25.000Z</time>
      </trkpt>
      <trkpt lat="43.50907" lon="1.51841">
        <ele>135.60000610352</ele>
        <time>2020-05-31T14:32:26.000Z</time>
      </trkpt>
      <trkpt lat="43.50899" lon="1.51849">
        <ele>135.60000610352</ele>
        <time>2020-05-31T14:32:28.000Z</time>
      </trkpt>
      <trkpt lat="43.50895" lon="1.51853">
        <ele>135.60000610352</ele>
        <time>2020-05-31T14:32:29.000Z</time>
      </trkpt>
      <trkpt lat="43.50891" lon="1.51857">
        <ele>135.80000305176</ele>
        <time>2020-05-31T14:32:30.000Z</time>
      </trkpt>
      <trkpt lat="43.50882" lon="1.51864">
        <ele>136</ele>
        <time>2020-05-31T14:32:32.000Z</time>
      </trkpt>
      <trkpt lat="43.50874" lon="1.51873">
        <ele>136.39999389648</ele>
        <time>2020-05-31T14:32:34.000Z</time>
      </trkpt>
      <trkpt lat="43.50866" lon="1.51882">
        <ele>136.60000610352</ele>
        <time>2020-05-31T14:32:36.000Z</time>
      </trkpt>
      <trkpt lat="43.50858" lon="1.5189">
        <ele>136.60000610352</ele>
        <time>2020-05-31T14:32:38.000Z</time>
      </trkpt>
      <trkpt lat="43.50849" lon="1.519">
        <ele>136.60000610352</ele>
        <time>2020-05-31T14:32:40.000Z</time>
      </trkpt>
      <trkpt lat="43.50841" lon="1.5191">
        <ele>136.60000610352</ele>
        <time>2020-05-31T14:32:42.000Z</time>
      </trkpt>
      <trkpt lat="43.50833" lon="1.51919">
        <ele>136.60000610352</ele>
        <time>2020-05-31T14:32:44.000Z</time>
      </trkpt>
      <trkpt lat="43.50824" lon="1.51931">
        <ele>136.60000610352</ele>
        <time>2020-05-31T14:32:46.000Z</time>
      </trkpt>
      <trkpt lat="43.50815" lon="1.51942">
        <ele>136.60000610352</ele>
        <time>2020-05-31T14:32:48.000Z</time>
      </trkpt>
      <trkpt lat="43.50805" lon="1.51952">
        <ele>136.60000610352</ele>
        <time>2020-05-31T14:32:50.000Z</time>
      </trkpt>
      <trkpt lat="43.50797" lon="1.51962">
        <ele>136.60000610352</ele>
        <time>2020-05-31T14:32:52.000Z</time>
      </trkpt>
      <trkpt lat="43.50788" lon="1.51971">
        <ele>136.60000610352</ele>
        <time>2020-05-31T14:32:54.000Z</time>
      </trkpt>
      <trkpt lat="43.50779" lon="1.5198">
        <ele>136.19999694824</ele>
        <time>2020-05-31T14:32:56.000Z</time>
      </trkpt>
      <trkpt lat="43.5077" lon="1.5199">
        <ele>136</ele>
        <time>2020-05-31T14:32:58.000Z</time>
      </trkpt>
      <trkpt lat="43.50762" lon="1.51999">
        <ele>135.80000305176</ele>
        <time>2020-05-31T14:33:00.000Z</time>
      </trkpt>
      <trkpt lat="43.50752" lon="1.52007">
        <ele>135.60000610352</ele>
        <time>2020-05-31T14:33:02.000Z</time>
      </trkpt>
      <trkpt lat="43.50742" lon="1.52015">
        <ele>135.39999389648</ele>
        <time>2020-05-31T14:33:04.000Z</time>
      </trkpt>
      <trkpt lat="43.50732" lon="1.52024">
        <ele>135.19999694824</ele>
        <time>2020-05-31T14:33:06.000Z</time>
      </trkpt>
      <trkpt lat="43.50726" lon="1.52028">
        <ele>135.19999694824</ele>
        <time>2020-05-31T14:33:07.000Z</time>
      </trkpt>
      <trkpt lat="43.50721" lon="1.52033">
        <ele>135.19999694824</ele>
        <time>2020-05-31T14:33:08.000Z</time>
      </trkpt>
      <trkpt lat="43.50716" lon="1.52036">
        <ele>135</ele>
        <time>2020-05-31T14:33:09.000Z</time>
      </trkpt>
      <trkpt lat="43.50711" lon="1.52039">
        <ele>135</ele>
        <time>2020-05-31T14:33:10.000Z</time>
      </trkpt>
      <trkpt lat="43.50699" lon="1.52045">
        <ele>135</ele>
        <time>2020-05-31T14:33:12.000Z</time>
      </trkpt>
      <trkpt lat="43.50688" lon="1.52049">
        <ele>135</ele>
        <time>2020-05-31T14:33:14.000Z</time>
      </trkpt>
      <trkpt lat="43.50676" lon="1.52053">
        <ele>135.19999694824</ele>
        <time>2020-05-31T14:33:16.000Z</time>
      </trkpt>
      <trkpt lat="43.50665" lon="1.52056">
        <ele>135.19999694824</ele>
        <time>2020-05-31T14:33:18.000Z</time>
      </trkpt>
      <trkpt lat="43.50653" lon="1.52057">
        <ele>135</ele>
        <time>2020-05-31T14:33:20.000Z</time>
      </trkpt>
      <trkpt lat="43.50642" lon="1.52059">
        <ele>135.19999694824</ele>
        <time>2020-05-31T14:33:22.000Z</time>
      </trkpt>
      <trkpt lat="43.50631" lon="1.52059">
        <ele>135.39999389648</ele>
        <time>2020-05-31T14:33:24.000Z</time>
      </trkpt>
      <trkpt lat="43.5062" lon="1.52062">
        <ele>135.39999389648</ele>
        <time>2020-05-31T14:33:26.000Z</time>
      </trkpt>
      <trkpt lat="43.50609" lon="1.52065">
        <ele>135.60000610352</ele>
        <time>2020-05-31T14:33:28.000Z</time>
      </trkpt>
      <trkpt lat="43.50599" lon="1.52067">
        <ele>135.60000610352</ele>
        <time>2020-05-31T14:33:30.000Z</time>
      </trkpt>
      <trkpt lat="43.50595" lon="1.52067">
        <ele>135.60000610352</ele>
        <time>2020-05-31T14:33:31.000Z</time>
      </trkpt>
      <trkpt lat="43.50591" lon="1.52068">
        <ele>135.60000610352</ele>
        <time>2020-05-31T14:33:32.000Z</time>
      </trkpt>
      <trkpt lat="43.50581" lon="1.5207">
        <ele>135.60000610352</ele>
        <time>2020-05-31T14:33:34.000Z</time>
      </trkpt>
      <trkpt lat="43.50573" lon="1.52071">
        <ele>135.60000610352</ele>
        <time>2020-05-31T14:33:36.000Z</time>
      </trkpt>
      <trkpt lat="43.50565" lon="1.52074">
        <ele>135.60000610352</ele>
        <time>2020-05-31T14:33:38.000Z</time>
      </trkpt>
      <trkpt lat="43.50557" lon="1.52076">
        <ele>135.60000610352</ele>
        <time>2020-05-31T14:33:40.000Z</time>
      </trkpt>
      <trkpt lat="43.5055" lon="1.52077">
        <ele>135.60000610352</ele>
        <time>2020-05-31T14:33:42.000Z</time>
      </trkpt>
      <trkpt lat="43.50542" lon="1.52078">
        <ele>135.60000610352</ele>
        <time>2020-05-31T14:33:44.000Z</time>
      </trkpt>
      <trkpt lat="43.50533" lon="1.5208">
        <ele>135.60000610352</ele>
        <time>2020-05-31T14:33:46.000Z</time>
      </trkpt>
      <trkpt lat="43.50523" lon="1.52084">
        <ele>135.39999389648</ele>
        <time>2020-05-31T14:33:48.000Z</time>
      </trkpt>
      <trkpt lat="43.50514" lon="1.5209">
        <ele>135.19999694824</ele>
        <time>2020-05-31T14:33:50.000Z</time>
      </trkpt>
      <trkpt lat="43.50504" lon="1.52098">
        <ele>135</ele>
        <time>2020-05-31T14:33:52.000Z</time>
      </trkpt>
      <trkpt lat="43.50495" lon="1.52106">
        <ele>134.80000305176</ele>
        <time>2020-05-31T14:33:54.000Z</time>
      </trkpt>
      <trkpt lat="43.50486" lon="1.52115">
        <ele>134.80000305176</ele>
        <time>2020-05-31T14:33:56.000Z</time>
      </trkpt>
      <trkpt lat="43.50478" lon="1.52125">
        <ele>134.80000305176</ele>
        <time>2020-05-31T14:33:58.000Z</time>
      </trkpt>
      <trkpt lat="43.5047" lon="1.52137">
        <ele>134.80000305176</ele>
        <time>2020-05-31T14:34:00.000Z</time>
      </trkpt>
      <trkpt lat="43.50462" lon="1.52148">
        <ele>134.80000305176</ele>
        <time>2020-05-31T14:34:02.000Z</time>
      </trkpt>
      <trkpt lat="43.50454" lon="1.52159">
        <ele>135.80000305176</ele>
        <time>2020-05-31T14:34:04.000Z</time>
      </trkpt>
      <trkpt lat="43.50449" lon="1.52167">
        <ele>136.19999694824</ele>
        <time>2020-05-31T14:34:06.000Z</time>
      </trkpt>
      <trkpt lat="43.50446" lon="1.52175">
        <ele>136.39999389648</ele>
        <time>2020-05-31T14:34:08.000Z</time>
      </trkpt>
      <trkpt lat="43.50445" lon="1.52178">
        <ele>136.39999389648</ele>
        <time>2020-05-31T14:34:09.000Z</time>
      </trkpt>
      <trkpt lat="43.50444" lon="1.52181">
        <ele>136.39999389648</ele>
        <time>2020-05-31T14:34:10.000Z</time>
      </trkpt>
      <trkpt lat="43.50442" lon="1.52189">
        <ele>136.60000610352</ele>
        <time>2020-05-31T14:34:12.000Z</time>
      </trkpt>
      <trkpt lat="43.50438" lon="1.522">
        <ele>136.60000610352</ele>
        <time>2020-05-31T14:34:14.000Z</time>
      </trkpt>
      <trkpt lat="43.50437" lon="1.52206">
        <ele>136.60000610352</ele>
        <time>2020-05-31T14:34:15.000Z</time>
      </trkpt>
      <trkpt lat="43.50435" lon="1.52214">
        <ele>136.60000610352</ele>
        <time>2020-05-31T14:34:16.000Z</time>
      </trkpt>
      <trkpt lat="43.50434" lon="1.52222">
        <ele>136.80000305176</ele>
        <time>2020-05-31T14:34:17.000Z</time>
      </trkpt>
      <trkpt lat="43.50433" lon="1.5223">
        <ele>136.80000305176</ele>
        <time>2020-05-31T14:34:18.000Z</time>
      </trkpt>
      <trkpt lat="43.50432" lon="1.52245">
        <ele>136.80000305176</ele>
        <time>2020-05-31T14:34:20.000Z</time>
      </trkpt>
      <trkpt lat="43.50432" lon="1.5226">
        <ele>136.80000305176</ele>
        <time>2020-05-31T14:34:22.000Z</time>
      </trkpt>
      <trkpt lat="43.50433" lon="1.52275">
        <ele>136.60000610352</ele>
        <time>2020-05-31T14:34:24.000Z</time>
      </trkpt>
      <trkpt lat="43.50432" lon="1.5229">
        <ele>136.60000610352</ele>
        <time>2020-05-31T14:34:26.000Z</time>
      </trkpt>
      <trkpt lat="43.5043" lon="1.52305">
        <ele>136.39999389648</ele>
        <time>2020-05-31T14:34:28.000Z</time>
      </trkpt>
      <trkpt lat="43.50427" lon="1.52321">
        <ele>136.39999389648</ele>
        <time>2020-05-31T14:34:30.000Z</time>
      </trkpt>
      <trkpt lat="43.50426" lon="1.52336">
        <ele>136.19999694824</ele>
        <time>2020-05-31T14:34:32.000Z</time>
      </trkpt>
      <trkpt lat="43.50425" lon="1.52351">
        <ele>136.19999694824</ele>
        <time>2020-05-31T14:34:34.000Z</time>
      </trkpt>
      <trkpt lat="43.50425" lon="1.52366">
        <ele>136.19999694824</ele>
        <time>2020-05-31T14:34:36.000Z</time>
      </trkpt>
      <trkpt lat="43.50425" lon="1.5238">
        <ele>136.19999694824</ele>
        <time>2020-05-31T14:34:38.000Z</time>
      </trkpt>
      <trkpt lat="43.50426" lon="1.52387">
        <ele>136.19999694824</ele>
        <time>2020-05-31T14:34:39.000Z</time>
      </trkpt>
      <trkpt lat="43.50426" lon="1.52393">
        <ele>136.19999694824</ele>
        <time>2020-05-31T14:34:40.000Z</time>
      </trkpt>
      <trkpt lat="43.50427" lon="1.52399">
        <ele>136.19999694824</ele>
        <time>2020-05-31T14:34:41.000Z</time>
      </trkpt>
      <trkpt lat="43.50427" lon="1.52406">
        <ele>136.19999694824</ele>
        <time>2020-05-31T14:34:42.000Z</time>
      </trkpt>
      <trkpt lat="43.50424" lon="1.52419">
        <ele>136</ele>
        <time>2020-05-31T14:34:44.000Z</time>
      </trkpt>
      <trkpt lat="43.50421" lon="1.52434">
        <ele>136</ele>
        <time>2020-05-31T14:34:46.000Z</time>
      </trkpt>
      <trkpt lat="43.50418" lon="1.52448">
        <ele>136</ele>
        <time>2020-05-31T14:34:48.000Z</time>
      </trkpt>
      <trkpt lat="43.50414" lon="1.52463">
        <ele>136.19999694824</ele>
        <time>2020-05-31T14:34:50.000Z</time>
      </trkpt>
      <trkpt lat="43.50411" lon="1.52479">
        <ele>136.19999694824</ele>
        <time>2020-05-31T14:34:52.000Z</time>
      </trkpt>
      <trkpt lat="43.50408" lon="1.52495">
        <ele>135.80000305176</ele>
        <time>2020-05-31T14:34:54.000Z</time>
      </trkpt>
      <trkpt lat="43.50405" lon="1.52508">
        <ele>136</ele>
        <time>2020-05-31T14:34:56.000Z</time>
      </trkpt>
      <trkpt lat="43.50403" lon="1.5252">
        <ele>135.80000305176</ele>
        <time>2020-05-31T14:34:58.000Z</time>
      </trkpt>
      <trkpt lat="43.504" lon="1.52533">
        <ele>135.80000305176</ele>
        <time>2020-05-31T14:35:00.000Z</time>
      </trkpt>
      <trkpt lat="43.50398" lon="1.52545">
        <ele>135.80000305176</ele>
        <time>2020-05-31T14:35:02.000Z</time>
      </trkpt>
      <trkpt lat="43.50396" lon="1.52558">
        <ele>135.80000305176</ele>
        <time>2020-05-31T14:35:04.000Z</time>
      </trkpt>
      <trkpt lat="43.50396" lon="1.52565">
        <ele>135.60000610352</ele>
        <time>2020-05-31T14:35:05.000Z</time>
      </trkpt>
      <trkpt lat="43.50395" lon="1.52571">
        <ele>135.60000610352</ele>
        <time>2020-05-31T14:35:06.000Z</time>
      </trkpt>
      <trkpt lat="43.50393" lon="1.52582">
        <ele>135.60000610352</ele>
        <time>2020-05-31T14:35:08.000Z</time>
      </trkpt>
      <trkpt lat="43.50391" lon="1.52592">
        <ele>135.60000610352</ele>
        <time>2020-05-31T14:35:10.000Z</time>
      </trkpt>
      <trkpt lat="43.5039" lon="1.52598">
        <ele>135.60000610352</ele>
        <time>2020-05-31T14:35:11.000Z</time>
      </trkpt>
      <trkpt lat="43.50388" lon="1.52604">
        <ele>135.39999389648</ele>
        <time>2020-05-31T14:35:12.000Z</time>
      </trkpt>
      <trkpt lat="43.50385" lon="1.52616">
        <ele>135.39999389648</ele>
        <time>2020-05-31T14:35:14.000Z</time>
      </trkpt>
      <trkpt lat="43.50382" lon="1.52629">
        <ele>135.39999389648</ele>
        <time>2020-05-31T14:35:16.000Z</time>
      </trkpt>
      <trkpt lat="43.50379" lon="1.52644">
        <ele>135.39999389648</ele>
        <time>2020-05-31T14:35:18.000Z</time>
      </trkpt>
      <trkpt lat="43.50374" lon="1.5266">
        <ele>135.39999389648</ele>
        <time>2020-05-31T14:35:20.000Z</time>
      </trkpt>
      <trkpt lat="43.50368" lon="1.52675">
        <ele>135.39999389648</ele>
        <time>2020-05-31T14:35:22.000Z</time>
      </trkpt>
      <trkpt lat="43.50365" lon="1.52682">
        <ele>135.39999389648</ele>
        <time>2020-05-31T14:35:23.000Z</time>
      </trkpt>
      <trkpt lat="43.50362" lon="1.52687">
        <ele>135.39999389648</ele>
        <time>2020-05-31T14:35:24.000Z</time>
      </trkpt>
      <trkpt lat="43.50355" lon="1.52698">
        <ele>135.39999389648</ele>
        <time>2020-05-31T14:35:26.000Z</time>
      </trkpt>
      <trkpt lat="43.50351" lon="1.52702">
        <ele>135.39999389648</ele>
        <time>2020-05-31T14:35:27.000Z</time>
      </trkpt>
      <trkpt lat="43.50348" lon="1.52707">
        <ele>135.39999389648</ele>
        <time>2020-05-31T14:35:28.000Z</time>
      </trkpt>
      <trkpt lat="43.5034" lon="1.52716">
        <ele>135.39999389648</ele>
        <time>2020-05-31T14:35:30.000Z</time>
      </trkpt>
      <trkpt lat="43.50335" lon="1.52721">
        <ele>135.39999389648</ele>
        <time>2020-05-31T14:35:31.000Z</time>
      </trkpt>
      <trkpt lat="43.50331" lon="1.52727">
        <ele>135.39999389648</ele>
        <time>2020-05-31T14:35:32.000Z</time>
      </trkpt>
      <trkpt lat="43.50323" lon="1.52738">
        <ele>135.39999389648</ele>
        <time>2020-05-31T14:35:34.000Z</time>
      </trkpt>
      <trkpt lat="43.50317" lon="1.52748">
        <ele>135.19999694824</ele>
        <time>2020-05-31T14:35:36.000Z</time>
      </trkpt>
      <trkpt lat="43.50311" lon="1.52757">
        <ele>135</ele>
        <time>2020-05-31T14:35:38.000Z</time>
      </trkpt>
      <trkpt lat="43.50303" lon="1.52766">
        <ele>135</ele>
        <time>2020-05-31T14:35:40.000Z</time>
      </trkpt>
      <trkpt lat="43.50294" lon="1.52775">
        <ele>134.80000305176</ele>
        <time>2020-05-31T14:35:42.000Z</time>
      </trkpt>
      <trkpt lat="43.5029" lon="1.52779">
        <ele>134.60000610352</ele>
        <time>2020-05-31T14:35:43.000Z</time>
      </trkpt>
      <trkpt lat="43.50286" lon="1.52783">
        <ele>134.60000610352</ele>
        <time>2020-05-31T14:35:44.000Z</time>
      </trkpt>
      <trkpt lat="43.50278" lon="1.5279">
        <ele>134.60000610352</ele>
        <time>2020-05-31T14:35:46.000Z</time>
      </trkpt>
      <trkpt lat="43.50269" lon="1.52798">
        <ele>134.60000610352</ele>
        <time>2020-05-31T14:35:48.000Z</time>
      </trkpt>
      <trkpt lat="43.5026" lon="1.52806">
        <ele>134.60000610352</ele>
        <time>2020-05-31T14:35:50.000Z</time>
      </trkpt>
      <trkpt lat="43.50251" lon="1.52814">
        <ele>134.39999389648</ele>
        <time>2020-05-31T14:35:52.000Z</time>
      </trkpt>
      <trkpt lat="43.50242" lon="1.5282">
        <ele>134.19999694824</ele>
        <time>2020-05-31T14:35:54.000Z</time>
      </trkpt>
      <trkpt lat="43.50232" lon="1.52829">
        <ele>134</ele>
        <time>2020-05-31T14:35:56.000Z</time>
      </trkpt>
      <trkpt lat="43.50223" lon="1.52838">
        <ele>134.19999694824</ele>
        <time>2020-05-31T14:35:58.000Z</time>
      </trkpt>
      <trkpt lat="43.50214" lon="1.52845">
        <ele>134.39999389648</ele>
        <time>2020-05-31T14:36:00.000Z</time>
      </trkpt>
      <trkpt lat="43.50205" lon="1.52852">
        <ele>134.60000610352</ele>
        <time>2020-05-31T14:36:02.000Z</time>
      </trkpt>
      <trkpt lat="43.50197" lon="1.52859">
        <ele>134.60000610352</ele>
        <time>2020-05-31T14:36:04.000Z</time>
      </trkpt>
      <trkpt lat="43.50188" lon="1.52866">
        <ele>134.39999389648</ele>
        <time>2020-05-31T14:36:06.000Z</time>
      </trkpt>
      <trkpt lat="43.50179" lon="1.52874">
        <ele>134.19999694824</ele>
        <time>2020-05-31T14:36:08.000Z</time>
      </trkpt>
      <trkpt lat="43.50171" lon="1.52882">
        <ele>134.39999389648</ele>
        <time>2020-05-31T14:36:10.000Z</time>
      </trkpt>
      <trkpt lat="43.50162" lon="1.52889">
        <ele>134.39999389648</ele>
        <time>2020-05-31T14:36:12.000Z</time>
      </trkpt>
      <trkpt lat="43.50154" lon="1.52896">
        <ele>134.39999389648</ele>
        <time>2020-05-31T14:36:14.000Z</time>
      </trkpt>
      <trkpt lat="43.5015" lon="1.52899">
        <ele>134.39999389648</ele>
        <time>2020-05-31T14:36:15.000Z</time>
      </trkpt>
      <trkpt lat="43.50146" lon="1.52902">
        <ele>134.60000610352</ele>
        <time>2020-05-31T14:36:16.000Z</time>
      </trkpt>
      <trkpt lat="43.50136" lon="1.5291">
        <ele>134.60000610352</ele>
        <time>2020-05-31T14:36:18.000Z</time>
      </trkpt>
      <trkpt lat="43.50127" lon="1.5292">
        <ele>134.60000610352</ele>
        <time>2020-05-31T14:36:20.000Z</time>
      </trkpt>
      <trkpt lat="43.50119" lon="1.5293">
        <ele>134.39999389648</ele>
        <time>2020-05-31T14:36:22.000Z</time>
      </trkpt>
      <trkpt lat="43.5011" lon="1.5294">
        <ele>134.39999389648</ele>
        <time>2020-05-31T14:36:24.000Z</time>
      </trkpt>
      <trkpt lat="43.50101" lon="1.52949">
        <ele>134.39999389648</ele>
        <time>2020-05-31T14:36:26.000Z</time>
      </trkpt>
      <trkpt lat="43.50093" lon="1.52959">
        <ele>134.19999694824</ele>
        <time>2020-05-31T14:36:28.000Z</time>
      </trkpt>
      <trkpt lat="43.50085" lon="1.52971">
        <ele>134.19999694824</ele>
        <time>2020-05-31T14:36:30.000Z</time>
      </trkpt>
      <trkpt lat="43.50077" lon="1.52981">
        <ele>134</ele>
        <time>2020-05-31T14:36:32.000Z</time>
      </trkpt>
      <trkpt lat="43.50069" lon="1.52992">
        <ele>133.80000305176</ele>
        <time>2020-05-31T14:36:34.000Z</time>
      </trkpt>
      <trkpt lat="43.50061" lon="1.53002">
        <ele>133.80000305176</ele>
        <time>2020-05-31T14:36:36.000Z</time>
      </trkpt>
      <trkpt lat="43.50052" lon="1.53013">
        <ele>133.60000610352</ele>
        <time>2020-05-31T14:36:38.000Z</time>
      </trkpt>
      <trkpt lat="43.50045" lon="1.53023">
        <ele>133.39999389648</ele>
        <time>2020-05-31T14:36:40.000Z</time>
      </trkpt>
      <trkpt lat="43.50041" lon="1.53027">
        <ele>133.39999389648</ele>
        <time>2020-05-31T14:36:41.000Z</time>
      </trkpt>
      <trkpt lat="43.50037" lon="1.53031">
        <ele>133.39999389648</ele>
        <time>2020-05-31T14:36:42.000Z</time>
      </trkpt>
      <trkpt lat="43.5003" lon="1.53039">
        <ele>133.39999389648</ele>
        <time>2020-05-31T14:36:44.000Z</time>
      </trkpt>
      <trkpt lat="43.50022" lon="1.53048">
        <ele>133</ele>
        <time>2020-05-31T14:36:46.000Z</time>
      </trkpt>
      <trkpt lat="43.50014" lon="1.53056">
        <ele>133</ele>
        <time>2020-05-31T14:36:48.000Z</time>
      </trkpt>
      <trkpt lat="43.50005" lon="1.53064">
        <ele>133</ele>
        <time>2020-05-31T14:36:50.000Z</time>
      </trkpt>
      <trkpt lat="43.49997" lon="1.53071">
        <ele>133</ele>
        <time>2020-05-31T14:36:52.000Z</time>
      </trkpt>
      <trkpt lat="43.4999" lon="1.53077">
        <ele>133</ele>
        <time>2020-05-31T14:36:54.000Z</time>
      </trkpt>
      <trkpt lat="43.49982" lon="1.53085">
        <ele>133.19999694824</ele>
        <time>2020-05-31T14:36:56.000Z</time>
      </trkpt>
      <trkpt lat="43.49973" lon="1.53094">
        <ele>133.39999389648</ele>
        <time>2020-05-31T14:36:58.000Z</time>
      </trkpt>
      <trkpt lat="43.49966" lon="1.53102">
        <ele>133.39999389648</ele>
        <time>2020-05-31T14:37:00.000Z</time>
      </trkpt>
      <trkpt lat="43.49957" lon="1.5311">
        <ele>133.60000610352</ele>
        <time>2020-05-31T14:37:02.000Z</time>
      </trkpt>
      <trkpt lat="43.49949" lon="1.53117">
        <ele>133.80000305176</ele>
        <time>2020-05-31T14:37:04.000Z</time>
      </trkpt>
      <trkpt lat="43.4994" lon="1.53124">
        <ele>134</ele>
        <time>2020-05-31T14:37:06.000Z</time>
      </trkpt>
      <trkpt lat="43.49933" lon="1.53131">
        <ele>134</ele>
        <time>2020-05-31T14:37:08.000Z</time>
      </trkpt>
      <trkpt lat="43.49925" lon="1.53138">
        <ele>134</ele>
        <time>2020-05-31T14:37:10.000Z</time>
      </trkpt>
      <trkpt lat="43.49918" lon="1.53145">
        <ele>133.80000305176</ele>
        <time>2020-05-31T14:37:12.000Z</time>
      </trkpt>
      <trkpt lat="43.4991" lon="1.53152">
        <ele>133.60000610352</ele>
        <time>2020-05-31T14:37:14.000Z</time>
      </trkpt>
      <trkpt lat="43.49902" lon="1.53159">
        <ele>133.39999389648</ele>
        <time>2020-05-31T14:37:16.000Z</time>
      </trkpt>
      <trkpt lat="43.49893" lon="1.53167">
        <ele>133.60000610352</ele>
        <time>2020-05-31T14:37:18.000Z</time>
      </trkpt>
      <trkpt lat="43.49884" lon="1.53174">
        <ele>133.39999389648</ele>
        <time>2020-05-31T14:37:20.000Z</time>
      </trkpt>
      <trkpt lat="43.49874" lon="1.53183">
        <ele>133.39999389648</ele>
        <time>2020-05-31T14:37:22.000Z</time>
      </trkpt>
      <trkpt lat="43.49866" lon="1.53191">
        <ele>133.19999694824</ele>
        <time>2020-05-31T14:37:24.000Z</time>
      </trkpt>
      <trkpt lat="43.49857" lon="1.53201">
        <ele>133.19999694824</ele>
        <time>2020-05-31T14:37:26.000Z</time>
      </trkpt>
      <trkpt lat="43.49849" lon="1.53211">
        <ele>133.19999694824</ele>
        <time>2020-05-31T14:37:28.000Z</time>
      </trkpt>
      <trkpt lat="43.49841" lon="1.53221">
        <ele>133.39999389648</ele>
        <time>2020-05-31T14:37:30.000Z</time>
      </trkpt>
      <trkpt lat="43.49832" lon="1.5323">
        <ele>133.80000305176</ele>
        <time>2020-05-31T14:37:32.000Z</time>
      </trkpt>
      <trkpt lat="43.49825" lon="1.53239">
        <ele>134.19999694824</ele>
        <time>2020-05-31T14:37:34.000Z</time>
      </trkpt>
      <trkpt lat="43.49817" lon="1.53247">
        <ele>134.39999389648</ele>
        <time>2020-05-31T14:37:36.000Z</time>
      </trkpt>
      <trkpt lat="43.4981" lon="1.53258">
        <ele>134.39999389648</ele>
        <time>2020-05-31T14:37:38.000Z</time>
      </trkpt>
      <trkpt lat="43.49802" lon="1.53267">
        <ele>134.60000610352</ele>
        <time>2020-05-31T14:37:40.000Z</time>
      </trkpt>
      <trkpt lat="43.49794" lon="1.53278">
        <ele>134.60000610352</ele>
        <time>2020-05-31T14:37:42.000Z</time>
      </trkpt>
      <trkpt lat="43.49786" lon="1.53288">
        <ele>134.60000610352</ele>
        <time>2020-05-31T14:37:44.000Z</time>
      </trkpt>
      <trkpt lat="43.49782" lon="1.53294">
        <ele>134.60000610352</ele>
        <time>2020-05-31T14:37:45.000Z</time>
      </trkpt>
      <trkpt lat="43.49778" lon="1.533">
        <ele>134.60000610352</ele>
        <time>2020-05-31T14:37:46.000Z</time>
      </trkpt>
      <trkpt lat="43.49771" lon="1.53313">
        <ele>134.60000610352</ele>
        <time>2020-05-31T14:37:48.000Z</time>
      </trkpt>
      <trkpt lat="43.49764" lon="1.53325">
        <ele>134.60000610352</ele>
        <time>2020-05-31T14:37:50.000Z</time>
      </trkpt>
      <trkpt lat="43.49759" lon="1.53336">
        <ele>134.60000610352</ele>
        <time>2020-05-31T14:37:52.000Z</time>
      </trkpt>
      <trkpt lat="43.49753" lon="1.53348">
        <ele>134.60000610352</ele>
        <time>2020-05-31T14:37:54.000Z</time>
      </trkpt>
      <trkpt lat="43.49748" lon="1.53359">
        <ele>134.80000305176</ele>
        <time>2020-05-31T14:37:56.000Z</time>
      </trkpt>
      <trkpt lat="43.49742" lon="1.5337">
        <ele>134.80000305176</ele>
        <time>2020-05-31T14:37:58.000Z</time>
      </trkpt>
      <trkpt lat="43.49736" lon="1.53382">
        <ele>135.19999694824</ele>
        <time>2020-05-31T14:38:00.000Z</time>
      </trkpt>
      <trkpt lat="43.4973" lon="1.53395">
        <ele>135.39999389648</ele>
        <time>2020-05-31T14:38:02.000Z</time>
      </trkpt>
      <trkpt lat="43.49724" lon="1.53407">
        <ele>135.80000305176</ele>
        <time>2020-05-31T14:38:04.000Z</time>
      </trkpt>
      <trkpt lat="43.49718" lon="1.5342">
        <ele>136</ele>
        <time>2020-05-31T14:38:06.000Z</time>
      </trkpt>
      <trkpt lat="43.49711" lon="1.53432">
        <ele>136</ele>
        <time>2020-05-31T14:38:08.000Z</time>
      </trkpt>
      <trkpt lat="43.49704" lon="1.53442">
        <ele>136</ele>
        <time>2020-05-31T14:38:10.000Z</time>
      </trkpt>
      <trkpt lat="43.49697" lon="1.53453">
        <ele>136</ele>
        <time>2020-05-31T14:38:12.000Z</time>
      </trkpt>
      <trkpt lat="43.4969" lon="1.53463">
        <ele>136</ele>
        <time>2020-05-31T14:38:14.000Z</time>
      </trkpt>
      <trkpt lat="43.49683" lon="1.53473">
        <ele>135.60000610352</ele>
        <time>2020-05-31T14:38:16.000Z</time>
      </trkpt>
      <trkpt lat="43.49677" lon="1.53484">
        <ele>135.19999694824</ele>
        <time>2020-05-31T14:38:18.000Z</time>
      </trkpt>
      <trkpt lat="43.49671" lon="1.53494">
        <ele>134.80000305176</ele>
        <time>2020-05-31T14:38:20.000Z</time>
      </trkpt>
      <trkpt lat="43.49667" lon="1.53499">
        <ele>134.80000305176</ele>
        <time>2020-05-31T14:38:21.000Z</time>
      </trkpt>
      <trkpt lat="43.49664" lon="1.53504">
        <ele>134.60000610352</ele>
        <time>2020-05-31T14:38:22.000Z</time>
      </trkpt>
      <trkpt lat="43.49657" lon="1.53513">
        <ele>134.39999389648</ele>
        <time>2020-05-31T14:38:24.000Z</time>
      </trkpt>
      <trkpt lat="43.4965" lon="1.53521">
        <ele>134.39999389648</ele>
        <time>2020-05-31T14:38:26.000Z</time>
      </trkpt>
      <trkpt lat="43.49643" lon="1.53528">
        <ele>134.39999389648</ele>
        <time>2020-05-31T14:38:28.000Z</time>
      </trkpt>
      <trkpt lat="43.49637" lon="1.53535">
        <ele>134.19999694824</ele>
        <time>2020-05-31T14:38:30.000Z</time>
      </trkpt>
      <trkpt lat="43.4963" lon="1.53542">
        <ele>134.19999694824</ele>
        <time>2020-05-31T14:38:32.000Z</time>
      </trkpt>
      <trkpt lat="43.49624" lon="1.53549">
        <ele>134.19999694824</ele>
        <time>2020-05-31T14:38:34.000Z</time>
      </trkpt>
      <trkpt lat="43.49618" lon="1.53554">
        <ele>134.19999694824</ele>
        <time>2020-05-31T14:38:36.000Z</time>
      </trkpt>
      <trkpt lat="43.49614" lon="1.53559">
        <ele>134.19999694824</ele>
        <time>2020-05-31T14:38:38.000Z</time>
      </trkpt>
      <trkpt lat="43.49611" lon="1.53564">
        <ele>134.39999389648</ele>
        <time>2020-05-31T14:38:40.000Z</time>
      </trkpt>
      <trkpt lat="43.49606" lon="1.53569">
        <ele>134.60000610352</ele>
        <time>2020-05-31T14:38:42.000Z</time>
      </trkpt>
      <trkpt lat="43.496" lon="1.53572">
        <ele>135.39999389648</ele>
        <time>2020-05-31T14:38:44.000Z</time>
      </trkpt>
      <trkpt lat="43.49593" lon="1.53576">
        <ele>135.80000305176</ele>
        <time>2020-05-31T14:38:46.000Z</time>
      </trkpt>
      <trkpt lat="43.49585" lon="1.53581">
        <ele>136</ele>
        <time>2020-05-31T14:38:48.000Z</time>
      </trkpt>
      <trkpt lat="43.49575" lon="1.53586">
        <ele>136</ele>
        <time>2020-05-31T14:38:50.000Z</time>
      </trkpt>
      <trkpt lat="43.49565" lon="1.5359">
        <ele>136</ele>
        <time>2020-05-31T14:38:52.000Z</time>
      </trkpt>
      <trkpt lat="43.49555" lon="1.53596">
        <ele>135.80000305176</ele>
        <time>2020-05-31T14:38:54.000Z</time>
      </trkpt>
      <trkpt lat="43.49545" lon="1.536">
        <ele>135.39999389648</ele>
        <time>2020-05-31T14:38:56.000Z</time>
      </trkpt>
      <trkpt lat="43.49535" lon="1.53604">
        <ele>134.39999389648</ele>
        <time>2020-05-31T14:38:58.000Z</time>
      </trkpt>
      <trkpt lat="43.49525" lon="1.53608">
        <ele>134.19999694824</ele>
        <time>2020-05-31T14:39:00.000Z</time>
      </trkpt>
      <trkpt lat="43.49515" lon="1.53611">
        <ele>134</ele>
        <time>2020-05-31T14:39:02.000Z</time>
      </trkpt>
      <trkpt lat="43.49505" lon="1.53614">
        <ele>134</ele>
        <time>2020-05-31T14:39:04.000Z</time>
      </trkpt>
      <trkpt lat="43.49496" lon="1.53618">
        <ele>133.80000305176</ele>
        <time>2020-05-31T14:39:06.000Z</time>
      </trkpt>
      <trkpt lat="43.49486" lon="1.53621">
        <ele>133.80000305176</ele>
        <time>2020-05-31T14:39:08.000Z</time>
      </trkpt>
      <trkpt lat="43.49477" lon="1.53623">
        <ele>133.80000305176</ele>
        <time>2020-05-31T14:39:10.000Z</time>
      </trkpt>
      <trkpt lat="43.49468" lon="1.53626">
        <ele>134</ele>
        <time>2020-05-31T14:39:12.000Z</time>
      </trkpt>
      <trkpt lat="43.4946" lon="1.53629">
        <ele>134</ele>
        <time>2020-05-31T14:39:14.000Z</time>
      </trkpt>
      <trkpt lat="43.49451" lon="1.53631">
        <ele>134.19999694824</ele>
        <time>2020-05-31T14:39:16.000Z</time>
      </trkpt>
      <trkpt lat="43.49442" lon="1.53632">
        <ele>134.19999694824</ele>
        <time>2020-05-31T14:39:18.000Z</time>
      </trkpt>
      <trkpt lat="43.49433" lon="1.53634">
        <ele>134.39999389648</ele>
        <time>2020-05-31T14:39:20.000Z</time>
      </trkpt>
      <trkpt lat="43.49424" lon="1.53636">
        <ele>134.80000305176</ele>
        <time>2020-05-31T14:39:22.000Z</time>
      </trkpt>
      <trkpt lat="43.49415" lon="1.53638">
        <ele>135.60000610352</ele>
        <time>2020-05-31T14:39:24.000Z</time>
      </trkpt>
      <trkpt lat="43.49406" lon="1.53639">
        <ele>136.39999389648</ele>
        <time>2020-05-31T14:39:26.000Z</time>
      </trkpt>
      <trkpt lat="43.49397" lon="1.53641">
        <ele>136.60000610352</ele>
        <time>2020-05-31T14:39:28.000Z</time>
      </trkpt>
      <trkpt lat="43.49392" lon="1.53642">
        <ele>136.80000305176</ele>
        <time>2020-05-31T14:39:29.000Z</time>
      </trkpt>
      <trkpt lat="43.49388" lon="1.53644">
        <ele>136.80000305176</ele>
        <time>2020-05-31T14:39:30.000Z</time>
      </trkpt>
      <trkpt lat="43.49379" lon="1.53645">
        <ele>136.80000305176</ele>
        <time>2020-05-31T14:39:32.000Z</time>
      </trkpt>
      <trkpt lat="43.49369" lon="1.53647">
        <ele>136.80000305176</ele>
        <time>2020-05-31T14:39:34.000Z</time>
      </trkpt>
      <trkpt lat="43.49357" lon="1.5365">
        <ele>136.80000305176</ele>
        <time>2020-05-31T14:39:36.000Z</time>
      </trkpt>
      <trkpt lat="43.49346" lon="1.53652">
        <ele>137</ele>
        <time>2020-05-31T14:39:38.000Z</time>
      </trkpt>
      <trkpt lat="43.49338" lon="1.53653">
        <ele>137</ele>
        <time>2020-05-31T14:39:40.000Z</time>
      </trkpt>
      <trkpt lat="43.49331" lon="1.53653">
        <ele>137</ele>
        <time>2020-05-31T14:39:42.000Z</time>
      </trkpt>
      <trkpt lat="43.49324" lon="1.53653">
        <ele>137.19999694824</ele>
        <time>2020-05-31T14:39:44.000Z</time>
      </trkpt>
      <trkpt lat="43.4932" lon="1.53653">
        <ele>137.39999389648</ele>
        <time>2020-05-31T14:39:45.000Z</time>
      </trkpt>
      <trkpt lat="43.49316" lon="1.53653">
        <ele>137.39999389648</ele>
        <time>2020-05-31T14:39:46.000Z</time>
      </trkpt>
      <trkpt lat="43.49307" lon="1.53654">
        <ele>137.60000610352</ele>
        <time>2020-05-31T14:39:48.000Z</time>
      </trkpt>
      <trkpt lat="43.49296" lon="1.53655">
        <ele>137.80000305176</ele>
        <time>2020-05-31T14:39:50.000Z</time>
      </trkpt>
      <trkpt lat="43.49285" lon="1.53656">
        <ele>137.80000305176</ele>
        <time>2020-05-31T14:39:52.000Z</time>
      </trkpt>
      <trkpt lat="43.49275" lon="1.53657">
        <ele>137.80000305176</ele>
        <time>2020-05-31T14:39:54.000Z</time>
      </trkpt>
      <trkpt lat="43.49264" lon="1.53658">
        <ele>137.80000305176</ele>
        <time>2020-05-31T14:39:56.000Z</time>
      </trkpt>
      <trkpt lat="43.49254" lon="1.53659">
        <ele>137.39999389648</ele>
        <time>2020-05-31T14:39:58.000Z</time>
      </trkpt>
      <trkpt lat="43.49244" lon="1.53658">
        <ele>137</ele>
        <time>2020-05-31T14:40:00.000Z</time>
      </trkpt>
      <trkpt lat="43.49234" lon="1.53658">
        <ele>137</ele>
        <time>2020-05-31T14:40:02.000Z</time>
      </trkpt>
      <trkpt lat="43.49224" lon="1.53657">
        <ele>137</ele>
        <time>2020-05-31T14:40:04.000Z</time>
      </trkpt>
      <trkpt lat="43.49219" lon="1.53656">
        <ele>137</ele>
        <time>2020-05-31T14:40:05.000Z</time>
      </trkpt>
      <trkpt lat="43.49214" lon="1.53656">
        <ele>137</ele>
        <time>2020-05-31T14:40:06.000Z</time>
      </trkpt>
      <trkpt lat="43.49204" lon="1.53655">
        <ele>137</ele>
        <time>2020-05-31T14:40:08.000Z</time>
      </trkpt>
      <trkpt lat="43.49199" lon="1.53655">
        <ele>137.19999694824</ele>
        <time>2020-05-31T14:40:09.000Z</time>
      </trkpt>
      <trkpt lat="43.49195" lon="1.53655">
        <ele>137.60000610352</ele>
        <time>2020-05-31T14:40:10.000Z</time>
      </trkpt>
      <trkpt lat="43.49185" lon="1.53654">
        <ele>137.80000305176</ele>
        <time>2020-05-31T14:40:12.000Z</time>
      </trkpt>
      <trkpt lat="43.49176" lon="1.53653">
        <ele>137.80000305176</ele>
        <time>2020-05-31T14:40:14.000Z</time>
      </trkpt>
      <trkpt lat="43.49166" lon="1.53652">
        <ele>137.80000305176</ele>
        <time>2020-05-31T14:40:16.000Z</time>
      </trkpt>
      <trkpt lat="43.49156" lon="1.5365">
        <ele>137.80000305176</ele>
        <time>2020-05-31T14:40:18.000Z</time>
      </trkpt>
      <trkpt lat="43.49147" lon="1.53648">
        <ele>137.80000305176</ele>
        <time>2020-05-31T14:40:20.000Z</time>
      </trkpt>
      <trkpt lat="43.49136" lon="1.53646">
        <ele>137.39999389648</ele>
        <time>2020-05-31T14:40:22.000Z</time>
      </trkpt>
      <trkpt lat="43.49125" lon="1.53644">
        <ele>137.39999389648</ele>
        <time>2020-05-31T14:40:24.000Z</time>
      </trkpt>
      <trkpt lat="43.49113" lon="1.53639">
        <ele>137.19999694824</ele>
        <time>2020-05-31T14:40:26.000Z</time>
      </trkpt>
      <trkpt lat="43.49101" lon="1.53635">
        <ele>137.19999694824</ele>
        <time>2020-05-31T14:40:28.000Z</time>
      </trkpt>
      <trkpt lat="43.49088" lon="1.53631">
        <ele>137.19999694824</ele>
        <time>2020-05-31T14:40:30.000Z</time>
      </trkpt>
      <trkpt lat="43.49077" lon="1.53626">
        <ele>136.80000305176</ele>
        <time>2020-05-31T14:40:32.000Z</time>
      </trkpt>
      <trkpt lat="43.49065" lon="1.53623">
        <ele>136.60000610352</ele>
        <time>2020-05-31T14:40:34.000Z</time>
      </trkpt>
      <trkpt lat="43.49054" lon="1.53621">
        <ele>136.19999694824</ele>
        <time>2020-05-31T14:40:36.000Z</time>
      </trkpt>
      <trkpt lat="43.49043" lon="1.53619">
        <ele>136.19999694824</ele>
        <time>2020-05-31T14:40:38.000Z</time>
      </trkpt>
      <trkpt lat="43.49037" lon="1.53619">
        <ele>136.19999694824</ele>
        <time>2020-05-31T14:40:39.000Z</time>
      </trkpt>
      <trkpt lat="43.49032" lon="1.5362">
        <ele>136.39999389648</ele>
        <time>2020-05-31T14:40:40.000Z</time>
      </trkpt>
      <trkpt lat="43.49021" lon="1.53623">
        <ele>136.19999694824</ele>
        <time>2020-05-31T14:40:42.000Z</time>
      </trkpt>
      <trkpt lat="43.4901" lon="1.53627">
        <ele>136.19999694824</ele>
        <time>2020-05-31T14:40:44.000Z</time>
      </trkpt>
      <trkpt lat="43.49002" lon="1.53633">
        <ele>136.19999694824</ele>
        <time>2020-05-31T14:40:46.000Z</time>
      </trkpt>
      <trkpt lat="43.48994" lon="1.5364">
        <ele>136.39999389648</ele>
        <time>2020-05-31T14:40:48.000Z</time>
      </trkpt>
      <trkpt lat="43.48988" lon="1.53647">
        <ele>136.60000610352</ele>
        <time>2020-05-31T14:40:50.000Z</time>
      </trkpt>
      <trkpt lat="43.48982" lon="1.53656">
        <ele>136.80000305176</ele>
        <time>2020-05-31T14:40:52.000Z</time>
      </trkpt>
      <trkpt lat="43.48979" lon="1.53661">
        <ele>136.80000305176</ele>
        <time>2020-05-31T14:40:53.000Z</time>
      </trkpt>
      <trkpt lat="43.48976" lon="1.53667">
        <ele>137</ele>
        <time>2020-05-31T14:40:54.000Z</time>
      </trkpt>
      <trkpt lat="43.48972" lon="1.53679">
        <ele>137.19999694824</ele>
        <time>2020-05-31T14:40:56.000Z</time>
      </trkpt>
      <trkpt lat="43.48969" lon="1.53693">
        <ele>137.39999389648</ele>
        <time>2020-05-31T14:40:58.000Z</time>
      </trkpt>
      <trkpt lat="43.48966" lon="1.53707">
        <ele>137.60000610352</ele>
        <time>2020-05-31T14:41:00.000Z</time>
      </trkpt>
      <trkpt lat="43.48964" lon="1.53721">
        <ele>137.60000610352</ele>
        <time>2020-05-31T14:41:02.000Z</time>
      </trkpt>
      <trkpt lat="43.48963" lon="1.53736">
        <ele>137.80000305176</ele>
        <time>2020-05-31T14:41:04.000Z</time>
      </trkpt>
      <trkpt lat="43.48963" lon="1.5375">
        <ele>137.60000610352</ele>
        <time>2020-05-31T14:41:06.000Z</time>
      </trkpt>
      <trkpt lat="43.48963" lon="1.53766">
        <ele>137.60000610352</ele>
        <time>2020-05-31T14:41:08.000Z</time>
      </trkpt>
      <trkpt lat="43.48963" lon="1.53781">
        <ele>137.60000610352</ele>
        <time>2020-05-31T14:41:10.000Z</time>
      </trkpt>
      <trkpt lat="43.48963" lon="1.53795">
        <ele>137.60000610352</ele>
        <time>2020-05-31T14:41:12.000Z</time>
      </trkpt>
      <trkpt lat="43.48964" lon="1.53802">
        <ele>137.60000610352</ele>
        <time>2020-05-31T14:41:13.000Z</time>
      </trkpt>
      <trkpt lat="43.48965" lon="1.5381">
        <ele>137.60000610352</ele>
        <time>2020-05-31T14:41:14.000Z</time>
      </trkpt>
      <trkpt lat="43.48967" lon="1.53824">
        <ele>137.80000305176</ele>
        <time>2020-05-31T14:41:16.000Z</time>
      </trkpt>
      <trkpt lat="43.48969" lon="1.53839">
        <ele>137.80000305176</ele>
        <time>2020-05-31T14:41:18.000Z</time>
      </trkpt>
      <trkpt lat="43.48971" lon="1.53854">
        <ele>137.80000305176</ele>
        <time>2020-05-31T14:41:20.000Z</time>
      </trkpt>
      <trkpt lat="43.48972" lon="1.53862">
        <ele>137.80000305176</ele>
        <time>2020-05-31T14:41:21.000Z</time>
      </trkpt>
      <trkpt lat="43.48973" lon="1.5387">
        <ele>137.80000305176</ele>
        <time>2020-05-31T14:41:22.000Z</time>
      </trkpt>
      <trkpt lat="43.48974" lon="1.53887">
        <ele>137.80000305176</ele>
        <time>2020-05-31T14:41:24.000Z</time>
      </trkpt>
      <trkpt lat="43.48976" lon="1.53903">
        <ele>138</ele>
        <time>2020-05-31T14:41:26.000Z</time>
      </trkpt>
      <trkpt lat="43.48977" lon="1.5392">
        <ele>138</ele>
        <time>2020-05-31T14:41:28.000Z</time>
      </trkpt>
      <trkpt lat="43.48979" lon="1.53935">
        <ele>138</ele>
        <time>2020-05-31T14:41:30.000Z</time>
      </trkpt>
      <trkpt lat="43.48979" lon="1.5395">
        <ele>138</ele>
        <time>2020-05-31T14:41:32.000Z</time>
      </trkpt>
      <trkpt lat="43.4898" lon="1.53965">
        <ele>138</ele>
        <time>2020-05-31T14:41:34.000Z</time>
      </trkpt>
      <trkpt lat="43.4898" lon="1.5398">
        <ele>137.60000610352</ele>
        <time>2020-05-31T14:41:36.000Z</time>
      </trkpt>
      <trkpt lat="43.48979" lon="1.53995">
        <ele>137.19999694824</ele>
        <time>2020-05-31T14:41:38.000Z</time>
      </trkpt>
      <trkpt lat="43.48978" lon="1.54009">
        <ele>137.19999694824</ele>
        <time>2020-05-31T14:41:40.000Z</time>
      </trkpt>
      <trkpt lat="43.48977" lon="1.54024">
        <ele>137</ele>
        <time>2020-05-31T14:41:42.000Z</time>
      </trkpt>
      <trkpt lat="43.48977" lon="1.54037">
        <ele>137</ele>
        <time>2020-05-31T14:41:44.000Z</time>
      </trkpt>
      <trkpt lat="43.48977" lon="1.54051">
        <ele>137</ele>
        <time>2020-05-31T14:41:46.000Z</time>
      </trkpt>
      <trkpt lat="43.48976" lon="1.54064">
        <ele>137</ele>
        <time>2020-05-31T14:41:48.000Z</time>
      </trkpt>
      <trkpt lat="43.48976" lon="1.54078">
        <ele>137</ele>
        <time>2020-05-31T14:41:50.000Z</time>
      </trkpt>
      <trkpt lat="43.48975" lon="1.54092">
        <ele>137</ele>
        <time>2020-05-31T14:41:52.000Z</time>
      </trkpt>
      <trkpt lat="43.48974" lon="1.54106">
        <ele>137.19999694824</ele>
        <time>2020-05-31T14:41:54.000Z</time>
      </trkpt>
      <trkpt lat="43.48973" lon="1.5412">
        <ele>137.19999694824</ele>
        <time>2020-05-31T14:41:56.000Z</time>
      </trkpt>
      <trkpt lat="43.48971" lon="1.54133">
        <ele>137.39999389648</ele>
        <time>2020-05-31T14:41:58.000Z</time>
      </trkpt>
      <trkpt lat="43.48969" lon="1.54146">
        <ele>137.39999389648</ele>
        <time>2020-05-31T14:42:00.000Z</time>
      </trkpt>
      <trkpt lat="43.48967" lon="1.54159">
        <ele>137.39999389648</ele>
        <time>2020-05-31T14:42:02.000Z</time>
      </trkpt>
      <trkpt lat="43.48964" lon="1.54172">
        <ele>137.39999389648</ele>
        <time>2020-05-31T14:42:04.000Z</time>
      </trkpt>
      <trkpt lat="43.48961" lon="1.54184">
        <ele>137.39999389648</ele>
        <time>2020-05-31T14:42:06.000Z</time>
      </trkpt>
      <trkpt lat="43.48958" lon="1.54197">
        <ele>137.39999389648</ele>
        <time>2020-05-31T14:42:08.000Z</time>
      </trkpt>
      <trkpt lat="43.48954" lon="1.5421">
        <ele>137.39999389648</ele>
        <time>2020-05-31T14:42:10.000Z</time>
      </trkpt>
      <trkpt lat="43.4895" lon="1.54224">
        <ele>137.39999389648</ele>
        <time>2020-05-31T14:42:12.000Z</time>
      </trkpt>
      <trkpt lat="43.48946" lon="1.54235">
        <ele>137.19999694824</ele>
        <time>2020-05-31T14:42:14.000Z</time>
      </trkpt>
      <trkpt lat="43.48944" lon="1.5424">
        <ele>137.19999694824</ele>
        <time>2020-05-31T14:42:15.000Z</time>
      </trkpt>
      <trkpt lat="43.48941" lon="1.54246">
        <ele>137.19999694824</ele>
        <time>2020-05-31T14:42:16.000Z</time>
      </trkpt>
      <trkpt lat="43.48937" lon="1.54256">
        <ele>137.19999694824</ele>
        <time>2020-05-31T14:42:18.000Z</time>
      </trkpt>
      <trkpt lat="43.48932" lon="1.54264">
        <ele>137</ele>
        <time>2020-05-31T14:42:20.000Z</time>
      </trkpt>
      <trkpt lat="43.48927" lon="1.54272">
        <ele>136.80000305176</ele>
        <time>2020-05-31T14:42:22.000Z</time>
      </trkpt>
      <trkpt lat="43.48921" lon="1.54281">
        <ele>136.60000610352</ele>
        <time>2020-05-31T14:42:24.000Z</time>
      </trkpt>
      <trkpt lat="43.48914" lon="1.5429">
        <ele>136.60000610352</ele>
        <time>2020-05-31T14:42:26.000Z</time>
      </trkpt>
      <trkpt lat="43.48907" lon="1.543">
        <ele>136.60000610352</ele>
        <time>2020-05-31T14:42:28.000Z</time>
      </trkpt>
      <trkpt lat="43.489" lon="1.5431">
        <ele>136.60000610352</ele>
        <time>2020-05-31T14:42:30.000Z</time>
      </trkpt>
      <trkpt lat="43.48894" lon="1.54319">
        <ele>136.60000610352</ele>
        <time>2020-05-31T14:42:32.000Z</time>
      </trkpt>
      <trkpt lat="43.48887" lon="1.54327">
        <ele>136.60000610352</ele>
        <time>2020-05-31T14:42:34.000Z</time>
      </trkpt>
      <trkpt lat="43.4888" lon="1.54336">
        <ele>136.60000610352</ele>
        <time>2020-05-31T14:42:36.000Z</time>
      </trkpt>
      <trkpt lat="43.48873" lon="1.54346">
        <ele>136.60000610352</ele>
        <time>2020-05-31T14:42:38.000Z</time>
      </trkpt>
      <trkpt lat="43.48865" lon="1.54357">
        <ele>136.39999389648</ele>
        <time>2020-05-31T14:42:40.000Z</time>
      </trkpt>
      <trkpt lat="43.48857" lon="1.54367">
        <ele>136.39999389648</ele>
        <time>2020-05-31T14:42:42.000Z</time>
      </trkpt>
      <trkpt lat="43.48854" lon="1.54373">
        <ele>136.39999389648</ele>
        <time>2020-05-31T14:42:43.000Z</time>
      </trkpt>
      <trkpt lat="43.4885" lon="1.54377">
        <ele>136.19999694824</ele>
        <time>2020-05-31T14:42:44.000Z</time>
      </trkpt>
      <trkpt lat="43.48844" lon="1.54388">
        <ele>136.19999694824</ele>
        <time>2020-05-31T14:42:46.000Z</time>
      </trkpt>
      <trkpt lat="43.48837" lon="1.54398">
        <ele>136.19999694824</ele>
        <time>2020-05-31T14:42:48.000Z</time>
      </trkpt>
      <trkpt lat="43.4883" lon="1.54407">
        <ele>136.19999694824</ele>
        <time>2020-05-31T14:42:50.000Z</time>
      </trkpt>
      <trkpt lat="43.48824" lon="1.54417">
        <ele>136</ele>
        <time>2020-05-31T14:42:52.000Z</time>
      </trkpt>
      <trkpt lat="43.48818" lon="1.54426">
        <ele>135.80000305176</ele>
        <time>2020-05-31T14:42:54.000Z</time>
      </trkpt>
      <trkpt lat="43.48811" lon="1.54435">
        <ele>136</ele>
        <time>2020-05-31T14:42:56.000Z</time>
      </trkpt>
      <trkpt lat="43.48805" lon="1.54445">
        <ele>136.19999694824</ele>
        <time>2020-05-31T14:42:58.000Z</time>
      </trkpt>
      <trkpt lat="43.48799" lon="1.54456">
        <ele>136.39999389648</ele>
        <time>2020-05-31T14:43:00.000Z</time>
      </trkpt>
      <trkpt lat="43.48793" lon="1.54465">
        <ele>136.39999389648</ele>
        <time>2020-05-31T14:43:02.000Z</time>
      </trkpt>
      <trkpt lat="43.48787" lon="1.54474">
        <ele>136.39999389648</ele>
        <time>2020-05-31T14:43:04.000Z</time>
      </trkpt>
      <trkpt lat="43.4878" lon="1.54485">
        <ele>136.60000610352</ele>
        <time>2020-05-31T14:43:06.000Z</time>
      </trkpt>
      <trkpt lat="43.48772" lon="1.54498">
        <ele>136.60000610352</ele>
        <time>2020-05-31T14:43:08.000Z</time>
      </trkpt>
      <trkpt lat="43.48763" lon="1.5451">
        <ele>136.60000610352</ele>
        <time>2020-05-31T14:43:10.000Z</time>
      </trkpt>
      <trkpt lat="43.48755" lon="1.5452">
        <ele>136.60000610352</ele>
        <time>2020-05-31T14:43:12.000Z</time>
      </trkpt>
      <trkpt lat="43.48746" lon="1.54529">
        <ele>136.39999389648</ele>
        <time>2020-05-31T14:43:14.000Z</time>
      </trkpt>
      <trkpt lat="43.48737" lon="1.54539">
        <ele>135.60000610352</ele>
        <time>2020-05-31T14:43:16.000Z</time>
      </trkpt>
      <trkpt lat="43.48733" lon="1.54544">
        <ele>135.19999694824</ele>
        <time>2020-05-31T14:43:17.000Z</time>
      </trkpt>
      <trkpt lat="43.48728" lon="1.54547">
        <ele>135</ele>
        <time>2020-05-31T14:43:18.000Z</time>
      </trkpt>
      <trkpt lat="43.48719" lon="1.54557">
        <ele>134.80000305176</ele>
        <time>2020-05-31T14:43:20.000Z</time>
      </trkpt>
      <trkpt lat="43.4871" lon="1.54565">
        <ele>134.60000610352</ele>
        <time>2020-05-31T14:43:22.000Z</time>
      </trkpt>
      <trkpt lat="43.487" lon="1.54574">
        <ele>134.60000610352</ele>
        <time>2020-05-31T14:43:24.000Z</time>
      </trkpt>
      <trkpt lat="43.48689" lon="1.54581">
        <ele>134.39999389648</ele>
        <time>2020-05-31T14:43:26.000Z</time>
      </trkpt>
      <trkpt lat="43.48679" lon="1.54588">
        <ele>134.19999694824</ele>
        <time>2020-05-31T14:43:28.000Z</time>
      </trkpt>
      <trkpt lat="43.48668" lon="1.54596">
        <ele>134.19999694824</ele>
        <time>2020-05-31T14:43:30.000Z</time>
      </trkpt>
      <trkpt lat="43.48657" lon="1.54601">
        <ele>134.19999694824</ele>
        <time>2020-05-31T14:43:32.000Z</time>
      </trkpt>
      <trkpt lat="43.48648" lon="1.54605">
        <ele>134.19999694824</ele>
        <time>2020-05-31T14:43:34.000Z</time>
      </trkpt>
      <trkpt lat="43.48637" lon="1.54611">
        <ele>134.39999389648</ele>
        <time>2020-05-31T14:43:36.000Z</time>
      </trkpt>
      <trkpt lat="43.48627" lon="1.54615">
        <ele>134.19999694824</ele>
        <time>2020-05-31T14:43:38.000Z</time>
      </trkpt>
      <trkpt lat="43.48621" lon="1.54616">
        <ele>134.19999694824</ele>
        <time>2020-05-31T14:43:39.000Z</time>
      </trkpt>
      <trkpt lat="43.48616" lon="1.54618">
        <ele>134.19999694824</ele>
        <time>2020-05-31T14:43:40.000Z</time>
      </trkpt>
      <trkpt lat="43.48605" lon="1.54621">
        <ele>134.39999389648</ele>
        <time>2020-05-31T14:43:42.000Z</time>
      </trkpt>
      <trkpt lat="43.486" lon="1.54623">
        <ele>134.60000610352</ele>
        <time>2020-05-31T14:43:43.000Z</time>
      </trkpt>
      <trkpt lat="43.48595" lon="1.54625">
        <ele>134.60000610352</ele>
        <time>2020-05-31T14:43:44.000Z</time>
      </trkpt>
      <trkpt lat="43.48586" lon="1.54627">
        <ele>134.60000610352</ele>
        <time>2020-05-31T14:43:46.000Z</time>
      </trkpt>
      <trkpt lat="43.48581" lon="1.54628">
        <ele>134.80000305176</ele>
        <time>2020-05-31T14:43:47.000Z</time>
      </trkpt>
      <trkpt lat="43.48576" lon="1.54628">
        <ele>135</ele>
        <time>2020-05-31T14:43:48.000Z</time>
      </trkpt>
      <trkpt lat="43.48566" lon="1.54628">
        <ele>135</ele>
        <time>2020-05-31T14:43:50.000Z</time>
      </trkpt>
      <trkpt lat="43.48556" lon="1.5463">
        <ele>135</ele>
        <time>2020-05-31T14:43:52.000Z</time>
      </trkpt>
      <trkpt lat="43.48551" lon="1.54631">
        <ele>135.19999694824</ele>
        <time>2020-05-31T14:43:53.000Z</time>
      </trkpt>
      <trkpt lat="43.48546" lon="1.54631">
        <ele>135.19999694824</ele>
        <time>2020-05-31T14:43:54.000Z</time>
      </trkpt>
      <trkpt lat="43.48542" lon="1.54631">
        <ele>135.39999389648</ele>
        <time>2020-05-31T14:43:55.000Z</time>
      </trkpt>
      <trkpt lat="43.48536" lon="1.54633">
        <ele>135.60000610352</ele>
        <time>2020-05-31T14:43:56.000Z</time>
      </trkpt>
      <trkpt lat="43.48527" lon="1.54636">
        <ele>135.80000305176</ele>
        <time>2020-05-31T14:43:58.000Z</time>
      </trkpt>
      <trkpt lat="43.48518" lon="1.54638">
        <ele>135.80000305176</ele>
        <time>2020-05-31T14:44:00.000Z</time>
      </trkpt>
      <trkpt lat="43.48514" lon="1.54638">
        <ele>135.80000305176</ele>
        <time>2020-05-31T14:44:01.000Z</time>
      </trkpt>
      <trkpt lat="43.4851" lon="1.54638">
        <ele>136</ele>
        <time>2020-05-31T14:44:02.000Z</time>
      </trkpt>
      <trkpt lat="43.48502" lon="1.5464">
        <ele>136</ele>
        <time>2020-05-31T14:44:04.000Z</time>
      </trkpt>
      <trkpt lat="43.48493" lon="1.54644">
        <ele>136</ele>
        <time>2020-05-31T14:44:06.000Z</time>
      </trkpt>
      <trkpt lat="43.48485" lon="1.54648">
        <ele>136</ele>
        <time>2020-05-31T14:44:08.000Z</time>
      </trkpt>
      <trkpt lat="43.48477" lon="1.54653">
        <ele>136.19999694824</ele>
        <time>2020-05-31T14:44:10.000Z</time>
      </trkpt>
      <trkpt lat="43.48473" lon="1.54655">
        <ele>136.60000610352</ele>
        <time>2020-05-31T14:44:11.000Z</time>
      </trkpt>
      <trkpt lat="43.4847" lon="1.54657">
        <ele>136.80000305176</ele>
        <time>2020-05-31T14:44:12.000Z</time>
      </trkpt>
      <trkpt lat="43.48464" lon="1.5466">
        <ele>137.19999694824</ele>
        <time>2020-05-31T14:44:14.000Z</time>
      </trkpt>
      <trkpt lat="43.48458" lon="1.54664">
        <ele>137.39999389648</ele>
        <time>2020-05-31T14:44:16.000Z</time>
      </trkpt>
      <trkpt lat="43.48452" lon="1.54667">
        <ele>137.39999389648</ele>
        <time>2020-05-31T14:44:18.000Z</time>
      </trkpt>
      <trkpt lat="43.48448" lon="1.5467">
        <ele>137.60000610352</ele>
        <time>2020-05-31T14:44:20.000Z</time>
      </trkpt>
      <trkpt lat="43.48446" lon="1.54675">
        <ele>138.60000610352</ele>
        <time>2020-05-31T14:51:57.000Z</time>
      </trkpt>
      <trkpt lat="43.48448" lon="1.54673">
        <ele>138.60000610352</ele>
        <time>2020-05-31T14:52:00.000Z</time>
      </trkpt>
      <trkpt lat="43.4849" lon="1.54655">
        <ele>138</ele>
        <time>2020-05-31T14:52:13.000Z</time>
      </trkpt>
      <trkpt lat="43.48504" lon="1.54651">
        <ele>138</ele>
        <time>2020-05-31T14:52:16.000Z</time>
      </trkpt>
      <trkpt lat="43.48556" lon="1.54642">
        <ele>136.80000305176</ele>
        <time>2020-05-31T14:52:25.000Z</time>
      </trkpt>
      <trkpt lat="43.48611" lon="1.54631">
        <ele>136.60000610352</ele>
        <time>2020-05-31T14:52:34.000Z</time>
      </trkpt>
      <trkpt lat="43.48659" lon="1.54612">
        <ele>137</ele>
        <time>2020-05-31T14:52:44.000Z</time>
      </trkpt>
      <trkpt lat="43.48707" lon="1.54578">
        <ele>137.19999694824</ele>
        <time>2020-05-31T14:52:53.000Z</time>
      </trkpt>
      <trkpt lat="43.48754" lon="1.54528">
        <ele>136.80000305176</ele>
        <time>2020-05-31T14:53:02.000Z</time>
      </trkpt>
      <trkpt lat="43.48774" lon="1.54501">
        <ele>137</ele>
        <time>2020-05-31T14:53:07.000Z</time>
      </trkpt>
      <trkpt lat="43.48812" lon="1.54444">
        <ele>137.39999389648</ele>
        <time>2020-05-31T14:53:16.000Z</time>
      </trkpt>
      <trkpt lat="43.48851" lon="1.54386">
        <ele>137.19999694824</ele>
        <time>2020-05-31T14:53:24.000Z</time>
      </trkpt>
      <trkpt lat="43.48892" lon="1.54333">
        <ele>136.60000610352</ele>
        <time>2020-05-31T14:53:33.000Z</time>
      </trkpt>
      <trkpt lat="43.48931" lon="1.54276">
        <ele>136.60000610352</ele>
        <time>2020-05-31T14:53:42.000Z</time>
      </trkpt>
      <trkpt lat="43.48963" lon="1.54213">
        <ele>136.19999694824</ele>
        <time>2020-05-31T14:53:51.000Z</time>
      </trkpt>
      <trkpt lat="43.48975" lon="1.5417">
        <ele>136.60000610352</ele>
        <time>2020-05-31T14:53:57.000Z</time>
      </trkpt>
      <trkpt lat="43.48978" lon="1.54144">
        <ele>137.19999694824</ele>
        <time>2020-05-31T14:54:00.000Z</time>
      </trkpt>
      <trkpt lat="43.48982" lon="1.54057">
        <ele>137.39999389648</ele>
        <time>2020-05-31T14:54:09.000Z</time>
      </trkpt>
      <trkpt lat="43.48984" lon="1.53976">
        <ele>137</ele>
        <time>2020-05-31T14:54:17.000Z</time>
      </trkpt>
      <trkpt lat="43.48977" lon="1.53894">
        <ele>136.80000305176</ele>
        <time>2020-05-31T14:54:26.000Z</time>
      </trkpt>
      <trkpt lat="43.48969" lon="1.53813">
        <ele>137.19999694824</ele>
        <time>2020-05-31T14:54:36.000Z</time>
      </trkpt>
      <trkpt lat="43.48965" lon="1.53753">
        <ele>137.60000610352</ele>
        <time>2020-05-31T14:54:43.000Z</time>
      </trkpt>
      <trkpt lat="43.48971" lon="1.53697">
        <ele>137.60000610352</ele>
        <time>2020-05-31T14:54:49.000Z</time>
      </trkpt>
      <trkpt lat="43.48989" lon="1.53656">
        <ele>137.60000610352</ele>
        <time>2020-05-31T14:54:54.000Z</time>
      </trkpt>
      <trkpt lat="43.4902" lon="1.5363">
        <ele>137</ele>
        <time>2020-05-31T14:54:59.000Z</time>
      </trkpt>
      <trkpt lat="43.49027" lon="1.53627">
        <ele>136.80000305176</ele>
        <time>2020-05-31T14:55:00.000Z</time>
      </trkpt>
      <trkpt lat="43.49034" lon="1.53625">
        <ele>136.60000610352</ele>
        <time>2020-05-31T14:55:01.000Z</time>
      </trkpt>
      <trkpt lat="43.49063" lon="1.53628">
        <ele>135.80000305176</ele>
        <time>2020-05-31T14:55:05.000Z</time>
      </trkpt>
      <trkpt lat="43.4912" lon="1.53646">
        <ele>134.80000305176</ele>
        <time>2020-05-31T14:55:13.000Z</time>
      </trkpt>
      <trkpt lat="43.49179" lon="1.53658">
        <ele>135.39999389648</ele>
        <time>2020-05-31T14:55:22.000Z</time>
      </trkpt>
      <trkpt lat="43.49237" lon="1.53663">
        <ele>136.60000610352</ele>
        <time>2020-05-31T14:55:31.000Z</time>
      </trkpt>
      <trkpt lat="43.49258" lon="1.53664">
        <ele>136.80000305176</ele>
        <time>2020-05-31T14:55:34.000Z</time>
      </trkpt>
      <trkpt lat="43.49315" lon="1.5366">
        <ele>137.19999694824</ele>
        <time>2020-05-31T14:55:43.000Z</time>
      </trkpt>
      <trkpt lat="43.49371" lon="1.53655">
        <ele>136.60000610352</ele>
        <time>2020-05-31T14:55:51.000Z</time>
      </trkpt>
      <trkpt lat="43.4943" lon="1.53639">
        <ele>136.19999694824</ele>
        <time>2020-05-31T14:56:00.000Z</time>
      </trkpt>
      <trkpt lat="43.49488" lon="1.53623">
        <ele>136.80000305176</ele>
        <time>2020-05-31T14:56:08.000Z</time>
      </trkpt>
      <trkpt lat="43.49546" lon="1.53602">
        <ele>136.60000610352</ele>
        <time>2020-05-31T14:56:16.000Z</time>
      </trkpt>
      <trkpt lat="43.49604" lon="1.53574">
        <ele>136.60000610352</ele>
        <time>2020-05-31T14:56:29.000Z</time>
      </trkpt>
      <trkpt lat="43.49607" lon="1.53571">
        <ele>136.60000610352</ele>
        <time>2020-05-31T14:56:30.000Z</time>
      </trkpt>
      <trkpt lat="43.4962" lon="1.53557">
        <ele>137.39999389648</ele>
        <time>2020-05-31T14:56:34.000Z</time>
      </trkpt>
      <trkpt lat="43.49666" lon="1.53508">
        <ele>137.39999389648</ele>
        <time>2020-05-31T14:56:43.000Z</time>
      </trkpt>
      <trkpt lat="43.49703" lon="1.53453">
        <ele>137.19999694824</ele>
        <time>2020-05-31T14:56:51.000Z</time>
      </trkpt>
      <trkpt lat="43.49716" lon="1.53432">
        <ele>137</ele>
        <time>2020-05-31T14:56:54.000Z</time>
      </trkpt>
      <trkpt lat="43.49751" lon="1.53371">
        <ele>136.60000610352</ele>
        <time>2020-05-31T14:57:02.000Z</time>
      </trkpt>
      <trkpt lat="43.49785" lon="1.53313">
        <ele>136.39999389648</ele>
        <time>2020-05-31T14:57:10.000Z</time>
      </trkpt>
      <trkpt lat="43.49821" lon="1.53261">
        <ele>136.60000610352</ele>
        <time>2020-05-31T14:57:18.000Z</time>
      </trkpt>
      <trkpt lat="43.49833" lon="1.53244">
        <ele>136.60000610352</ele>
        <time>2020-05-31T14:57:21.000Z</time>
      </trkpt>
      <trkpt lat="43.49877" lon="1.53192">
        <ele>136.60000610352</ele>
        <time>2020-05-31T14:57:30.000Z</time>
      </trkpt>
      <trkpt lat="43.49908" lon="1.53162">
        <ele>136.39999389648</ele>
        <time>2020-05-31T14:57:36.000Z</time>
      </trkpt>
      <trkpt lat="43.4995" lon="1.53123">
        <ele>137.19999694824</ele>
        <time>2020-05-31T14:57:44.000Z</time>
      </trkpt>
      <trkpt lat="43.49999" lon="1.53079">
        <ele>137.60000610352</ele>
        <time>2020-05-31T14:57:52.000Z</time>
      </trkpt>
      <trkpt lat="43.5004" lon="1.5303">
        <ele>137.39999389648</ele>
        <time>2020-05-31T14:58:00.000Z</time>
      </trkpt>
      <trkpt lat="43.50087" lon="1.52971">
        <ele>136.60000610352</ele>
        <time>2020-05-31T14:58:09.000Z</time>
      </trkpt>
      <trkpt lat="43.5013" lon="1.52922">
        <ele>136.39999389648</ele>
        <time>2020-05-31T14:58:18.000Z</time>
      </trkpt>
      <trkpt lat="43.50143" lon="1.5291">
        <ele>136.39999389648</ele>
        <time>2020-05-31T14:58:21.000Z</time>
      </trkpt>
      <trkpt lat="43.50189" lon="1.52874">
        <ele>136.60000610352</ele>
        <time>2020-05-31T14:58:30.000Z</time>
      </trkpt>
      <trkpt lat="43.50232" lon="1.52835">
        <ele>136.60000610352</ele>
        <time>2020-05-31T14:58:39.000Z</time>
      </trkpt>
      <trkpt lat="43.50242" lon="1.52826">
        <ele>136.60000610352</ele>
        <time>2020-05-31T14:58:41.000Z</time>
      </trkpt>
      <trkpt lat="43.50254" lon="1.52815">
        <ele>136.60000610352</ele>
        <time>2020-05-31T14:58:44.000Z</time>
      </trkpt>
      <trkpt lat="43.50285" lon="1.52783">
        <ele>137</ele>
        <time>2020-05-31T14:58:50.000Z</time>
      </trkpt>
      <trkpt lat="43.50327" lon="1.52733">
        <ele>136.80000305176</ele>
        <time>2020-05-31T14:58:59.000Z</time>
      </trkpt>
      <trkpt lat="43.50369" lon="1.52668">
        <ele>136.60000610352</ele>
        <time>2020-05-31T14:59:08.000Z</time>
      </trkpt>
      <trkpt lat="43.50382" lon="1.52633">
        <ele>136.19999694824</ele>
        <time>2020-05-31T14:59:13.000Z</time>
      </trkpt>
      <trkpt lat="43.50384" lon="1.52625">
        <ele>136.19999694824</ele>
        <time>2020-05-31T14:59:14.000Z</time>
      </trkpt>
      <trkpt lat="43.50389" lon="1.52602">
        <ele>136.19999694824</ele>
        <time>2020-05-31T14:59:17.000Z</time>
      </trkpt>
      <trkpt lat="43.50409" lon="1.5252">
        <ele>136</ele>
        <time>2020-05-31T14:59:26.000Z</time>
      </trkpt>
      <trkpt lat="43.50413" lon="1.52501">
        <ele>136</ele>
        <time>2020-05-31T14:59:28.000Z</time>
      </trkpt>
      <trkpt lat="43.50418" lon="1.52485">
        <ele>136</ele>
        <time>2020-05-31T14:59:30.000Z</time>
      </trkpt>
      <trkpt lat="43.50428" lon="1.52414">
        <ele>136</ele>
        <time>2020-05-31T14:59:38.000Z</time>
      </trkpt>
      <trkpt lat="43.50427" lon="1.52354">
        <ele>136.19999694824</ele>
        <time>2020-05-31T14:59:44.000Z</time>
      </trkpt>
      <trkpt lat="43.50431" lon="1.52307">
        <ele>136</ele>
        <time>2020-05-31T14:59:49.000Z</time>
      </trkpt>
      <trkpt lat="43.50433" lon="1.52229">
        <ele>136</ele>
        <time>2020-05-31T14:59:58.000Z</time>
      </trkpt>
      <trkpt lat="43.50437" lon="1.52213">
        <ele>136</ele>
        <time>2020-05-31T15:00:00.000Z</time>
      </trkpt>
      <trkpt lat="43.50449" lon="1.52184">
        <ele>136.19999694824</ele>
        <time>2020-05-31T15:00:04.000Z</time>
      </trkpt>
      <trkpt lat="43.50488" lon="1.52129">
        <ele>136.19999694824</ele>
        <time>2020-05-31T15:00:13.000Z</time>
      </trkpt>
      <trkpt lat="43.50527" lon="1.52096">
        <ele>135.80000305176</ele>
        <time>2020-05-31T15:00:21.000Z</time>
      </trkpt>
      <trkpt lat="43.50577" lon="1.52083">
        <ele>135.39999389648</ele>
        <time>2020-05-31T15:00:29.000Z</time>
      </trkpt>
      <trkpt lat="43.50635" lon="1.52073">
        <ele>135</ele>
        <time>2020-05-31T15:00:38.000Z</time>
      </trkpt>
      <trkpt lat="43.50686" lon="1.52063">
        <ele>135.39999389648</ele>
        <time>2020-05-31T15:00:46.000Z</time>
      </trkpt>
      <trkpt lat="43.50732" lon="1.52034">
        <ele>135.60000610352</ele>
        <time>2020-05-31T15:00:55.000Z</time>
      </trkpt>
      <trkpt lat="43.50777" lon="1.51991">
        <ele>135.60000610352</ele>
        <time>2020-05-31T15:01:05.000Z</time>
      </trkpt>
      <trkpt lat="43.5079" lon="1.51976">
        <ele>135.60000610352</ele>
        <time>2020-05-31T15:01:08.000Z</time>
      </trkpt>
      <trkpt lat="43.50838" lon="1.51923">
        <ele>135.80000305176</ele>
        <time>2020-05-31T15:01:19.000Z</time>
      </trkpt>
      <trkpt lat="43.50856" lon="1.51902">
        <ele>136.39999389648</ele>
        <time>2020-05-31T15:01:24.000Z</time>
      </trkpt>
      <trkpt lat="43.50866" lon="1.5189">
        <ele>136.60000610352</ele>
        <time>2020-05-31T15:01:27.000Z</time>
      </trkpt>
      <trkpt lat="43.50891" lon="1.51866">
        <ele>136.80000305176</ele>
        <time>2020-05-31T15:01:34.000Z</time>
      </trkpt>
      <trkpt lat="43.50924" lon="1.51832">
        <ele>137</ele>
        <time>2020-05-31T15:01:42.000Z</time>
      </trkpt>
      <trkpt lat="43.50939" lon="1.51817">
        <ele>137</ele>
        <time>2020-05-31T15:01:45.000Z</time>
      </trkpt>
      <trkpt lat="43.50986" lon="1.51791">
        <ele>136.80000305176</ele>
        <time>2020-05-31T15:01:53.000Z</time>
      </trkpt>
      <trkpt lat="43.51046" lon="1.51768">
        <ele>137.19999694824</ele>
        <time>2020-05-31T15:02:04.000Z</time>
      </trkpt>
      <trkpt lat="43.51107" lon="1.5175">
        <ele>137.19999694824</ele>
        <time>2020-05-31T15:02:16.000Z</time>
      </trkpt>
      <trkpt lat="43.51119" lon="1.51744">
        <ele>137.19999694824</ele>
        <time>2020-05-31T15:02:21.000Z</time>
      </trkpt>
      <trkpt lat="43.51121" lon="1.51743">
        <ele>137.60000610352</ele>
        <time>2020-05-31T15:02:24.000Z</time>
      </trkpt>
      <trkpt lat="43.51122" lon="1.51742">
        <ele>138</ele>
        <time>2020-05-31T15:02:25.000Z</time>
      </trkpt>
      <trkpt lat="43.51133" lon="1.51736">
        <ele>138.39999389648</ele>
        <time>2020-05-31T15:02:30.000Z</time>
      </trkpt>
      <trkpt lat="43.51188" lon="1.51725">
        <ele>137</ele>
        <time>2020-05-31T15:02:40.000Z</time>
      </trkpt>
      <trkpt lat="43.51193" lon="1.51723">
        <ele>136.60000610352</ele>
        <time>2020-05-31T15:02:41.000Z</time>
      </trkpt>
      <trkpt lat="43.51208" lon="1.5172">
        <ele>135.39999389648</ele>
        <time>2020-05-31T15:02:44.000Z</time>
      </trkpt>
      <trkpt lat="43.51261" lon="1.51706">
        <ele>134.80000305176</ele>
        <time>2020-05-31T15:02:54.000Z</time>
      </trkpt>
      <trkpt lat="43.51319" lon="1.51688">
        <ele>134.80000305176</ele>
        <time>2020-05-31T15:03:04.000Z</time>
      </trkpt>
      <trkpt lat="43.51378" lon="1.5167">
        <ele>135.19999694824</ele>
        <time>2020-05-31T15:03:13.000Z</time>
      </trkpt>
      <trkpt lat="43.51417" lon="1.51658">
        <ele>135.19999694824</ele>
        <time>2020-05-31T15:03:19.000Z</time>
      </trkpt>
      <trkpt lat="43.51466" lon="1.51691">
        <ele>135.19999694824</ele>
        <time>2020-05-31T15:03:28.000Z</time>
      </trkpt>
      <trkpt lat="43.5147" lon="1.51698">
        <ele>135.19999694824</ele>
        <time>2020-05-31T15:03:29.000Z</time>
      </trkpt>
      <trkpt lat="43.51481" lon="1.51728">
        <ele>134.60000610352</ele>
        <time>2020-05-31T15:03:33.000Z</time>
      </trkpt>
      <trkpt lat="43.51482" lon="1.51735">
        <ele>134.39999389648</ele>
        <time>2020-05-31T15:03:34.000Z</time>
      </trkpt>
      <trkpt lat="43.51479" lon="1.51774">
        <ele>133.39999389648</ele>
        <time>2020-05-31T15:03:39.000Z</time>
      </trkpt>
      <trkpt lat="43.51476" lon="1.51796">
        <ele>133.19999694824</ele>
        <time>2020-05-31T15:03:42.000Z</time>
      </trkpt>
      <trkpt lat="43.51477" lon="1.51816">
        <ele>133.19999694824</ele>
        <time>2020-05-31T15:03:46.000Z</time>
      </trkpt>
      <trkpt lat="43.51478" lon="1.51831">
        <ele>133.39999389648</ele>
        <time>2020-05-31T15:03:49.000Z</time>
      </trkpt>
      <trkpt lat="43.51481" lon="1.5187">
        <ele>134</ele>
        <time>2020-05-31T15:03:55.000Z</time>
      </trkpt>
      <trkpt lat="43.51492" lon="1.51922">
        <ele>134</ele>
        <time>2020-05-31T15:04:02.000Z</time>
      </trkpt>
      <trkpt lat="43.51501" lon="1.51944">
        <ele>134</ele>
        <time>2020-05-31T15:04:05.000Z</time>
      </trkpt>
      <trkpt lat="43.51513" lon="1.5196">
        <ele>134</ele>
        <time>2020-05-31T15:04:08.000Z</time>
      </trkpt>
      <trkpt lat="43.51555" lon="1.52013">
        <ele>134</ele>
        <time>2020-05-31T15:04:18.000Z</time>
      </trkpt>
      <trkpt lat="43.51575" lon="1.52042">
        <ele>134.19999694824</ele>
        <time>2020-05-31T15:04:24.000Z</time>
      </trkpt>
      <trkpt lat="43.51584" lon="1.5205">
        <ele>134.39999389648</ele>
        <time>2020-05-31T15:04:26.000Z</time>
      </trkpt>
      <trkpt lat="43.51595" lon="1.52055">
        <ele>134.60000610352</ele>
        <time>2020-05-31T15:04:28.000Z</time>
      </trkpt>
      <trkpt lat="43.51606" lon="1.52058">
        <ele>134.60000610352</ele>
        <time>2020-05-31T15:04:30.000Z</time>
      </trkpt>
      <trkpt lat="43.51661" lon="1.52053">
        <ele>134.39999389648</ele>
        <time>2020-05-31T15:04:39.000Z</time>
      </trkpt>
      <trkpt lat="43.51689" lon="1.52041">
        <ele>134.39999389648</ele>
        <time>2020-05-31T15:04:44.000Z</time>
      </trkpt>
      <trkpt lat="43.51699" lon="1.52038">
        <ele>134.39999389648</ele>
        <time>2020-05-31T15:04:46.000Z</time>
      </trkpt>
      <trkpt lat="43.51723" lon="1.52022">
        <ele>134.39999389648</ele>
        <time>2020-05-31T15:04:51.000Z</time>
      </trkpt>
      <trkpt lat="43.51744" lon="1.52008">
        <ele>134.19999694824</ele>
        <time>2020-05-31T15:04:55.000Z</time>
      </trkpt>
      <trkpt lat="43.51771" lon="1.51991">
        <ele>133.80000305176</ele>
        <time>2020-05-31T15:05:00.000Z</time>
      </trkpt>
      <trkpt lat="43.51778" lon="1.51987">
        <ele>134</ele>
        <time>2020-05-31T15:05:01.000Z</time>
      </trkpt>
      <trkpt lat="43.51797" lon="1.51981">
        <ele>133.80000305176</ele>
        <time>2020-05-31T15:05:04.000Z</time>
      </trkpt>
      <trkpt lat="43.51817" lon="1.5198">
        <ele>133.80000305176</ele>
        <time>2020-05-31T15:05:07.000Z</time>
      </trkpt>
      <trkpt lat="43.51846" lon="1.5199">
        <ele>133.39999389648</ele>
        <time>2020-05-31T15:05:12.000Z</time>
      </trkpt>
      <trkpt lat="43.5188" lon="1.52006">
        <ele>133.19999694824</ele>
        <time>2020-05-31T15:05:18.000Z</time>
      </trkpt>
      <trkpt lat="43.51945" lon="1.52023">
        <ele>133.39999389648</ele>
        <time>2020-05-31T15:05:27.000Z</time>
      </trkpt>
      <trkpt lat="43.51953" lon="1.52023">
        <ele>133.39999389648</ele>
        <time>2020-05-31T15:05:28.000Z</time>
      </trkpt>
      <trkpt lat="43.52" lon="1.52019">
        <ele>134.60000610352</ele>
        <time>2020-05-31T15:05:35.000Z</time>
      </trkpt>
      <trkpt lat="43.52017" lon="1.52014">
        <ele>134.80000305176</ele>
        <time>2020-05-31T15:05:38.000Z</time>
      </trkpt>
      <trkpt lat="43.52031" lon="1.52008">
        <ele>135.19999694824</ele>
        <time>2020-05-31T15:05:41.000Z</time>
      </trkpt>
      <trkpt lat="43.52071" lon="1.51978">
        <ele>135</ele>
        <time>2020-05-31T15:05:49.000Z</time>
      </trkpt>
      <trkpt lat="43.52127" lon="1.51958">
        <ele>133.80000305176</ele>
        <time>2020-05-31T15:05:58.000Z</time>
      </trkpt>
      <trkpt lat="43.5219" lon="1.51951">
        <ele>133.60000610352</ele>
        <time>2020-05-31T15:06:07.000Z</time>
      </trkpt>
      <trkpt lat="43.52253" lon="1.51929">
        <ele>134.39999389648</ele>
        <time>2020-05-31T15:06:18.000Z</time>
      </trkpt>
      <trkpt lat="43.52287" lon="1.51917">
        <ele>135</ele>
        <time>2020-05-31T15:06:25.000Z</time>
      </trkpt>
      <trkpt lat="43.52345" lon="1.5189">
        <ele>135.39999389648</ele>
        <time>2020-05-31T15:06:39.000Z</time>
      </trkpt>
      <trkpt lat="43.52398" lon="1.51878">
        <ele>135</ele>
        <time>2020-05-31T15:06:55.000Z</time>
      </trkpt>
      <trkpt lat="43.52445" lon="1.51861">
        <ele>134.80000305176</ele>
        <time>2020-05-31T15:07:05.000Z</time>
      </trkpt>
      <trkpt lat="43.52473" lon="1.51844">
        <ele>133.60000610352</ele>
        <time>2020-05-31T15:07:09.000Z</time>
      </trkpt>
      <trkpt lat="43.52485" lon="1.51834">
        <ele>131.80000305176</ele>
        <time>2020-05-31T15:07:11.000Z</time>
      </trkpt>
      <trkpt lat="43.52496" lon="1.51824">
        <ele>130.39999389648</ele>
        <time>2020-05-31T15:07:13.000Z</time>
      </trkpt>
      <trkpt lat="43.52542" lon="1.51778">
        <ele>129.39999389648</ele>
        <time>2020-05-31T15:07:22.000Z</time>
      </trkpt>
      <trkpt lat="43.52571" lon="1.51741">
        <ele>129.60000610352</ele>
        <time>2020-05-31T15:07:29.000Z</time>
      </trkpt>
      <trkpt lat="43.52601" lon="1.51686">
        <ele>130</ele>
        <time>2020-05-31T15:07:37.000Z</time>
      </trkpt>
      <trkpt lat="43.52609" lon="1.5165">
        <ele>130.19999694824</ele>
        <time>2020-05-31T15:07:41.000Z</time>
      </trkpt>
      <trkpt lat="43.52621" lon="1.51583">
        <ele>130.39999389648</ele>
        <time>2020-05-31T15:07:48.000Z</time>
      </trkpt>
      <trkpt lat="43.52632" lon="1.51532">
        <ele>130.60000610352</ele>
        <time>2020-05-31T15:07:54.000Z</time>
      </trkpt>
      <trkpt lat="43.52639" lon="1.51453">
        <ele>130.39999389648</ele>
        <time>2020-05-31T15:08:04.000Z</time>
      </trkpt>
      <trkpt lat="43.52642" lon="1.51422">
        <ele>130.39999389648</ele>
        <time>2020-05-31T15:08:08.000Z</time>
      </trkpt>
      <trkpt lat="43.52647" lon="1.51342">
        <ele>130.60000610352</ele>
        <time>2020-05-31T15:08:19.000Z</time>
      </trkpt>
      <trkpt lat="43.5265" lon="1.51261">
        <ele>131</ele>
        <time>2020-05-31T15:08:29.000Z</time>
      </trkpt>
      <trkpt lat="43.52653" lon="1.51201">
        <ele>131</ele>
        <time>2020-05-31T15:08:36.000Z</time>
      </trkpt>
      <trkpt lat="43.52661" lon="1.51148">
        <ele>130.60000610352</ele>
        <time>2020-05-31T15:08:42.000Z</time>
      </trkpt>
      <trkpt lat="43.52679" lon="1.51081">
        <ele>130.19999694824</ele>
        <time>2020-05-31T15:08:52.000Z</time>
      </trkpt>
      <trkpt lat="43.52681" lon="1.51075">
        <ele>130.19999694824</ele>
        <time>2020-05-31T15:08:53.000Z</time>
      </trkpt>
      <trkpt lat="43.52692" lon="1.51049">
        <ele>130.19999694824</ele>
        <time>2020-05-31T15:08:57.000Z</time>
      </trkpt>
      <trkpt lat="43.52705" lon="1.51022">
        <ele>130.60000610352</ele>
        <time>2020-05-31T15:09:01.000Z</time>
      </trkpt>
      <trkpt lat="43.52719" lon="1.50993">
        <ele>131</ele>
        <time>2020-05-31T15:09:05.000Z</time>
      </trkpt>
      <trkpt lat="43.52758" lon="1.5093">
        <ele>131</ele>
        <time>2020-05-31T15:09:14.000Z</time>
      </trkpt>
      <trkpt lat="43.52785" lon="1.50897">
        <ele>130.60000610352</ele>
        <time>2020-05-31T15:09:20.000Z</time>
      </trkpt>
      <trkpt lat="43.52829" lon="1.50867">
        <ele>130.39999389648</ele>
        <time>2020-05-31T15:09:28.000Z</time>
      </trkpt>
      <trkpt lat="43.52835" lon="1.50862">
        <ele>130.39999389648</ele>
        <time>2020-05-31T15:09:29.000Z</time>
      </trkpt>
      <trkpt lat="43.52852" lon="1.5085">
        <ele>130.60000610352</ele>
        <time>2020-05-31T15:09:32.000Z</time>
      </trkpt>
      <trkpt lat="43.52901" lon="1.50804">
        <ele>131.39999389648</ele>
        <time>2020-05-31T15:09:41.000Z</time>
      </trkpt>
      <trkpt lat="43.52941" lon="1.50761">
        <ele>132</ele>
        <time>2020-05-31T15:09:49.000Z</time>
      </trkpt>
      <trkpt lat="43.52991" lon="1.50707">
        <ele>131.80000305176</ele>
        <time>2020-05-31T15:09:58.000Z</time>
      </trkpt>
      <trkpt lat="43.53037" lon="1.5066">
        <ele>131.39999389648</ele>
        <time>2020-05-31T15:10:06.000Z</time>
      </trkpt>
      <trkpt lat="43.53089" lon="1.50624">
        <ele>131.19999694824</ele>
        <time>2020-05-31T15:10:14.000Z</time>
      </trkpt>
      <trkpt lat="43.53113" lon="1.50609">
        <ele>131</ele>
        <time>2020-05-31T15:10:18.000Z</time>
      </trkpt>
      <trkpt lat="43.53131" lon="1.50595">
        <ele>131</ele>
        <time>2020-05-31T15:10:21.000Z</time>
      </trkpt>
      <trkpt lat="43.53187" lon="1.5057">
        <ele>131</ele>
        <time>2020-05-31T15:10:30.000Z</time>
      </trkpt>
      <trkpt lat="43.53248" lon="1.50555">
        <ele>131</ele>
        <time>2020-05-31T15:10:40.000Z</time>
      </trkpt>
      <trkpt lat="43.53304" lon="1.50547">
        <ele>131.19999694824</ele>
        <time>2020-05-31T15:10:49.000Z</time>
      </trkpt>
      <trkpt lat="43.53363" lon="1.50538">
        <ele>131.19999694824</ele>
        <time>2020-05-31T15:10:58.000Z</time>
      </trkpt>
      <trkpt lat="43.53418" lon="1.5052">
        <ele>131.39999389648</ele>
        <time>2020-05-31T15:11:08.000Z</time>
      </trkpt>
      <trkpt lat="43.53471" lon="1.50486">
        <ele>131.19999694824</ele>
        <time>2020-05-31T15:11:18.000Z</time>
      </trkpt>
      <trkpt lat="43.53485" lon="1.50476">
        <ele>131.19999694824</ele>
        <time>2020-05-31T15:11:21.000Z</time>
      </trkpt>
      <trkpt lat="43.53532" lon="1.50436">
        <ele>130.80000305176</ele>
        <time>2020-05-31T15:11:30.000Z</time>
      </trkpt>
      <trkpt lat="43.53579" lon="1.50395">
        <ele>130.60000610352</ele>
        <time>2020-05-31T15:11:38.000Z</time>
      </trkpt>
      <trkpt lat="43.53624" lon="1.50347">
        <ele>130.39999389648</ele>
        <time>2020-05-31T15:11:47.000Z</time>
      </trkpt>
      <trkpt lat="43.53667" lon="1.50294">
        <ele>130.19999694824</ele>
        <time>2020-05-31T15:11:56.000Z</time>
      </trkpt>
      <trkpt lat="43.5371" lon="1.50245">
        <ele>130</ele>
        <time>2020-05-31T15:12:04.000Z</time>
      </trkpt>
      <trkpt lat="43.53731" lon="1.50219">
        <ele>130</ele>
        <time>2020-05-31T15:12:08.000Z</time>
      </trkpt>
      <trkpt lat="43.53748" lon="1.50191">
        <ele>129.80000305176</ele>
        <time>2020-05-31T15:12:12.000Z</time>
      </trkpt>
      <trkpt lat="43.53781" lon="1.5012">
        <ele>129.60000610352</ele>
        <time>2020-05-31T15:12:21.000Z</time>
      </trkpt>
      <trkpt lat="43.53811" lon="1.50068">
        <ele>129.60000610352</ele>
        <time>2020-05-31T15:12:28.000Z</time>
      </trkpt>
      <trkpt lat="43.53849" lon="1.50005">
        <ele>129.80000305176</ele>
        <time>2020-05-31T15:12:37.000Z</time>
      </trkpt>
      <trkpt lat="43.53883" lon="1.49945">
        <ele>130.39999389648</ele>
        <time>2020-05-31T15:12:46.000Z</time>
      </trkpt>
      <trkpt lat="43.53887" lon="1.49932">
        <ele>130.60000610352</ele>
        <time>2020-05-31T15:12:48.000Z</time>
      </trkpt>
      <trkpt lat="43.53896" lon="1.49895">
        <ele>130.80000305176</ele>
        <time>2020-05-31T15:12:54.000Z</time>
      </trkpt>
      <trkpt lat="43.53909" lon="1.49815">
        <ele>130.80000305176</ele>
        <time>2020-05-31T15:13:03.000Z</time>
      </trkpt>
      <trkpt lat="43.53913" lon="1.49731">
        <ele>130.19999694824</ele>
        <time>2020-05-31T15:13:13.000Z</time>
      </trkpt>
      <trkpt lat="43.53911" lon="1.49707">
        <ele>130</ele>
        <time>2020-05-31T15:13:16.000Z</time>
      </trkpt>
      <trkpt lat="43.53907" lon="1.49679">
        <ele>130</ele>
        <time>2020-05-31T15:13:20.000Z</time>
      </trkpt>
      <trkpt lat="43.53904" lon="1.49653">
        <ele>130</ele>
        <time>2020-05-31T15:13:24.000Z</time>
      </trkpt>
      <trkpt lat="43.539" lon="1.4963">
        <ele>130</ele>
        <time>2020-05-31T15:13:27.000Z</time>
      </trkpt>
      <trkpt lat="43.5389" lon="1.49562">
        <ele>131</ele>
        <time>2020-05-31T15:13:36.000Z</time>
      </trkpt>
      <trkpt lat="43.53879" lon="1.49483">
        <ele>131.39999389648</ele>
        <time>2020-05-31T15:13:46.000Z</time>
      </trkpt>
      <trkpt lat="43.5387" lon="1.49404">
        <ele>131.19999694824</ele>
        <time>2020-05-31T15:13:56.000Z</time>
      </trkpt>
      <trkpt lat="43.53869" lon="1.49371">
        <ele>130.80000305176</ele>
        <time>2020-05-31T15:14:00.000Z</time>
      </trkpt>
      <trkpt lat="43.53876" lon="1.49342">
        <ele>130.80000305176</ele>
        <time>2020-05-31T15:14:04.000Z</time>
      </trkpt>
      <trkpt lat="43.53879" lon="1.49334">
        <ele>130.80000305176</ele>
        <time>2020-05-31T15:14:05.000Z</time>
      </trkpt>
      <trkpt lat="43.53893" lon="1.49307">
        <ele>130.80000305176</ele>
        <time>2020-05-31T15:14:09.000Z</time>
      </trkpt>
      <trkpt lat="43.53938" lon="1.49267">
        <ele>131.19999694824</ele>
        <time>2020-05-31T15:14:19.000Z</time>
      </trkpt>
      <trkpt lat="43.53949" lon="1.49263">
        <ele>131</ele>
        <time>2020-05-31T15:14:21.000Z</time>
      </trkpt>
      <trkpt lat="43.54004" lon="1.49244">
        <ele>130.80000305176</ele>
        <time>2020-05-31T15:14:32.000Z</time>
      </trkpt>
      <trkpt lat="43.54054" lon="1.4922">
        <ele>130.39999389648</ele>
        <time>2020-05-31T15:14:43.000Z</time>
      </trkpt>
      <trkpt lat="43.54059" lon="1.49218">
        <ele>130.39999389648</ele>
        <time>2020-05-31T15:14:44.000Z</time>
      </trkpt>
      <trkpt lat="43.5411" lon="1.49185">
        <ele>130.39999389648</ele>
        <time>2020-05-31T15:14:54.000Z</time>
      </trkpt>
      <trkpt lat="43.54125" lon="1.49175">
        <ele>130.39999389648</ele>
        <time>2020-05-31T15:14:57.000Z</time>
      </trkpt>
      <trkpt lat="43.54181" lon="1.4914">
        <ele>130.39999389648</ele>
        <time>2020-05-31T15:15:07.000Z</time>
      </trkpt>
      <trkpt lat="43.54232" lon="1.49111">
        <ele>130.60000610352</ele>
        <time>2020-05-31T15:15:18.000Z</time>
      </trkpt>
      <trkpt lat="43.54256" lon="1.491">
        <ele>130.80000305176</ele>
        <time>2020-05-31T15:15:23.000Z</time>
      </trkpt>
      <trkpt lat="43.54276" lon="1.4909">
        <ele>131</ele>
        <time>2020-05-31T15:15:28.000Z</time>
      </trkpt>
      <trkpt lat="43.54329" lon="1.49066">
        <ele>131</ele>
        <time>2020-05-31T15:15:38.000Z</time>
      </trkpt>
      <trkpt lat="43.54388" lon="1.49039">
        <ele>131.60000610352</ele>
        <time>2020-05-31T15:15:56.000Z</time>
      </trkpt>
      <trkpt lat="43.54423" lon="1.49024">
        <ele>131.80000305176</ele>
        <time>2020-05-31T15:16:05.000Z</time>
      </trkpt>
      <trkpt lat="43.54456" lon="1.49002">
        <ele>132</ele>
        <time>2020-05-31T15:16:17.000Z</time>
      </trkpt>
      <trkpt lat="43.54456" lon="1.49">
        <ele>132</ele>
        <time>2020-05-31T15:16:18.000Z</time>
      </trkpt>
      <trkpt lat="43.54454" lon="1.48989">
        <ele>133</ele>
        <time>2020-05-31T15:16:23.000Z</time>
      </trkpt>
      <trkpt lat="43.54452" lon="1.48984">
        <ele>133.19999694824</ele>
        <time>2020-05-31T15:16:25.000Z</time>
      </trkpt>
      <trkpt lat="43.54447" lon="1.48977">
        <ele>134</ele>
        <time>2020-05-31T15:16:29.000Z</time>
      </trkpt>
      <trkpt lat="43.54446" lon="1.48975">
        <ele>134.39999389648</ele>
        <time>2020-05-31T15:16:30.000Z</time>
      </trkpt>
      <trkpt lat="43.5444" lon="1.48954">
        <ele>134.60000610352</ele>
        <time>2020-05-31T15:16:34.000Z</time>
      </trkpt>
      <trkpt lat="43.54411" lon="1.48886">
        <ele>133.60000610352</ele>
        <time>2020-05-31T15:16:45.000Z</time>
      </trkpt>
      <trkpt lat="43.54383" lon="1.48817">
        <ele>133</ele>
        <time>2020-05-31T15:16:56.000Z</time>
      </trkpt>
      <trkpt lat="43.54382" lon="1.48811">
        <ele>133</ele>
        <time>2020-05-31T15:16:57.000Z</time>
      </trkpt>
      <trkpt lat="43.5437" lon="1.48735">
        <ele>133</ele>
        <time>2020-05-31T15:17:08.000Z</time>
      </trkpt>
      <trkpt lat="43.54355" lon="1.48659">
        <ele>133.80000305176</ele>
        <time>2020-05-31T15:17:19.000Z</time>
      </trkpt>
      <trkpt lat="43.54335" lon="1.48585">
        <ele>133.80000305176</ele>
        <time>2020-05-31T15:17:30.000Z</time>
      </trkpt>
      <trkpt lat="43.54306" lon="1.48522">
        <ele>134.19999694824</ele>
        <time>2020-05-31T15:17:41.000Z</time>
      </trkpt>
      <trkpt lat="43.5428" lon="1.48479">
        <ele>134.60000610352</ele>
        <time>2020-05-31T15:17:49.000Z</time>
      </trkpt>
      <trkpt lat="43.54255" lon="1.4843">
        <ele>135.80000305176</ele>
        <time>2020-05-31T15:17:58.000Z</time>
      </trkpt>
      <trkpt lat="43.54243" lon="1.48405">
        <ele>136.80000305176</ele>
        <time>2020-05-31T15:18:03.000Z</time>
      </trkpt>
      <trkpt lat="43.5422" lon="1.48358">
        <ele>137.80000305176</ele>
        <time>2020-05-31T15:18:12.000Z</time>
      </trkpt>
      <trkpt lat="43.54199" lon="1.48308">
        <ele>138.80000305176</ele>
        <time>2020-05-31T15:18:22.000Z</time>
      </trkpt>
      <trkpt lat="43.54187" lon="1.48285">
        <ele>139.80000305176</ele>
        <time>2020-05-31T15:18:27.000Z</time>
      </trkpt>
      <trkpt lat="43.54162" lon="1.48281">
        <ele>140</ele>
        <time>2020-05-31T15:18:34.000Z</time>
      </trkpt>
      <trkpt lat="43.54149" lon="1.48268">
        <ele>140.19999694824</ele>
        <time>2020-05-31T15:18:38.000Z</time>
      </trkpt>
      <trkpt lat="43.54138" lon="1.48251">
        <ele>140.39999389648</ele>
        <time>2020-05-31T15:18:42.000Z</time>
      </trkpt>
      <trkpt lat="43.54133" lon="1.48222">
        <ele>140.60000610352</ele>
        <time>2020-05-31T15:18:47.000Z</time>
      </trkpt>
      <trkpt lat="43.54132" lon="1.48209">
        <ele>140.80000305176</ele>
        <time>2020-05-31T15:18:49.000Z</time>
      </trkpt>
      <trkpt lat="43.54128" lon="1.48153">
        <ele>141.39999389648</ele>
        <time>2020-05-31T15:18:58.000Z</time>
      </trkpt>
      <trkpt lat="43.54122" lon="1.48106">
        <ele>141.80000305176</ele>
        <time>2020-05-31T15:19:07.000Z</time>
      </trkpt>
      <trkpt lat="43.54113" lon="1.4807">
        <ele>143</ele>
        <time>2020-05-31T15:19:15.000Z</time>
      </trkpt>
      <trkpt lat="43.54098" lon="1.4803">
        <ele>144</ele>
        <time>2020-05-31T15:19:24.000Z</time>
      </trkpt>
      <trkpt lat="43.54089" lon="1.48013">
        <ele>145.19999694824</ele>
        <time>2020-05-31T15:19:28.000Z</time>
      </trkpt>
      <trkpt lat="43.54079" lon="1.4799">
        <ele>146.39999389648</ele>
        <time>2020-05-31T15:19:33.000Z</time>
      </trkpt>
      <trkpt lat="43.54054" lon="1.47933">
        <ele>147.39999389648</ele>
        <time>2020-05-31T15:19:45.000Z</time>
      </trkpt>
      <trkpt lat="43.54037" lon="1.479">
        <ele>147.60000610352</ele>
        <time>2020-05-31T15:19:52.000Z</time>
      </trkpt>
      <trkpt lat="43.54019" lon="1.4788">
        <ele>148.39999389648</ele>
        <time>2020-05-31T15:19:58.000Z</time>
      </trkpt>
      <trkpt lat="43.53985" lon="1.47838">
        <ele>149.39999389648</ele>
        <time>2020-05-31T15:20:12.000Z</time>
      </trkpt>
      <trkpt lat="43.53962" lon="1.47808">
        <ele>150.60000610352</ele>
        <time>2020-05-31T15:20:24.000Z</time>
      </trkpt>
      <trkpt lat="43.5394" lon="1.47783">
        <ele>151.80000305176</ele>
        <time>2020-05-31T15:20:34.000Z</time>
      </trkpt>
      <trkpt lat="43.53923" lon="1.47756">
        <ele>152.80000305176</ele>
        <time>2020-05-31T15:20:43.000Z</time>
      </trkpt>
      <trkpt lat="43.53914" lon="1.47742">
        <ele>153.19999694824</ele>
        <time>2020-05-31T15:20:49.000Z</time>
      </trkpt>
      <trkpt lat="43.53908" lon="1.47731">
        <ele>154</ele>
        <time>2020-05-31T15:20:54.000Z</time>
      </trkpt>
      <trkpt lat="43.53893" lon="1.47706">
        <ele>155</ele>
        <time>2020-05-31T15:21:02.000Z</time>
      </trkpt>
      <trkpt lat="43.53888" lon="1.47697">
        <ele>155.39999389648</ele>
        <time>2020-05-31T15:21:04.000Z</time>
      </trkpt>
      <trkpt lat="43.53863" lon="1.47637">
        <ele>156.39999389648</ele>
        <time>2020-05-31T15:21:19.000Z</time>
      </trkpt>
      <trkpt lat="43.53856" lon="1.4762">
        <ele>156.60000610352</ele>
        <time>2020-05-31T15:21:24.000Z</time>
      </trkpt>
      <trkpt lat="43.53852" lon="1.47603">
        <ele>158</ele>
        <time>2020-05-31T15:21:29.000Z</time>
      </trkpt>
      <trkpt lat="43.53844" lon="1.47578">
        <ele>159.19999694824</ele>
        <time>2020-05-31T15:21:36.000Z</time>
      </trkpt>
      <trkpt lat="43.53834" lon="1.47545">
        <ele>160.39999389648</ele>
        <time>2020-05-31T15:21:45.000Z</time>
      </trkpt>
      <trkpt lat="43.53821" lon="1.47502">
        <ele>162</ele>
        <time>2020-05-31T15:21:58.000Z</time>
      </trkpt>
      <trkpt lat="43.53812" lon="1.47462">
        <ele>163.39999389648</ele>
        <time>2020-05-31T15:22:09.000Z</time>
      </trkpt>
      <trkpt lat="43.53808" lon="1.47441">
        <ele>164.39999389648</ele>
        <time>2020-05-31T15:22:15.000Z</time>
      </trkpt>
      <trkpt lat="43.53804" lon="1.47415">
        <ele>166</ele>
        <time>2020-05-31T15:22:23.000Z</time>
      </trkpt>
      <trkpt lat="43.53796" lon="1.47357">
        <ele>167.60000610352</ele>
        <time>2020-05-31T15:22:40.000Z</time>
      </trkpt>
      <trkpt lat="43.53789" lon="1.47333">
        <ele>169</ele>
        <time>2020-05-31T15:22:47.000Z</time>
      </trkpt>
      <trkpt lat="43.53786" lon="1.47328">
        <ele>169.19999694824</ele>
        <time>2020-05-31T15:22:49.000Z</time>
      </trkpt>
      <trkpt lat="43.53769" lon="1.47304">
        <ele>170.39999389648</ele>
        <time>2020-05-31T15:22:56.000Z</time>
      </trkpt>
      <trkpt lat="43.53749" lon="1.47234">
        <ele>172.19999694824</ele>
        <time>2020-05-31T15:23:16.000Z</time>
      </trkpt>
      <trkpt lat="43.53739" lon="1.4715">
        <ele>174.19999694824</ele>
        <time>2020-05-31T15:23:37.000Z</time>
      </trkpt>
      <trkpt lat="43.53736" lon="1.47125">
        <ele>175.39999389648</ele>
        <time>2020-05-31T15:23:44.000Z</time>
      </trkpt>
      <trkpt lat="43.53733" lon="1.47101">
        <ele>176.60000610352</ele>
        <time>2020-05-31T15:23:51.000Z</time>
      </trkpt>
      <trkpt lat="43.53735" lon="1.47069">
        <ele>178.19999694824</ele>
        <time>2020-05-31T15:24:01.000Z</time>
      </trkpt>
      <trkpt lat="43.53739" lon="1.47041">
        <ele>179.19999694824</ele>
        <time>2020-05-31T15:24:10.000Z</time>
      </trkpt>
      <trkpt lat="43.53737" lon="1.4702">
        <ele>180.80000305176</ele>
        <time>2020-05-31T15:24:15.000Z</time>
      </trkpt>
      <trkpt lat="43.53731" lon="1.47004">
        <ele>182</ele>
        <time>2020-05-31T15:24:20.000Z</time>
      </trkpt>
      <trkpt lat="43.53716" lon="1.46982">
        <ele>183.19999694824</ele>
        <time>2020-05-31T15:24:29.000Z</time>
      </trkpt>
      <trkpt lat="43.53709" lon="1.46975">
        <ele>183.39999389648</ele>
        <time>2020-05-31T15:24:31.000Z</time>
      </trkpt>
      <trkpt lat="43.53655" lon="1.46949">
        <ele>183.80000305176</ele>
        <time>2020-05-31T15:24:46.000Z</time>
      </trkpt>
      <trkpt lat="43.53645" lon="1.4692">
        <ele>184.39999389648</ele>
        <time>2020-05-31T15:24:53.000Z</time>
      </trkpt>
      <trkpt lat="43.5365" lon="1.46903">
        <ele>184.80000305176</ele>
        <time>2020-05-31T15:24:57.000Z</time>
      </trkpt>
      <trkpt lat="43.53657" lon="1.46888">
        <ele>185</ele>
        <time>2020-05-31T15:25:00.000Z</time>
      </trkpt>
      <trkpt lat="43.53664" lon="1.46875">
        <ele>185.19999694824</ele>
        <time>2020-05-31T15:25:03.000Z</time>
      </trkpt>
      <trkpt lat="43.53668" lon="1.46865">
        <ele>185.60000610352</ele>
        <time>2020-05-31T15:25:05.000Z</time>
      </trkpt>
      <trkpt lat="43.53679" lon="1.46848">
        <ele>186.60000610352</ele>
        <time>2020-05-31T15:25:09.000Z</time>
      </trkpt>
      <trkpt lat="43.53688" lon="1.46831">
        <ele>187.19999694824</ele>
        <time>2020-05-31T15:25:13.000Z</time>
      </trkpt>
      <trkpt lat="43.53695" lon="1.46815">
        <ele>187.39999389648</ele>
        <time>2020-05-31T15:25:18.000Z</time>
      </trkpt>
      <trkpt lat="43.537" lon="1.46806">
        <ele>187.60000610352</ele>
        <time>2020-05-31T15:25:22.000Z</time>
      </trkpt>
      <trkpt lat="43.53718" lon="1.46769">
        <ele>188.39999389648</ele>
        <time>2020-05-31T15:25:38.000Z</time>
      </trkpt>
      <trkpt lat="43.53753" lon="1.4671">
        <ele>189.39999389648</ele>
        <time>2020-05-31T15:25:55.000Z</time>
      </trkpt>
      <trkpt lat="43.53755" lon="1.46707">
        <ele>189.60000610352</ele>
        <time>2020-05-31T15:25:56.000Z</time>
      </trkpt>
      <trkpt lat="43.53775" lon="1.46682">
        <ele>190.60000610352</ele>
        <time>2020-05-31T15:26:04.000Z</time>
      </trkpt>
      <trkpt lat="43.53805" lon="1.46639">
        <ele>191.60000610352</ele>
        <time>2020-05-31T15:26:17.000Z</time>
      </trkpt>
      <trkpt lat="43.53819" lon="1.46618">
        <ele>192.60000610352</ele>
        <time>2020-05-31T15:26:23.000Z</time>
      </trkpt>
      <trkpt lat="43.53841" lon="1.46586">
        <ele>193.80000305176</ele>
        <time>2020-05-31T15:26:33.000Z</time>
      </trkpt>
      <trkpt lat="43.53856" lon="1.46563">
        <ele>194.60000610352</ele>
        <time>2020-05-31T15:26:40.000Z</time>
      </trkpt>
      <trkpt lat="43.53874" lon="1.46528">
        <ele>195.60000610352</ele>
        <time>2020-05-31T15:26:51.000Z</time>
      </trkpt>
      <trkpt lat="43.53882" lon="1.46513">
        <ele>196.60000610352</ele>
        <time>2020-05-31T15:26:55.000Z</time>
      </trkpt>
      <trkpt lat="43.53886" lon="1.46505">
        <ele>197</ele>
        <time>2020-05-31T15:26:57.000Z</time>
      </trkpt>
      <trkpt lat="43.53911" lon="1.46464">
        <ele>197.60000610352</ele>
        <time>2020-05-31T15:27:09.000Z</time>
      </trkpt>
      <trkpt lat="43.53928" lon="1.4643">
        <ele>198.60000610352</ele>
        <time>2020-05-31T15:27:18.000Z</time>
      </trkpt>
      <trkpt lat="43.53951" lon="1.46395">
        <ele>199.80000305176</ele>
        <time>2020-05-31T15:27:28.000Z</time>
      </trkpt>
      <trkpt lat="43.53969" lon="1.46374">
        <ele>200.60000610352</ele>
        <time>2020-05-31T15:27:36.000Z</time>
      </trkpt>
      <trkpt lat="43.53989" lon="1.46348">
        <ele>201.60000610352</ele>
        <time>2020-05-31T15:27:44.000Z</time>
      </trkpt>
      <trkpt lat="43.54024" lon="1.46303">
        <ele>202.80000305176</ele>
        <time>2020-05-31T15:28:00.000Z</time>
      </trkpt>
      <trkpt lat="43.5405" lon="1.46282">
        <ele>203.80000305176</ele>
        <time>2020-05-31T15:28:11.000Z</time>
      </trkpt>
      <trkpt lat="43.54063" lon="1.46261">
        <ele>204.80000305176</ele>
        <time>2020-05-31T15:28:20.000Z</time>
      </trkpt>
      <trkpt lat="43.54098" lon="1.46203">
        <ele>205.60000610352</ele>
        <time>2020-05-31T15:28:36.000Z</time>
      </trkpt>
      <trkpt lat="43.541" lon="1.462">
        <ele>205.80000305176</ele>
        <time>2020-05-31T15:28:37.000Z</time>
      </trkpt>
      <trkpt lat="43.54117" lon="1.46169">
        <ele>206.80000305176</ele>
        <time>2020-05-31T15:28:47.000Z</time>
      </trkpt>
      <trkpt lat="43.54145" lon="1.46113">
        <ele>208</ele>
        <time>2020-05-31T15:29:03.000Z</time>
      </trkpt>
      <trkpt lat="43.54161" lon="1.46084">
        <ele>208.80000305176</ele>
        <time>2020-05-31T15:29:11.000Z</time>
      </trkpt>
      <trkpt lat="43.54174" lon="1.46054">
        <ele>209.80000305176</ele>
        <time>2020-05-31T15:29:19.000Z</time>
      </trkpt>
      <trkpt lat="43.54189" lon="1.4602">
        <ele>210.80000305176</ele>
        <time>2020-05-31T15:29:28.000Z</time>
      </trkpt>
      <trkpt lat="43.54217" lon="1.45954">
        <ele>211.39999389648</ele>
        <time>2020-05-31T15:29:42.000Z</time>
      </trkpt>
      <trkpt lat="43.54244" lon="1.45893">
        <ele>210.19999694824</ele>
        <time>2020-05-31T15:29:50.000Z</time>
      </trkpt>
      <trkpt lat="43.5426" lon="1.45863">
        <ele>209.80000305176</ele>
        <time>2020-05-31T15:29:53.000Z</time>
      </trkpt>
      <trkpt lat="43.54297" lon="1.45801">
        <ele>208.60000610352</ele>
        <time>2020-05-31T15:29:59.000Z</time>
      </trkpt>
      <trkpt lat="43.54309" lon="1.45781">
        <ele>207.39999389648</ele>
        <time>2020-05-31T15:30:01.000Z</time>
      </trkpt>
      <trkpt lat="43.54323" lon="1.4576">
        <ele>206.19999694824</ele>
        <time>2020-05-31T15:30:03.000Z</time>
      </trkpt>
      <trkpt lat="43.54341" lon="1.45729">
        <ele>205.19999694824</ele>
        <time>2020-05-31T15:30:06.000Z</time>
      </trkpt>
      <trkpt lat="43.54382" lon="1.45661">
        <ele>205.39999389648</ele>
        <time>2020-05-31T15:30:14.000Z</time>
      </trkpt>
      <trkpt lat="43.54394" lon="1.45643">
        <ele>206.60000610352</ele>
        <time>2020-05-31T15:30:17.000Z</time>
      </trkpt>
      <trkpt lat="43.54405" lon="1.45628">
        <ele>208.60000610352</ele>
        <time>2020-05-31T15:30:20.000Z</time>
      </trkpt>
      <trkpt lat="43.54414" lon="1.45617">
        <ele>209.60000610352</ele>
        <time>2020-05-31T15:30:23.000Z</time>
      </trkpt>
      <trkpt lat="43.54433" lon="1.45606">
        <ele>210.60000610352</ele>
        <time>2020-05-31T15:30:30.000Z</time>
      </trkpt>
      <trkpt lat="43.54435" lon="1.45608">
        <ele>210.80000305176</ele>
        <time>2020-05-31T15:30:31.000Z</time>
      </trkpt>
      <trkpt lat="43.54435" lon="1.45629">
        <ele>211</ele>
        <time>2020-05-31T15:30:35.000Z</time>
      </trkpt>
      <trkpt lat="43.5443" lon="1.45668">
        <ele>211</ele>
        <time>2020-05-31T15:30:41.000Z</time>
      </trkpt>
      <trkpt lat="43.54418" lon="1.45689">
        <ele>210.60000610352</ele>
        <time>2020-05-31T15:30:45.000Z</time>
      </trkpt>
      <trkpt lat="43.54415" lon="1.45695">
        <ele>210.60000610352</ele>
        <time>2020-05-31T15:30:46.000Z</time>
      </trkpt>
      <trkpt lat="43.54399" lon="1.45729">
        <ele>210</ele>
        <time>2020-05-31T15:30:51.000Z</time>
      </trkpt>
      <trkpt lat="43.54388" lon="1.45734">
        <ele>209.19999694824</ele>
        <time>2020-05-31T15:30:53.000Z</time>
      </trkpt>
      <trkpt lat="43.54377" lon="1.45736">
        <ele>208.19999694824</ele>
        <time>2020-05-31T15:30:55.000Z</time>
      </trkpt>
      <trkpt lat="43.54368" lon="1.45746">
        <ele>207</ele>
        <time>2020-05-31T15:30:57.000Z</time>
      </trkpt>
      <trkpt lat="43.54364" lon="1.45753">
        <ele>206.60000610352</ele>
        <time>2020-05-31T15:30:58.000Z</time>
      </trkpt>
      <trkpt lat="43.54343" lon="1.45786">
        <ele>206</ele>
        <time>2020-05-31T15:31:03.000Z</time>
      </trkpt>
      <trkpt lat="43.54333" lon="1.45805">
        <ele>205.39999389648</ele>
        <time>2020-05-31T15:31:07.000Z</time>
      </trkpt>
      <trkpt lat="43.54331" lon="1.45809">
        <ele>205.19999694824</ele>
        <time>2020-05-31T15:31:16.000Z</time>
      </trkpt>
      <trkpt lat="43.54331" lon="1.45809">
        <ele>205.19999694824</ele>
        <time>2020-05-31T15:31:17.000Z</time>
      </trkpt>
      <trkpt lat="43.54329" lon="1.45809">
        <ele>205.60000610352</ele>
        <time>2020-05-31T15:31:26.000Z</time>
      </trkpt>
      <trkpt lat="43.54327" lon="1.4581">
        <ele>205.60000610352</ele>
        <time>2020-05-31T15:31:28.000Z</time>
      </trkpt>
      <trkpt lat="43.54322" lon="1.45808">
        <ele>205.60000610352</ele>
        <time>2020-05-31T15:31:32.000Z</time>
      </trkpt>
    </trkseg>
  </trk>
</gpx>